<?xml version="1.0" encoding="UTF-8" standalone="no" ?>
<gpx xmlns="http://www.topografix.com/GPX/1/1" xmlns:xsi="http://www.w3.org/2001/XMLSchema-instance" xsi:schemaLocation="http://www.topografix.com/GPX/1/1 http://www.topografix.com/GPX/1/1/gpx.xsd" version="1.1" creator="VisuGPX - https://www.visugpx.com">
  <metadata>
    <name>Les sucs ardéchois</name>
    <desc><![CDATA[Rando pédestre sur le plateau ardéchois, entre Mt Fol, Mezenc, Sarra et Gerbier de Jonc.]]></desc>
  </metadata>
  <trk>
    <name><![CDATA[Les sucs ardéchois_1]]></name>
    <trkseg>
      <trkpt lat="44.84691" lon="4.14556">
        <ele>1339</ele>
        <time>2018-08-14T05:30:28.000Z</time>
      </trkpt>
      <trkpt lat="44.84693" lon="4.14606">
        <ele>1336</ele>
        <time>2018-08-14T05:30:56.000Z</time>
      </trkpt>
      <trkpt lat="44.84684" lon="4.14655">
        <ele>1342</ele>
        <time>2018-08-14T05:31:24.000Z</time>
      </trkpt>
      <trkpt lat="44.84679" lon="4.14678">
        <ele>1346</ele>
        <time>2018-08-14T05:31:38.000Z</time>
      </trkpt>
      <trkpt lat="44.84702" lon="4.147">
        <ele>1351</ele>
        <time>2018-08-14T05:32:05.000Z</time>
      </trkpt>
      <trkpt lat="44.84702" lon="4.147">
        <ele>1352</ele>
        <time>2018-08-14T05:32:07.000Z</time>
      </trkpt>
      <trkpt lat="44.84708" lon="4.14703">
        <ele>1355</ele>
        <time>2018-08-14T05:32:35.000Z</time>
      </trkpt>
      <trkpt lat="44.84711" lon="4.14704">
        <ele>1355</ele>
        <time>2018-08-14T05:32:36.000Z</time>
      </trkpt>
      <trkpt lat="44.84743" lon="4.14727">
        <ele>1356</ele>
        <time>2018-08-14T05:32:57.000Z</time>
      </trkpt>
      <trkpt lat="44.84772" lon="4.14755">
        <ele>1356</ele>
        <time>2018-08-14T05:33:30.000Z</time>
      </trkpt>
      <trkpt lat="44.84767" lon="4.14805">
        <ele>1356</ele>
        <time>2018-08-14T05:34:01.000Z</time>
      </trkpt>
      <trkpt lat="44.84764" lon="4.14855">
        <ele>1358</ele>
        <time>2018-08-14T05:34:32.000Z</time>
      </trkpt>
      <trkpt lat="44.84756" lon="4.14904">
        <ele>1366</ele>
        <time>2018-08-14T05:35:11.000Z</time>
      </trkpt>
      <trkpt lat="44.84754" lon="4.14954">
        <ele>1371</ele>
        <time>2018-08-14T05:35:46.000Z</time>
      </trkpt>
      <trkpt lat="44.84748" lon="4.15004">
        <ele>1375</ele>
        <time>2018-08-14T05:36:19.000Z</time>
      </trkpt>
      <trkpt lat="44.84743" lon="4.15053">
        <ele>1381</ele>
        <time>2018-08-14T05:36:50.000Z</time>
      </trkpt>
      <trkpt lat="44.84737" lon="4.15103">
        <ele>1387</ele>
        <time>2018-08-14T05:37:19.000Z</time>
      </trkpt>
      <trkpt lat="44.8474" lon="4.15154">
        <ele>1397</ele>
        <time>2018-08-14T05:37:53.000Z</time>
      </trkpt>
      <trkpt lat="44.84746" lon="4.15161">
        <ele>1399</ele>
        <time>2018-08-14T05:38:09.000Z</time>
      </trkpt>
      <trkpt lat="44.84747" lon="4.15168">
        <ele>1400</ele>
        <time>2018-08-14T05:38:27.000Z</time>
      </trkpt>
      <trkpt lat="44.84748" lon="4.15172">
        <ele>1400</ele>
        <time>2018-08-14T05:38:28.000Z</time>
      </trkpt>
      <trkpt lat="44.84759" lon="4.1522">
        <ele>1402</ele>
        <time>2018-08-14T05:38:48.000Z</time>
      </trkpt>
      <trkpt lat="44.84761" lon="4.15247">
        <ele>1404</ele>
        <time>2018-08-14T05:39:12.000Z</time>
      </trkpt>
      <trkpt lat="44.84781" lon="4.15259">
        <ele>1405</ele>
        <time>2018-08-14T05:39:33.000Z</time>
      </trkpt>
      <trkpt lat="44.848" lon="4.15269">
        <ele>1407</ele>
        <time>2018-08-14T05:39:53.000Z</time>
      </trkpt>
      <trkpt lat="44.84797" lon="4.15304">
        <ele>1409</ele>
        <time>2018-08-14T05:40:21.000Z</time>
      </trkpt>
      <trkpt lat="44.84802" lon="4.15353">
        <ele>1413</ele>
        <time>2018-08-14T05:40:57.000Z</time>
      </trkpt>
      <trkpt lat="44.8481" lon="4.15402">
        <ele>1418</ele>
        <time>2018-08-14T05:41:36.000Z</time>
      </trkpt>
      <trkpt lat="44.8481" lon="4.15452">
        <ele>1423</ele>
        <time>2018-08-14T05:42:13.000Z</time>
      </trkpt>
      <trkpt lat="44.84822" lon="4.15499">
        <ele>1424</ele>
        <time>2018-08-14T05:42:53.000Z</time>
      </trkpt>
      <trkpt lat="44.84838" lon="4.15543">
        <ele>1426</ele>
        <time>2018-08-14T05:43:27.000Z</time>
      </trkpt>
      <trkpt lat="44.84843" lon="4.15576">
        <ele>1429</ele>
        <time>2018-08-14T05:44:00.000Z</time>
      </trkpt>
      <trkpt lat="44.84843" lon="4.15583">
        <ele>1428</ele>
        <time>2018-08-14T05:44:42.000Z</time>
      </trkpt>
      <trkpt lat="44.84844" lon="4.15587">
        <ele>1428</ele>
        <time>2018-08-14T05:44:43.000Z</time>
      </trkpt>
      <trkpt lat="44.84845" lon="4.15637">
        <ele>1427</ele>
        <time>2018-08-14T05:45:06.000Z</time>
      </trkpt>
      <trkpt lat="44.84849" lon="4.15687">
        <ele>1427</ele>
        <time>2018-08-14T05:45:38.000Z</time>
      </trkpt>
      <trkpt lat="44.84853" lon="4.15737">
        <ele>1427</ele>
        <time>2018-08-14T05:46:07.000Z</time>
      </trkpt>
      <trkpt lat="44.8487" lon="4.15762">
        <ele>1428</ele>
        <time>2018-08-14T05:46:40.000Z</time>
      </trkpt>
      <trkpt lat="44.84871" lon="4.1577">
        <ele>1428</ele>
        <time>2018-08-14T05:47:20.000Z</time>
      </trkpt>
      <trkpt lat="44.84872" lon="4.15774">
        <ele>1428</ele>
        <time>2018-08-14T05:47:21.000Z</time>
      </trkpt>
      <trkpt lat="44.84874" lon="4.15824">
        <ele>1429</ele>
        <time>2018-08-14T05:47:45.000Z</time>
      </trkpt>
      <trkpt lat="44.84874" lon="4.15875">
        <ele>1430</ele>
        <time>2018-08-14T05:48:18.000Z</time>
      </trkpt>
      <trkpt lat="44.84879" lon="4.15924">
        <ele>1433</ele>
        <time>2018-08-14T05:48:52.000Z</time>
      </trkpt>
      <trkpt lat="44.8488" lon="4.15975">
        <ele>1438</ele>
        <time>2018-08-14T05:49:24.000Z</time>
      </trkpt>
      <trkpt lat="44.84887" lon="4.16023">
        <ele>1442</ele>
        <time>2018-08-14T05:49:57.000Z</time>
      </trkpt>
      <trkpt lat="44.8489" lon="4.16072">
        <ele>1445</ele>
        <time>2018-08-14T05:50:30.000Z</time>
      </trkpt>
      <trkpt lat="44.849" lon="4.16121">
        <ele>1449</ele>
        <time>2018-08-14T05:51:02.000Z</time>
      </trkpt>
      <trkpt lat="44.84906" lon="4.1617">
        <ele>1456</ele>
        <time>2018-08-14T05:51:34.000Z</time>
      </trkpt>
      <trkpt lat="44.84914" lon="4.1622">
        <ele>1464</ele>
        <time>2018-08-14T05:52:10.000Z</time>
      </trkpt>
      <trkpt lat="44.84916" lon="4.16272">
        <ele>1469</ele>
        <time>2018-08-14T05:52:40.000Z</time>
      </trkpt>
      <trkpt lat="44.84909" lon="4.16321">
        <ele>1470</ele>
        <time>2018-08-14T05:53:13.000Z</time>
      </trkpt>
      <trkpt lat="44.84903" lon="4.16368">
        <ele>1467</ele>
        <time>2018-08-14T05:53:54.000Z</time>
      </trkpt>
      <trkpt lat="44.84901" lon="4.16378">
        <ele>1466</ele>
        <time>2018-08-14T05:54:02.000Z</time>
      </trkpt>
      <trkpt lat="44.84901" lon="4.16386">
        <ele>1464</ele>
        <time>2018-08-14T05:54:34.000Z</time>
      </trkpt>
      <trkpt lat="44.84901" lon="4.16392">
        <ele>1464</ele>
        <time>2018-08-14T05:54:35.000Z</time>
      </trkpt>
      <trkpt lat="44.84911" lon="4.16435">
        <ele>1463</ele>
        <time>2018-08-14T05:54:52.000Z</time>
      </trkpt>
      <trkpt lat="44.84922" lon="4.16452">
        <ele>1461</ele>
        <time>2018-08-14T05:55:03.000Z</time>
      </trkpt>
      <trkpt lat="44.84909" lon="4.16484">
        <ele>1460</ele>
        <time>2018-08-14T05:55:27.000Z</time>
      </trkpt>
      <trkpt lat="44.84899" lon="4.16506">
        <ele>1460</ele>
        <time>2018-08-14T05:55:41.000Z</time>
      </trkpt>
      <trkpt lat="44.84903" lon="4.16532">
        <ele>1460</ele>
        <time>2018-08-14T05:56:02.000Z</time>
      </trkpt>
      <trkpt lat="44.849" lon="4.16555">
        <ele>1460</ele>
        <time>2018-08-14T05:56:19.000Z</time>
      </trkpt>
      <trkpt lat="44.84884" lon="4.16575">
        <ele>1460</ele>
        <time>2018-08-14T05:56:37.000Z</time>
      </trkpt>
      <trkpt lat="44.84874" lon="4.16581">
        <ele>1461</ele>
        <time>2018-08-14T05:56:50.000Z</time>
      </trkpt>
      <trkpt lat="44.8487" lon="4.16587">
        <ele>1460</ele>
        <time>2018-08-14T05:57:09.000Z</time>
      </trkpt>
      <trkpt lat="44.84868" lon="4.1659">
        <ele>1460</ele>
        <time>2018-08-14T05:57:10.000Z</time>
      </trkpt>
      <trkpt lat="44.84858" lon="4.16603">
        <ele>1460</ele>
        <time>2018-08-14T05:57:14.000Z</time>
      </trkpt>
      <trkpt lat="44.84855" lon="4.16605">
        <ele>1459</ele>
        <time>2018-08-14T05:57:44.000Z</time>
      </trkpt>
      <trkpt lat="44.84853" lon="4.16608">
        <ele>1459</ele>
        <time>2018-08-14T05:57:45.000Z</time>
      </trkpt>
      <trkpt lat="44.84829" lon="4.16629">
        <ele>1459</ele>
        <time>2018-08-14T05:57:48.000Z</time>
      </trkpt>
      <trkpt lat="44.84804" lon="4.16664">
        <ele>1459</ele>
        <time>2018-08-14T05:58:07.000Z</time>
      </trkpt>
      <trkpt lat="44.84789" lon="4.16681">
        <ele>1459</ele>
        <time>2018-08-14T05:58:28.000Z</time>
      </trkpt>
      <trkpt lat="44.84769" lon="4.16667">
        <ele>1460</ele>
        <time>2018-08-14T05:58:49.000Z</time>
      </trkpt>
      <trkpt lat="44.84745" lon="4.16633">
        <ele>1461</ele>
        <time>2018-08-14T05:59:17.000Z</time>
      </trkpt>
      <trkpt lat="44.84728" lon="4.1659">
        <ele>1462</ele>
        <time>2018-08-14T05:59:43.000Z</time>
      </trkpt>
      <trkpt lat="44.84713" lon="4.16545">
        <ele>1462</ele>
        <time>2018-08-14T06:00:15.000Z</time>
      </trkpt>
      <trkpt lat="44.84694" lon="4.16503">
        <ele>1459</ele>
        <time>2018-08-14T06:00:43.000Z</time>
      </trkpt>
      <trkpt lat="44.84691" lon="4.16491">
        <ele>1456</ele>
        <time>2018-08-14T06:00:55.000Z</time>
      </trkpt>
      <trkpt lat="44.84689" lon="4.16488">
        <ele>1451</ele>
        <time>2018-08-14T06:01:12.000Z</time>
      </trkpt>
      <trkpt lat="44.84688" lon="4.16485">
        <ele>1451</ele>
        <time>2018-08-14T06:01:13.000Z</time>
      </trkpt>
      <trkpt lat="44.84671" lon="4.16442">
        <ele>1450</ele>
        <time>2018-08-14T06:01:29.000Z</time>
      </trkpt>
      <trkpt lat="44.84653" lon="4.16399">
        <ele>1450</ele>
        <time>2018-08-14T06:02:01.000Z</time>
      </trkpt>
      <trkpt lat="44.84636" lon="4.16357">
        <ele>1454</ele>
        <time>2018-08-14T06:02:32.000Z</time>
      </trkpt>
      <trkpt lat="44.84623" lon="4.16312">
        <ele>1459</ele>
        <time>2018-08-14T06:03:03.000Z</time>
      </trkpt>
      <trkpt lat="44.84605" lon="4.16271">
        <ele>1465</ele>
        <time>2018-08-14T06:03:40.000Z</time>
      </trkpt>
      <trkpt lat="44.84601" lon="4.16265">
        <ele>1464</ele>
        <time>2018-08-14T06:03:47.000Z</time>
      </trkpt>
      <trkpt lat="44.84594" lon="4.16257">
        <ele>1470</ele>
        <time>2018-08-14T06:04:11.000Z</time>
      </trkpt>
      <trkpt lat="44.84592" lon="4.16253">
        <ele>1470</ele>
        <time>2018-08-14T06:04:12.000Z</time>
      </trkpt>
      <trkpt lat="44.8457" lon="4.16215">
        <ele>1476</ele>
        <time>2018-08-14T06:04:44.000Z</time>
      </trkpt>
      <trkpt lat="44.84547" lon="4.16178">
        <ele>1485</ele>
        <time>2018-08-14T06:05:36.000Z</time>
      </trkpt>
      <trkpt lat="44.84524" lon="4.1614">
        <ele>1501</ele>
        <time>2018-08-14T06:06:39.000Z</time>
      </trkpt>
      <trkpt lat="44.8452" lon="4.16097">
        <ele>1520</ele>
        <time>2018-08-14T06:07:36.000Z</time>
      </trkpt>
      <trkpt lat="44.84521" lon="4.16091">
        <ele>1532</ele>
        <time>2018-08-14T06:08:17.000Z</time>
      </trkpt>
      <trkpt lat="44.84523" lon="4.16088">
        <ele>1532</ele>
        <time>2018-08-14T06:08:18.000Z</time>
      </trkpt>
      <trkpt lat="44.84527" lon="4.1607">
        <ele>1535</ele>
        <time>2018-08-14T06:08:29.000Z</time>
      </trkpt>
      <trkpt lat="44.84528" lon="4.16065">
        <ele>1544</ele>
        <time>2018-08-14T06:08:58.000Z</time>
      </trkpt>
      <trkpt lat="44.84529" lon="4.16061">
        <ele>1544</ele>
        <time>2018-08-14T06:08:59.000Z</time>
      </trkpt>
      <trkpt lat="44.8453" lon="4.16013">
        <ele>1551</ele>
        <time>2018-08-14T06:09:31.000Z</time>
      </trkpt>
      <trkpt lat="44.84527" lon="4.15964">
        <ele>1560</ele>
        <time>2018-08-14T06:10:13.000Z</time>
      </trkpt>
      <trkpt lat="44.84523" lon="4.15929">
        <ele>1568</ele>
        <time>2018-08-14T06:10:49.000Z</time>
      </trkpt>
      <trkpt lat="44.84498" lon="4.15934">
        <ele>1579</ele>
        <time>2018-08-14T06:11:29.000Z</time>
      </trkpt>
      <trkpt lat="44.84483" lon="4.15921">
        <ele>1588</ele>
        <time>2018-08-14T06:12:03.000Z</time>
      </trkpt>
      <trkpt lat="44.84488" lon="4.15923">
        <ele>1592</ele>
        <time>2018-08-14T06:14:09.000Z</time>
      </trkpt>
      <trkpt lat="44.84491" lon="4.15924">
        <ele>1592</ele>
        <time>2018-08-14T06:14:10.000Z</time>
      </trkpt>
      <trkpt lat="44.84526" lon="4.15934">
        <ele>1591</ele>
        <time>2018-08-14T06:14:46.000Z</time>
      </trkpt>
      <trkpt lat="44.84526" lon="4.15947">
        <ele>1589</ele>
        <time>2018-08-14T06:15:08.000Z</time>
      </trkpt>
      <trkpt lat="44.84525" lon="4.15956">
        <ele>1587</ele>
        <time>2018-08-14T06:15:53.000Z</time>
      </trkpt>
      <trkpt lat="44.84525" lon="4.15961">
        <ele>1587</ele>
        <time>2018-08-14T06:15:54.000Z</time>
      </trkpt>
      <trkpt lat="44.84526" lon="4.15977">
        <ele>1586</ele>
        <time>2018-08-14T06:15:59.000Z</time>
      </trkpt>
      <trkpt lat="44.84527" lon="4.15987">
        <ele>1585</ele>
        <time>2018-08-14T06:16:18.000Z</time>
      </trkpt>
      <trkpt lat="44.84527" lon="4.15991">
        <ele>1585</ele>
        <time>2018-08-14T06:16:19.000Z</time>
      </trkpt>
      <trkpt lat="44.8453" lon="4.16041">
        <ele>1580</ele>
        <time>2018-08-14T06:16:53.000Z</time>
      </trkpt>
      <trkpt lat="44.84527" lon="4.16091">
        <ele>1565</ele>
        <time>2018-08-14T06:17:58.000Z</time>
      </trkpt>
      <trkpt lat="44.84516" lon="4.16119">
        <ele>1555</ele>
        <time>2018-08-14T06:18:26.000Z</time>
      </trkpt>
      <trkpt lat="44.84524" lon="4.1614">
        <ele>1545</ele>
        <time>2018-08-14T06:18:49.000Z</time>
      </trkpt>
      <trkpt lat="44.84539" lon="4.1617">
        <ele>1534</ele>
        <time>2018-08-14T06:19:12.000Z</time>
      </trkpt>
      <trkpt lat="44.8455" lon="4.16172">
        <ele>1528</ele>
        <time>2018-08-14T06:19:24.000Z</time>
      </trkpt>
      <trkpt lat="44.84572" lon="4.16211">
        <ele>1516</ele>
        <time>2018-08-14T06:19:56.000Z</time>
      </trkpt>
      <trkpt lat="44.84577" lon="4.16229">
        <ele>1513</ele>
        <time>2018-08-14T06:20:05.000Z</time>
      </trkpt>
      <trkpt lat="44.84598" lon="4.16246">
        <ele>1506</ele>
        <time>2018-08-14T06:20:23.000Z</time>
      </trkpt>
      <trkpt lat="44.84622" lon="4.16285">
        <ele>1496</ele>
        <time>2018-08-14T06:20:41.000Z</time>
      </trkpt>
      <trkpt lat="44.84635" lon="4.16331">
        <ele>1478</ele>
        <time>2018-08-14T06:21:07.000Z</time>
      </trkpt>
      <trkpt lat="44.84647" lon="4.16377">
        <ele>1465</ele>
        <time>2018-08-14T06:21:31.000Z</time>
      </trkpt>
      <trkpt lat="44.84668" lon="4.16416">
        <ele>1457</ele>
        <time>2018-08-14T06:21:59.000Z</time>
      </trkpt>
      <trkpt lat="44.84692" lon="4.16453">
        <ele>1450</ele>
        <time>2018-08-14T06:22:27.000Z</time>
      </trkpt>
      <trkpt lat="44.84715" lon="4.16491">
        <ele>1447</ele>
        <time>2018-08-14T06:22:47.000Z</time>
      </trkpt>
      <trkpt lat="44.84731" lon="4.16532">
        <ele>1445</ele>
        <time>2018-08-14T06:23:12.000Z</time>
      </trkpt>
      <trkpt lat="44.84743" lon="4.16579">
        <ele>1450</ele>
        <time>2018-08-14T06:23:32.000Z</time>
      </trkpt>
      <trkpt lat="44.84752" lon="4.16627">
        <ele>1449</ele>
        <time>2018-08-14T06:23:55.000Z</time>
      </trkpt>
      <trkpt lat="44.84772" lon="4.16668">
        <ele>1449</ele>
        <time>2018-08-14T06:24:18.000Z</time>
      </trkpt>
      <trkpt lat="44.84786" lon="4.16687">
        <ele>1451</ele>
        <time>2018-08-14T06:24:31.000Z</time>
      </trkpt>
      <trkpt lat="44.84772" lon="4.16718">
        <ele>1458</ele>
        <time>2018-08-14T06:24:45.000Z</time>
      </trkpt>
      <trkpt lat="44.84766" lon="4.16755">
        <ele>1458</ele>
        <time>2018-08-14T06:25:14.000Z</time>
      </trkpt>
      <trkpt lat="44.84768" lon="4.1676">
        <ele>1461</ele>
        <time>2018-08-14T06:26:54.000Z</time>
      </trkpt>
      <trkpt lat="44.84768" lon="4.16764">
        <ele>1461</ele>
        <time>2018-08-14T06:26:55.000Z</time>
      </trkpt>
      <trkpt lat="44.84782" lon="4.16807">
        <ele>1461</ele>
        <time>2018-08-14T06:27:10.000Z</time>
      </trkpt>
      <trkpt lat="44.84789" lon="4.16813">
        <ele>1459</ele>
        <time>2018-08-14T06:27:22.000Z</time>
      </trkpt>
      <trkpt lat="44.84792" lon="4.16815">
        <ele>1459</ele>
        <time>2018-08-14T06:27:23.000Z</time>
      </trkpt>
      <trkpt lat="44.84822" lon="4.16843">
        <ele>1457</ele>
        <time>2018-08-14T06:27:41.000Z</time>
      </trkpt>
      <trkpt lat="44.84846" lon="4.16878">
        <ele>1462</ele>
        <time>2018-08-14T06:28:10.000Z</time>
      </trkpt>
      <trkpt lat="44.84864" lon="4.16919">
        <ele>1465</ele>
        <time>2018-08-14T06:28:42.000Z</time>
      </trkpt>
      <trkpt lat="44.84878" lon="4.16963">
        <ele>1466</ele>
        <time>2018-08-14T06:29:09.000Z</time>
      </trkpt>
      <trkpt lat="44.84896" lon="4.17004">
        <ele>1470</ele>
        <time>2018-08-14T06:29:39.000Z</time>
      </trkpt>
      <trkpt lat="44.84905" lon="4.17051">
        <ele>1472</ele>
        <time>2018-08-14T06:30:07.000Z</time>
      </trkpt>
      <trkpt lat="44.84929" lon="4.17086">
        <ele>1474</ele>
        <time>2018-08-14T06:30:35.000Z</time>
      </trkpt>
      <trkpt lat="44.84943" lon="4.17131">
        <ele>1475</ele>
        <time>2018-08-14T06:31:06.000Z</time>
      </trkpt>
      <trkpt lat="44.84949" lon="4.17156">
        <ele>1473</ele>
        <time>2018-08-14T06:31:25.000Z</time>
      </trkpt>
      <trkpt lat="44.84966" lon="4.17169">
        <ele>1472</ele>
        <time>2018-08-14T06:31:39.000Z</time>
      </trkpt>
      <trkpt lat="44.84973" lon="4.17172">
        <ele>1472</ele>
        <time>2018-08-14T06:31:49.000Z</time>
      </trkpt>
      <trkpt lat="44.84974" lon="4.17172">
        <ele>1473</ele>
        <time>2018-08-14T06:32:06.000Z</time>
      </trkpt>
      <trkpt lat="44.84975" lon="4.17173">
        <ele>1473</ele>
        <time>2018-08-14T06:32:07.000Z</time>
      </trkpt>
      <trkpt lat="44.85001" lon="4.17199">
        <ele>1471</ele>
        <time>2018-08-14T06:32:24.000Z</time>
      </trkpt>
      <trkpt lat="44.84998" lon="4.17213">
        <ele>1474</ele>
        <time>2018-08-14T06:32:50.000Z</time>
      </trkpt>
      <trkpt lat="44.84997" lon="4.1722">
        <ele>1474</ele>
        <time>2018-08-14T06:32:51.000Z</time>
      </trkpt>
      <trkpt lat="44.84991" lon="4.17265">
        <ele>1478</ele>
        <time>2018-08-14T06:33:09.000Z</time>
      </trkpt>
      <trkpt lat="44.84993" lon="4.17267">
        <ele>1479</ele>
        <time>2018-08-14T06:33:16.000Z</time>
      </trkpt>
      <trkpt lat="44.84994" lon="4.17269">
        <ele>1479</ele>
        <time>2018-08-14T06:33:17.000Z</time>
      </trkpt>
      <trkpt lat="44.85013" lon="4.17296">
        <ele>1480</ele>
        <time>2018-08-14T06:33:19.000Z</time>
      </trkpt>
      <trkpt lat="44.85021" lon="4.17304">
        <ele>1480</ele>
        <time>2018-08-14T06:33:22.000Z</time>
      </trkpt>
      <trkpt lat="44.85024" lon="4.17302">
        <ele>1481</ele>
        <time>2018-08-14T06:33:24.000Z</time>
      </trkpt>
      <trkpt lat="44.85026" lon="4.17299">
        <ele>1481</ele>
        <time>2018-08-14T06:33:25.000Z</time>
      </trkpt>
      <trkpt lat="44.85029" lon="4.17292">
        <ele>1481</ele>
        <time>2018-08-14T06:33:27.000Z</time>
      </trkpt>
      <trkpt lat="44.85025" lon="4.17287">
        <ele>1482</ele>
        <time>2018-08-14T06:33:29.000Z</time>
      </trkpt>
      <trkpt lat="44.85022" lon="4.17284">
        <ele>1482</ele>
        <time>2018-08-14T06:33:30.000Z</time>
      </trkpt>
      <trkpt lat="44.8502" lon="4.1728">
        <ele>1483</ele>
        <time>2018-08-14T06:33:32.000Z</time>
      </trkpt>
      <trkpt lat="44.85016" lon="4.17276">
        <ele>1483</ele>
        <time>2018-08-14T06:33:34.000Z</time>
      </trkpt>
      <trkpt lat="44.85015" lon="4.1728">
        <ele>1485</ele>
        <time>2018-08-14T06:33:44.000Z</time>
      </trkpt>
      <trkpt lat="44.85018" lon="4.17283">
        <ele>1485</ele>
        <time>2018-08-14T06:33:47.000Z</time>
      </trkpt>
      <trkpt lat="44.85022" lon="4.17284">
        <ele>1483</ele>
        <time>2018-08-14T06:34:11.000Z</time>
      </trkpt>
      <trkpt lat="44.85024" lon="4.17283">
        <ele>1483</ele>
        <time>2018-08-14T06:34:12.000Z</time>
      </trkpt>
      <trkpt lat="44.85058" lon="4.17276">
        <ele>1478</ele>
        <time>2018-08-14T06:34:27.000Z</time>
      </trkpt>
      <trkpt lat="44.85092" lon="4.1727">
        <ele>1476</ele>
        <time>2018-08-14T06:34:56.000Z</time>
      </trkpt>
      <trkpt lat="44.85108" lon="4.17267">
        <ele>1475</ele>
        <time>2018-08-14T06:35:08.000Z</time>
      </trkpt>
      <trkpt lat="44.85125" lon="4.17281">
        <ele>1473</ele>
        <time>2018-08-14T06:35:22.000Z</time>
      </trkpt>
      <trkpt lat="44.85128" lon="4.17283">
        <ele>1473</ele>
        <time>2018-08-14T06:35:26.000Z</time>
      </trkpt>
      <trkpt lat="44.85133" lon="4.17281">
        <ele>1472</ele>
        <time>2018-08-14T06:35:58.000Z</time>
      </trkpt>
      <trkpt lat="44.85137" lon="4.1728">
        <ele>1472</ele>
        <time>2018-08-14T06:35:59.000Z</time>
      </trkpt>
      <trkpt lat="44.85172" lon="4.17273">
        <ele>1474</ele>
        <time>2018-08-14T06:36:22.000Z</time>
      </trkpt>
      <trkpt lat="44.85207" lon="4.17274">
        <ele>1480</ele>
        <time>2018-08-14T06:36:41.000Z</time>
      </trkpt>
      <trkpt lat="44.85234" lon="4.17302">
        <ele>1486</ele>
        <time>2018-08-14T06:37:06.000Z</time>
      </trkpt>
      <trkpt lat="44.85258" lon="4.17337">
        <ele>1494</ele>
        <time>2018-08-14T06:37:43.000Z</time>
      </trkpt>
      <trkpt lat="44.85275" lon="4.17355">
        <ele>1504</ele>
        <time>2018-08-14T06:38:00.000Z</time>
      </trkpt>
      <trkpt lat="44.85294" lon="4.17344">
        <ele>1514</ele>
        <time>2018-08-14T06:38:22.000Z</time>
      </trkpt>
      <trkpt lat="44.85329" lon="4.17338">
        <ele>1529</ele>
        <time>2018-08-14T06:39:00.000Z</time>
      </trkpt>
      <trkpt lat="44.85341" lon="4.17349">
        <ele>1533</ele>
        <time>2018-08-14T06:39:10.000Z</time>
      </trkpt>
      <trkpt lat="44.85345" lon="4.17381">
        <ele>1540</ele>
        <time>2018-08-14T06:39:30.000Z</time>
      </trkpt>
      <trkpt lat="44.85341" lon="4.1743">
        <ele>1553</ele>
        <time>2018-08-14T06:40:01.000Z</time>
      </trkpt>
      <trkpt lat="44.85342" lon="4.17433">
        <ele>1554</ele>
        <time>2018-08-14T06:40:05.000Z</time>
      </trkpt>
      <trkpt lat="44.85346" lon="4.17437">
        <ele>1557</ele>
        <time>2018-08-14T06:40:50.000Z</time>
      </trkpt>
      <trkpt lat="44.85348" lon="4.17439">
        <ele>1557</ele>
        <time>2018-08-14T06:40:51.000Z</time>
      </trkpt>
      <trkpt lat="44.85359" lon="4.17443">
        <ele>1557</ele>
        <time>2018-08-14T06:40:54.000Z</time>
      </trkpt>
      <trkpt lat="44.85381" lon="4.17416">
        <ele>1557</ele>
        <time>2018-08-14T06:41:15.000Z</time>
      </trkpt>
      <trkpt lat="44.85416" lon="4.17407">
        <ele>1562</ele>
        <time>2018-08-14T06:41:44.000Z</time>
      </trkpt>
      <trkpt lat="44.85449" lon="4.17388">
        <ele>1566</ele>
        <time>2018-08-14T06:42:17.000Z</time>
      </trkpt>
      <trkpt lat="44.85471" lon="4.17389">
        <ele>1570</ele>
        <time>2018-08-14T06:42:38.000Z</time>
      </trkpt>
      <trkpt lat="44.85483" lon="4.17376">
        <ele>1573</ele>
        <time>2018-08-14T06:42:51.000Z</time>
      </trkpt>
      <trkpt lat="44.85496" lon="4.17359">
        <ele>1574</ele>
        <time>2018-08-14T06:43:09.000Z</time>
      </trkpt>
      <trkpt lat="44.85511" lon="4.17357">
        <ele>1576</ele>
        <time>2018-08-14T06:43:30.000Z</time>
      </trkpt>
      <trkpt lat="44.85514" lon="4.17353">
        <ele>1585</ele>
        <time>2018-08-14T06:44:19.000Z</time>
      </trkpt>
      <trkpt lat="44.85516" lon="4.17349">
        <ele>1585</ele>
        <time>2018-08-14T06:44:20.000Z</time>
      </trkpt>
      <trkpt lat="44.85542" lon="4.17315">
        <ele>1584</ele>
        <time>2018-08-14T06:44:34.000Z</time>
      </trkpt>
      <trkpt lat="44.85569" lon="4.17281">
        <ele>1583</ele>
        <time>2018-08-14T06:45:00.000Z</time>
      </trkpt>
      <trkpt lat="44.85595" lon="4.17247">
        <ele>1578</ele>
        <time>2018-08-14T06:45:28.000Z</time>
      </trkpt>
      <trkpt lat="44.85598" lon="4.17235">
        <ele>1576</ele>
        <time>2018-08-14T06:45:48.000Z</time>
      </trkpt>
      <trkpt lat="44.85599" lon="4.17224">
        <ele>1576</ele>
        <time>2018-08-14T06:46:34.000Z</time>
      </trkpt>
      <trkpt lat="44.856" lon="4.17219">
        <ele>1576</ele>
        <time>2018-08-14T06:46:35.000Z</time>
      </trkpt>
      <trkpt lat="44.85621" lon="4.17181">
        <ele>1575</ele>
        <time>2018-08-14T06:47:00.000Z</time>
      </trkpt>
      <trkpt lat="44.85622" lon="4.17156">
        <ele>1573</ele>
        <time>2018-08-14T06:47:14.000Z</time>
      </trkpt>
      <trkpt lat="44.85638" lon="4.17139">
        <ele>1564</ele>
        <time>2018-08-14T06:47:32.000Z</time>
      </trkpt>
      <trkpt lat="44.85658" lon="4.17099">
        <ele>1557</ele>
        <time>2018-08-14T06:47:46.000Z</time>
      </trkpt>
      <trkpt lat="44.85658" lon="4.17049">
        <ele>1554</ele>
        <time>2018-08-14T06:48:12.000Z</time>
      </trkpt>
      <trkpt lat="44.85662" lon="4.17001">
        <ele>1545</ele>
        <time>2018-08-14T06:48:38.000Z</time>
      </trkpt>
      <trkpt lat="44.85682" lon="4.16961">
        <ele>1537</ele>
        <time>2018-08-14T06:48:59.000Z</time>
      </trkpt>
      <trkpt lat="44.85698" lon="4.16919">
        <ele>1527</ele>
        <time>2018-08-14T06:49:23.000Z</time>
      </trkpt>
      <trkpt lat="44.85715" lon="4.16925">
        <ele>1522</ele>
        <time>2018-08-14T06:49:29.000Z</time>
      </trkpt>
      <trkpt lat="44.85748" lon="4.16937">
        <ele>1515</ele>
        <time>2018-08-14T06:49:46.000Z</time>
      </trkpt>
      <trkpt lat="44.8575" lon="4.16941">
        <ele>1514</ele>
        <time>2018-08-14T06:49:47.000Z</time>
      </trkpt>
      <trkpt lat="44.8575" lon="4.16945">
        <ele>1513</ele>
        <time>2018-08-14T06:49:48.000Z</time>
      </trkpt>
      <trkpt lat="44.8575" lon="4.1695">
        <ele>1511</ele>
        <time>2018-08-14T06:49:50.000Z</time>
      </trkpt>
      <trkpt lat="44.85754" lon="4.16949">
        <ele>1507</ele>
        <time>2018-08-14T06:49:58.000Z</time>
      </trkpt>
      <trkpt lat="44.85756" lon="4.16948">
        <ele>1506</ele>
        <time>2018-08-14T06:50:01.000Z</time>
      </trkpt>
      <trkpt lat="44.85759" lon="4.16946">
        <ele>1505</ele>
        <time>2018-08-14T06:50:04.000Z</time>
      </trkpt>
      <trkpt lat="44.85762" lon="4.16945">
        <ele>1505</ele>
        <time>2018-08-14T06:50:07.000Z</time>
      </trkpt>
      <trkpt lat="44.85764" lon="4.16951">
        <ele>1503</ele>
        <time>2018-08-14T06:50:11.000Z</time>
      </trkpt>
      <trkpt lat="44.85765" lon="4.16954">
        <ele>1503</ele>
        <time>2018-08-14T06:50:13.000Z</time>
      </trkpt>
      <trkpt lat="44.85768" lon="4.16955">
        <ele>1501</ele>
        <time>2018-08-14T06:50:16.000Z</time>
      </trkpt>
      <trkpt lat="44.85769" lon="4.16959">
        <ele>1500</ele>
        <time>2018-08-14T06:50:19.000Z</time>
      </trkpt>
      <trkpt lat="44.8577" lon="4.16964">
        <ele>1499</ele>
        <time>2018-08-14T06:50:22.000Z</time>
      </trkpt>
      <trkpt lat="44.85807" lon="4.16988">
        <ele>1491</ele>
        <time>2018-08-14T06:50:56.000Z</time>
      </trkpt>
      <trkpt lat="44.85837" lon="4.1701">
        <ele>1488</ele>
        <time>2018-08-14T06:51:19.000Z</time>
      </trkpt>
      <trkpt lat="44.8586" lon="4.1702">
        <ele>1491</ele>
        <time>2018-08-14T06:51:41.000Z</time>
      </trkpt>
      <trkpt lat="44.85865" lon="4.17012">
        <ele>1494</ele>
        <time>2018-08-14T06:52:14.000Z</time>
      </trkpt>
      <trkpt lat="44.85869" lon="4.17008">
        <ele>1494</ele>
        <time>2018-08-14T06:52:15.000Z</time>
      </trkpt>
      <trkpt lat="44.85869" lon="4.17008">
        <ele>1494</ele>
        <time>2018-08-14T06:52:15.000Z</time>
      </trkpt>
      <trkpt lat="44.85872" lon="4.17004">
        <ele>1495</ele>
        <time>2018-08-14T06:52:16.000Z</time>
      </trkpt>
      <trkpt lat="44.85876" lon="4.17001">
        <ele>1495</ele>
        <time>2018-08-14T06:52:17.000Z</time>
      </trkpt>
      <trkpt lat="44.85881" lon="4.16997">
        <ele>1495</ele>
        <time>2018-08-14T06:52:20.000Z</time>
      </trkpt>
      <trkpt lat="44.85883" lon="4.16993">
        <ele>1496</ele>
        <time>2018-08-14T06:52:22.000Z</time>
      </trkpt>
      <trkpt lat="44.85884" lon="4.1699">
        <ele>1496</ele>
        <time>2018-08-14T06:52:24.000Z</time>
      </trkpt>
      <trkpt lat="44.85882" lon="4.16987">
        <ele>1497</ele>
        <time>2018-08-14T06:52:27.000Z</time>
      </trkpt>
      <trkpt lat="44.85879" lon="4.16984">
        <ele>1497</ele>
        <time>2018-08-14T06:52:29.000Z</time>
      </trkpt>
      <trkpt lat="44.85876" lon="4.16982">
        <ele>1498</ele>
        <time>2018-08-14T06:52:33.000Z</time>
      </trkpt>
      <trkpt lat="44.85883" lon="4.16984">
        <ele>1498</ele>
        <time>2018-08-14T06:52:40.000Z</time>
      </trkpt>
      <trkpt lat="44.85888" lon="4.16985">
        <ele>1498</ele>
        <time>2018-08-14T06:52:42.000Z</time>
      </trkpt>
      <trkpt lat="44.85892" lon="4.16985">
        <ele>1498</ele>
        <time>2018-08-14T06:52:44.000Z</time>
      </trkpt>
      <trkpt lat="44.85895" lon="4.16984">
        <ele>1498</ele>
        <time>2018-08-14T06:52:47.000Z</time>
      </trkpt>
      <trkpt lat="44.85897" lon="4.16977">
        <ele>1501</ele>
        <time>2018-08-14T06:53:13.000Z</time>
      </trkpt>
      <trkpt lat="44.85898" lon="4.16975">
        <ele>1501</ele>
        <time>2018-08-14T06:53:14.000Z</time>
      </trkpt>
      <trkpt lat="44.85922" lon="4.16948">
        <ele>1503</ele>
        <time>2018-08-14T06:53:33.000Z</time>
      </trkpt>
      <trkpt lat="44.85926" lon="4.1694">
        <ele>1501</ele>
        <time>2018-08-14T06:54:05.000Z</time>
      </trkpt>
      <trkpt lat="44.85928" lon="4.16936">
        <ele>1501</ele>
        <time>2018-08-14T06:54:06.000Z</time>
      </trkpt>
      <trkpt lat="44.85928" lon="4.16936">
        <ele>1501</ele>
        <time>2018-08-14T06:54:06.000Z</time>
      </trkpt>
      <trkpt lat="44.85931" lon="4.16932">
        <ele>1501</ele>
        <time>2018-08-14T06:54:07.000Z</time>
      </trkpt>
      <trkpt lat="44.85934" lon="4.16928">
        <ele>1501</ele>
        <time>2018-08-14T06:54:08.000Z</time>
      </trkpt>
      <trkpt lat="44.85937" lon="4.16925">
        <ele>1501</ele>
        <time>2018-08-14T06:54:09.000Z</time>
      </trkpt>
      <trkpt lat="44.85942" lon="4.16921">
        <ele>1501</ele>
        <time>2018-08-14T06:54:13.000Z</time>
      </trkpt>
      <trkpt lat="44.85947" lon="4.16919">
        <ele>1501</ele>
        <time>2018-08-14T06:54:15.000Z</time>
      </trkpt>
      <trkpt lat="44.8595" lon="4.16918">
        <ele>1501</ele>
        <time>2018-08-14T06:54:16.000Z</time>
      </trkpt>
      <trkpt lat="44.85953" lon="4.16915">
        <ele>1501</ele>
        <time>2018-08-14T06:54:18.000Z</time>
      </trkpt>
      <trkpt lat="44.85949" lon="4.16913">
        <ele>1501</ele>
        <time>2018-08-14T06:54:22.000Z</time>
      </trkpt>
      <trkpt lat="44.85947" lon="4.16913">
        <ele>1501</ele>
        <time>2018-08-14T06:54:23.000Z</time>
      </trkpt>
      <trkpt lat="44.85944" lon="4.16911">
        <ele>1501</ele>
        <time>2018-08-14T06:54:25.000Z</time>
      </trkpt>
      <trkpt lat="44.85941" lon="4.1691">
        <ele>1501</ele>
        <time>2018-08-14T06:54:26.000Z</time>
      </trkpt>
      <trkpt lat="44.85944" lon="4.16907">
        <ele>1502</ele>
        <time>2018-08-14T06:54:30.000Z</time>
      </trkpt>
      <trkpt lat="44.85967" lon="4.16904">
        <ele>1501</ele>
        <time>2018-08-14T06:54:42.000Z</time>
      </trkpt>
      <trkpt lat="44.85967" lon="4.16899">
        <ele>1502</ele>
        <time>2018-08-14T06:55:01.000Z</time>
      </trkpt>
      <trkpt lat="44.85967" lon="4.16895">
        <ele>1502</ele>
        <time>2018-08-14T06:55:02.000Z</time>
      </trkpt>
      <trkpt lat="44.85975" lon="4.16859">
        <ele>1503</ele>
        <time>2018-08-14T06:55:09.000Z</time>
      </trkpt>
      <trkpt lat="44.85997" lon="4.16836">
        <ele>1504</ele>
        <time>2018-08-14T06:55:17.000Z</time>
      </trkpt>
      <trkpt lat="44.85993" lon="4.16825">
        <ele>1506</ele>
        <time>2018-08-14T06:55:29.000Z</time>
      </trkpt>
      <trkpt lat="44.85991" lon="4.16816">
        <ele>1509</ele>
        <time>2018-08-14T06:55:44.000Z</time>
      </trkpt>
      <trkpt lat="44.8599" lon="4.16812">
        <ele>1509</ele>
        <time>2018-08-14T06:55:45.000Z</time>
      </trkpt>
      <trkpt lat="44.85982" lon="4.16765">
        <ele>1512</ele>
        <time>2018-08-14T06:56:10.000Z</time>
      </trkpt>
      <trkpt lat="44.85963" lon="4.16743">
        <ele>1512</ele>
        <time>2018-08-14T06:56:26.000Z</time>
      </trkpt>
      <trkpt lat="44.85984" lon="4.16722">
        <ele>1513</ele>
        <time>2018-08-14T06:56:54.000Z</time>
      </trkpt>
      <trkpt lat="44.85979" lon="4.16709">
        <ele>1513</ele>
        <time>2018-08-14T06:57:02.000Z</time>
      </trkpt>
      <trkpt lat="44.86029" lon="4.16698">
        <ele>1515</ele>
        <time>2018-08-14T06:57:13.000Z</time>
      </trkpt>
      <trkpt lat="44.86032" lon="4.16697">
        <ele>1516</ele>
        <time>2018-08-14T06:57:15.000Z</time>
      </trkpt>
      <trkpt lat="44.86032" lon="4.16691">
        <ele>1528</ele>
        <time>2018-08-14T06:57:36.000Z</time>
      </trkpt>
      <trkpt lat="44.86032" lon="4.16687">
        <ele>1528</ele>
        <time>2018-08-14T06:57:37.000Z</time>
      </trkpt>
      <trkpt lat="44.86034" lon="4.16641">
        <ele>1535</ele>
        <time>2018-08-14T06:58:06.000Z</time>
      </trkpt>
      <trkpt lat="44.86024" lon="4.1663">
        <ele>1537</ele>
        <time>2018-08-14T06:58:12.000Z</time>
      </trkpt>
      <trkpt lat="44.8603" lon="4.16624">
        <ele>1539</ele>
        <time>2018-08-14T06:58:18.000Z</time>
      </trkpt>
      <trkpt lat="44.86031" lon="4.16611">
        <ele>1550</ele>
        <time>2018-08-14T06:58:42.000Z</time>
      </trkpt>
      <trkpt lat="44.86032" lon="4.16606">
        <ele>1550</ele>
        <time>2018-08-14T06:58:43.000Z</time>
      </trkpt>
      <trkpt lat="44.86032" lon="4.16602">
        <ele>1551</ele>
        <time>2018-08-14T06:58:45.000Z</time>
      </trkpt>
      <trkpt lat="44.86036" lon="4.16591">
        <ele>1578</ele>
        <time>2018-08-14T06:59:39.000Z</time>
      </trkpt>
      <trkpt lat="44.86039" lon="4.16585">
        <ele>1578</ele>
        <time>2018-08-14T06:59:40.000Z</time>
      </trkpt>
      <trkpt lat="44.86045" lon="4.16556">
        <ele>1581</ele>
        <time>2018-08-14T06:59:47.000Z</time>
      </trkpt>
      <trkpt lat="44.86045" lon="4.16549">
        <ele>1600</ele>
        <time>2018-08-14T07:01:28.000Z</time>
      </trkpt>
      <trkpt lat="44.86045" lon="4.16544">
        <ele>1600</ele>
        <time>2018-08-14T07:01:29.000Z</time>
      </trkpt>
      <trkpt lat="44.86045" lon="4.16538">
        <ele>1600</ele>
        <time>2018-08-14T07:01:31.000Z</time>
      </trkpt>
      <trkpt lat="44.86044" lon="4.16535">
        <ele>1598</ele>
        <time>2018-08-14T07:01:48.000Z</time>
      </trkpt>
      <trkpt lat="44.86043" lon="4.16533">
        <ele>1598</ele>
        <time>2018-08-14T07:01:49.000Z</time>
      </trkpt>
      <trkpt lat="44.8603" lon="4.165">
        <ele>1597</ele>
        <time>2018-08-14T07:02:08.000Z</time>
      </trkpt>
      <trkpt lat="44.86033" lon="4.16487">
        <ele>1592</ele>
        <time>2018-08-14T07:02:39.000Z</time>
      </trkpt>
      <trkpt lat="44.86034" lon="4.16482">
        <ele>1592</ele>
        <time>2018-08-14T07:02:40.000Z</time>
      </trkpt>
      <trkpt lat="44.86037" lon="4.16466">
        <ele>1591</ele>
        <time>2018-08-14T07:02:49.000Z</time>
      </trkpt>
      <trkpt lat="44.86044" lon="4.16462">
        <ele>1592</ele>
        <time>2018-08-14T07:03:37.000Z</time>
      </trkpt>
      <trkpt lat="44.86048" lon="4.1646">
        <ele>1592</ele>
        <time>2018-08-14T07:03:38.000Z</time>
      </trkpt>
      <trkpt lat="44.86058" lon="4.16453">
        <ele>1592</ele>
        <time>2018-08-14T07:03:43.000Z</time>
      </trkpt>
      <trkpt lat="44.86045" lon="4.16458">
        <ele>1583</ele>
        <time>2018-08-14T07:04:12.000Z</time>
      </trkpt>
      <trkpt lat="44.86049" lon="4.16457">
        <ele>1581</ele>
        <time>2018-08-14T07:04:30.000Z</time>
      </trkpt>
      <trkpt lat="44.86052" lon="4.16457">
        <ele>1581</ele>
        <time>2018-08-14T07:04:31.000Z</time>
      </trkpt>
      <trkpt lat="44.86089" lon="4.16451">
        <ele>1579</ele>
        <time>2018-08-14T07:04:49.000Z</time>
      </trkpt>
      <trkpt lat="44.86086" lon="4.16451">
        <ele>1579</ele>
        <time>2018-08-14T07:04:56.000Z</time>
      </trkpt>
      <trkpt lat="44.86089" lon="4.1645">
        <ele>1577</ele>
        <time>2018-08-14T07:05:00.000Z</time>
      </trkpt>
      <trkpt lat="44.8609" lon="4.16447">
        <ele>1576</ele>
        <time>2018-08-14T07:05:04.000Z</time>
      </trkpt>
      <trkpt lat="44.86094" lon="4.16445">
        <ele>1576</ele>
        <time>2018-08-14T07:05:07.000Z</time>
      </trkpt>
      <trkpt lat="44.86097" lon="4.16444">
        <ele>1576</ele>
        <time>2018-08-14T07:05:09.000Z</time>
      </trkpt>
      <trkpt lat="44.86095" lon="4.16442">
        <ele>1573</ele>
        <time>2018-08-14T07:05:15.000Z</time>
      </trkpt>
      <trkpt lat="44.86097" lon="4.16444">
        <ele>1573</ele>
        <time>2018-08-14T07:05:20.000Z</time>
      </trkpt>
      <trkpt lat="44.861" lon="4.16445">
        <ele>1573</ele>
        <time>2018-08-14T07:05:23.000Z</time>
      </trkpt>
      <trkpt lat="44.86103" lon="4.16446">
        <ele>1572</ele>
        <time>2018-08-14T07:05:28.000Z</time>
      </trkpt>
      <trkpt lat="44.86104" lon="4.1645">
        <ele>1572</ele>
        <time>2018-08-14T07:05:33.000Z</time>
      </trkpt>
      <trkpt lat="44.86107" lon="4.16456">
        <ele>1572</ele>
        <time>2018-08-14T07:05:38.000Z</time>
      </trkpt>
      <trkpt lat="44.8611" lon="4.16458">
        <ele>1571</ele>
        <time>2018-08-14T07:05:39.000Z</time>
      </trkpt>
      <trkpt lat="44.86112" lon="4.16459">
        <ele>1571</ele>
        <time>2018-08-14T07:05:40.000Z</time>
      </trkpt>
      <trkpt lat="44.86109" lon="4.16458">
        <ele>1568</ele>
        <time>2018-08-14T07:05:44.000Z</time>
      </trkpt>
      <trkpt lat="44.86106" lon="4.16458">
        <ele>1567</ele>
        <time>2018-08-14T07:05:47.000Z</time>
      </trkpt>
      <trkpt lat="44.86103" lon="4.16457">
        <ele>1566</ele>
        <time>2018-08-14T07:05:51.000Z</time>
      </trkpt>
      <trkpt lat="44.861" lon="4.16454">
        <ele>1565</ele>
        <time>2018-08-14T07:05:53.000Z</time>
      </trkpt>
      <trkpt lat="44.86098" lon="4.16447">
        <ele>1564</ele>
        <time>2018-08-14T07:06:26.000Z</time>
      </trkpt>
      <trkpt lat="44.86099" lon="4.16447">
        <ele>1564</ele>
        <time>2018-08-14T07:06:27.000Z</time>
      </trkpt>
      <trkpt lat="44.861" lon="4.16446">
        <ele>1564</ele>
        <time>2018-08-14T07:06:28.000Z</time>
      </trkpt>
      <trkpt lat="44.86103" lon="4.16442">
        <ele>1563</ele>
        <time>2018-08-14T07:06:36.000Z</time>
      </trkpt>
      <trkpt lat="44.86106" lon="4.16439">
        <ele>1563</ele>
        <time>2018-08-14T07:06:37.000Z</time>
      </trkpt>
      <trkpt lat="44.86106" lon="4.16439">
        <ele>1563</ele>
        <time>2018-08-14T07:06:37.000Z</time>
      </trkpt>
      <trkpt lat="44.8611" lon="4.16433">
        <ele>1563</ele>
        <time>2018-08-14T07:06:38.000Z</time>
      </trkpt>
      <trkpt lat="44.86111" lon="4.16428">
        <ele>1562</ele>
        <time>2018-08-14T07:06:39.000Z</time>
      </trkpt>
      <trkpt lat="44.86112" lon="4.16421">
        <ele>1562</ele>
        <time>2018-08-14T07:06:41.000Z</time>
      </trkpt>
      <trkpt lat="44.86108" lon="4.16413">
        <ele>1562</ele>
        <time>2018-08-14T07:06:45.000Z</time>
      </trkpt>
      <trkpt lat="44.86117" lon="4.16418">
        <ele>1560</ele>
        <time>2018-08-14T07:06:49.000Z</time>
      </trkpt>
      <trkpt lat="44.8612" lon="4.1642">
        <ele>1560</ele>
        <time>2018-08-14T07:06:50.000Z</time>
      </trkpt>
      <trkpt lat="44.86116" lon="4.16416">
        <ele>1557</ele>
        <time>2018-08-14T07:06:55.000Z</time>
      </trkpt>
      <trkpt lat="44.86111" lon="4.16413">
        <ele>1556</ele>
        <time>2018-08-14T07:06:57.000Z</time>
      </trkpt>
      <trkpt lat="44.86106" lon="4.16408">
        <ele>1553</ele>
        <time>2018-08-14T07:07:02.000Z</time>
      </trkpt>
      <trkpt lat="44.86105" lon="4.16404">
        <ele>1552</ele>
        <time>2018-08-14T07:07:06.000Z</time>
      </trkpt>
      <trkpt lat="44.86108" lon="4.16402">
        <ele>1543</ele>
        <time>2018-08-14T07:07:26.000Z</time>
      </trkpt>
      <trkpt lat="44.86111" lon="4.16401">
        <ele>1543</ele>
        <time>2018-08-14T07:07:27.000Z</time>
      </trkpt>
      <trkpt lat="44.86137" lon="4.1639">
        <ele>1541</ele>
        <time>2018-08-14T07:07:38.000Z</time>
      </trkpt>
      <trkpt lat="44.86133" lon="4.16383">
        <ele>1535</ele>
        <time>2018-08-14T07:07:48.000Z</time>
      </trkpt>
      <trkpt lat="44.86132" lon="4.16372">
        <ele>1519</ele>
        <time>2018-08-14T07:08:27.000Z</time>
      </trkpt>
      <trkpt lat="44.86132" lon="4.16368">
        <ele>1519</ele>
        <time>2018-08-14T07:08:28.000Z</time>
      </trkpt>
      <trkpt lat="44.86129" lon="4.1636">
        <ele>1516</ele>
        <time>2018-08-14T07:08:33.000Z</time>
      </trkpt>
      <trkpt lat="44.86134" lon="4.16354">
        <ele>1511</ele>
        <time>2018-08-14T07:09:19.000Z</time>
      </trkpt>
      <trkpt lat="44.86137" lon="4.1635">
        <ele>1511</ele>
        <time>2018-08-14T07:09:20.000Z</time>
      </trkpt>
      <trkpt lat="44.86137" lon="4.1635">
        <ele>1511</ele>
        <time>2018-08-14T07:09:20.000Z</time>
      </trkpt>
      <trkpt lat="44.86142" lon="4.16344">
        <ele>1511</ele>
        <time>2018-08-14T07:09:21.000Z</time>
      </trkpt>
      <trkpt lat="44.86149" lon="4.16332">
        <ele>1510</ele>
        <time>2018-08-14T07:09:24.000Z</time>
      </trkpt>
      <trkpt lat="44.86151" lon="4.16328">
        <ele>1510</ele>
        <time>2018-08-14T07:09:26.000Z</time>
      </trkpt>
      <trkpt lat="44.86154" lon="4.16325">
        <ele>1506</ele>
        <time>2018-08-14T07:10:03.000Z</time>
      </trkpt>
      <trkpt lat="44.86155" lon="4.16325">
        <ele>1506</ele>
        <time>2018-08-14T07:10:04.000Z</time>
      </trkpt>
      <trkpt lat="44.86172" lon="4.16322">
        <ele>1505</ele>
        <time>2018-08-14T07:10:13.000Z</time>
      </trkpt>
      <trkpt lat="44.86179" lon="4.16304">
        <ele>1490</ele>
        <time>2018-08-14T07:10:48.000Z</time>
      </trkpt>
      <trkpt lat="44.86185" lon="4.16293">
        <ele>1479</ele>
        <time>2018-08-14T07:12:47.000Z</time>
      </trkpt>
      <trkpt lat="44.86187" lon="4.16289">
        <ele>1479</ele>
        <time>2018-08-14T07:12:48.000Z</time>
      </trkpt>
      <trkpt lat="44.86188" lon="4.16287">
        <ele>1479</ele>
        <time>2018-08-14T07:12:49.000Z</time>
      </trkpt>
      <trkpt lat="44.86192" lon="4.16286">
        <ele>1475</ele>
        <time>2018-08-14T07:15:10.000Z</time>
      </trkpt>
      <trkpt lat="44.86194" lon="4.16286">
        <ele>1475</ele>
        <time>2018-08-14T07:15:11.000Z</time>
      </trkpt>
      <trkpt lat="44.86217" lon="4.1629">
        <ele>1473</ele>
        <time>2018-08-14T07:15:18.000Z</time>
      </trkpt>
      <trkpt lat="44.86226" lon="4.16306">
        <ele>1471</ele>
        <time>2018-08-14T07:15:29.000Z</time>
      </trkpt>
      <trkpt lat="44.86234" lon="4.16322">
        <ele>1466</ele>
        <time>2018-08-14T07:15:42.000Z</time>
      </trkpt>
      <trkpt lat="44.86255" lon="4.16333">
        <ele>1462</ele>
        <time>2018-08-14T07:15:59.000Z</time>
      </trkpt>
      <trkpt lat="44.8628" lon="4.16365">
        <ele>1458</ele>
        <time>2018-08-14T07:16:32.000Z</time>
      </trkpt>
      <trkpt lat="44.86306" lon="4.16397">
        <ele>1456</ele>
        <time>2018-08-14T07:16:56.000Z</time>
      </trkpt>
      <trkpt lat="44.86313" lon="4.16444">
        <ele>1455</ele>
        <time>2018-08-14T07:17:22.000Z</time>
      </trkpt>
      <trkpt lat="44.86317" lon="4.16468">
        <ele>1453</ele>
        <time>2018-08-14T07:17:39.000Z</time>
      </trkpt>
      <trkpt lat="44.86317" lon="4.16473">
        <ele>1453</ele>
        <time>2018-08-14T07:17:52.000Z</time>
      </trkpt>
      <trkpt lat="44.86317" lon="4.16476">
        <ele>1453</ele>
        <time>2018-08-14T07:17:53.000Z</time>
      </trkpt>
      <trkpt lat="44.86321" lon="4.16515">
        <ele>1445</ele>
        <time>2018-08-14T07:18:05.000Z</time>
      </trkpt>
      <trkpt lat="44.86326" lon="4.16531">
        <ele>1443</ele>
        <time>2018-08-14T07:18:20.000Z</time>
      </trkpt>
      <trkpt lat="44.8632" lon="4.16543">
        <ele>1441</ele>
        <time>2018-08-14T07:18:40.000Z</time>
      </trkpt>
      <trkpt lat="44.86317" lon="4.16548">
        <ele>1441</ele>
        <time>2018-08-14T07:18:41.000Z</time>
      </trkpt>
      <trkpt lat="44.86311" lon="4.16595">
        <ele>1442</ele>
        <time>2018-08-14T07:19:02.000Z</time>
      </trkpt>
      <trkpt lat="44.86327" lon="4.16636">
        <ele>1442</ele>
        <time>2018-08-14T07:19:35.000Z</time>
      </trkpt>
      <trkpt lat="44.86332" lon="4.16648">
        <ele>1444</ele>
        <time>2018-08-14T07:19:46.000Z</time>
      </trkpt>
      <trkpt lat="44.86332" lon="4.16653">
        <ele>1448</ele>
        <time>2018-08-14T07:19:59.000Z</time>
      </trkpt>
      <trkpt lat="44.86333" lon="4.16657">
        <ele>1448</ele>
        <time>2018-08-14T07:20:00.000Z</time>
      </trkpt>
      <trkpt lat="44.86338" lon="4.16707">
        <ele>1452</ele>
        <time>2018-08-14T07:20:15.000Z</time>
      </trkpt>
      <trkpt lat="44.86345" lon="4.16755">
        <ele>1457</ele>
        <time>2018-08-14T07:20:36.000Z</time>
      </trkpt>
      <trkpt lat="44.86345" lon="4.16803">
        <ele>1465</ele>
        <time>2018-08-14T07:21:01.000Z</time>
      </trkpt>
      <trkpt lat="44.86333" lon="4.16851">
        <ele>1473</ele>
        <time>2018-08-14T07:21:24.000Z</time>
      </trkpt>
      <trkpt lat="44.86328" lon="4.16901">
        <ele>1479</ele>
        <time>2018-08-14T07:21:50.000Z</time>
      </trkpt>
      <trkpt lat="44.86304" lon="4.16937">
        <ele>1486</ele>
        <time>2018-08-14T07:22:18.000Z</time>
      </trkpt>
      <trkpt lat="44.86285" lon="4.16976">
        <ele>1491</ele>
        <time>2018-08-14T07:22:53.000Z</time>
      </trkpt>
      <trkpt lat="44.86277" lon="4.16991">
        <ele>1491</ele>
        <time>2018-08-14T07:23:03.000Z</time>
      </trkpt>
      <trkpt lat="44.86273" lon="4.16996">
        <ele>1490</ele>
        <time>2018-08-14T07:23:31.000Z</time>
      </trkpt>
      <trkpt lat="44.86271" lon="4.16999">
        <ele>1490</ele>
        <time>2018-08-14T07:23:32.000Z</time>
      </trkpt>
      <trkpt lat="44.86246" lon="4.17036">
        <ele>1494</ele>
        <time>2018-08-14T07:23:52.000Z</time>
      </trkpt>
      <trkpt lat="44.86216" lon="4.17063">
        <ele>1502</ele>
        <time>2018-08-14T07:24:22.000Z</time>
      </trkpt>
      <trkpt lat="44.86192" lon="4.17099">
        <ele>1512</ele>
        <time>2018-08-14T07:24:52.000Z</time>
      </trkpt>
      <trkpt lat="44.86163" lon="4.17122">
        <ele>1518</ele>
        <time>2018-08-14T07:25:14.000Z</time>
      </trkpt>
      <trkpt lat="44.86131" lon="4.17144">
        <ele>1526</ele>
        <time>2018-08-14T07:25:37.000Z</time>
      </trkpt>
      <trkpt lat="44.86098" lon="4.17166">
        <ele>1528</ele>
        <time>2018-08-14T07:26:05.000Z</time>
      </trkpt>
      <trkpt lat="44.86087" lon="4.17185">
        <ele>1528</ele>
        <time>2018-08-14T07:26:24.000Z</time>
      </trkpt>
      <trkpt lat="44.86068" lon="4.17192">
        <ele>1529</ele>
        <time>2018-08-14T07:26:45.000Z</time>
      </trkpt>
      <trkpt lat="44.86034" lon="4.17199">
        <ele>1530</ele>
        <time>2018-08-14T07:27:05.000Z</time>
      </trkpt>
      <trkpt lat="44.85998" lon="4.17202">
        <ele>1528</ele>
        <time>2018-08-14T07:27:26.000Z</time>
      </trkpt>
      <trkpt lat="44.85963" lon="4.17206">
        <ele>1529</ele>
        <time>2018-08-14T07:27:51.000Z</time>
      </trkpt>
      <trkpt lat="44.85943" lon="4.17209">
        <ele>1528</ele>
        <time>2018-08-14T07:28:07.000Z</time>
      </trkpt>
      <trkpt lat="44.85929" lon="4.17228">
        <ele>1521</ele>
        <time>2018-08-14T07:28:24.000Z</time>
      </trkpt>
      <trkpt lat="44.859" lon="4.17256">
        <ele>1515</ele>
        <time>2018-08-14T07:28:51.000Z</time>
      </trkpt>
      <trkpt lat="44.85878" lon="4.17292">
        <ele>1511</ele>
        <time>2018-08-14T07:29:18.000Z</time>
      </trkpt>
      <trkpt lat="44.85884" lon="4.17328">
        <ele>1506</ele>
        <time>2018-08-14T07:29:37.000Z</time>
      </trkpt>
      <trkpt lat="44.85877" lon="4.17341">
        <ele>1504</ele>
        <time>2018-08-14T07:29:46.000Z</time>
      </trkpt>
      <trkpt lat="44.85854" lon="4.17361">
        <ele>1501</ele>
        <time>2018-08-14T07:30:01.000Z</time>
      </trkpt>
      <trkpt lat="44.85841" lon="4.17393">
        <ele>1494</ele>
        <time>2018-08-14T07:30:18.000Z</time>
      </trkpt>
      <trkpt lat="44.85839" lon="4.17399">
        <ele>1493</ele>
        <time>2018-08-14T07:30:31.000Z</time>
      </trkpt>
      <trkpt lat="44.85838" lon="4.17402">
        <ele>1493</ele>
        <time>2018-08-14T07:30:32.000Z</time>
      </trkpt>
      <trkpt lat="44.85831" lon="4.17452">
        <ele>1491</ele>
        <time>2018-08-14T07:30:46.000Z</time>
      </trkpt>
      <trkpt lat="44.8586" lon="4.17482">
        <ele>1487</ele>
        <time>2018-08-14T07:31:10.000Z</time>
      </trkpt>
      <trkpt lat="44.85893" lon="4.17496">
        <ele>1479</ele>
        <time>2018-08-14T07:31:36.000Z</time>
      </trkpt>
      <trkpt lat="44.85921" lon="4.17528">
        <ele>1472</ele>
        <time>2018-08-14T07:32:01.000Z</time>
      </trkpt>
      <trkpt lat="44.85954" lon="4.17546">
        <ele>1466</ele>
        <time>2018-08-14T07:32:25.000Z</time>
      </trkpt>
      <trkpt lat="44.85984" lon="4.17572">
        <ele>1462</ele>
        <time>2018-08-14T07:32:48.000Z</time>
      </trkpt>
      <trkpt lat="44.86013" lon="4.17599">
        <ele>1458</ele>
        <time>2018-08-14T07:33:10.000Z</time>
      </trkpt>
      <trkpt lat="44.86044" lon="4.17626">
        <ele>1453</ele>
        <time>2018-08-14T07:33:34.000Z</time>
      </trkpt>
      <trkpt lat="44.86074" lon="4.17649">
        <ele>1446</ele>
        <time>2018-08-14T07:34:00.000Z</time>
      </trkpt>
      <trkpt lat="44.86097" lon="4.17654">
        <ele>1441</ele>
        <time>2018-08-14T07:34:17.000Z</time>
      </trkpt>
      <trkpt lat="44.86106" lon="4.17667">
        <ele>1438</ele>
        <time>2018-08-14T07:34:27.000Z</time>
      </trkpt>
      <trkpt lat="44.86133" lon="4.17698">
        <ele>1433</ele>
        <time>2018-08-14T07:34:49.000Z</time>
      </trkpt>
      <trkpt lat="44.86158" lon="4.17733">
        <ele>1429</ele>
        <time>2018-08-14T07:35:11.000Z</time>
      </trkpt>
      <trkpt lat="44.86181" lon="4.17768">
        <ele>1423</ele>
        <time>2018-08-14T07:35:33.000Z</time>
      </trkpt>
      <trkpt lat="44.86203" lon="4.17806">
        <ele>1415</ele>
        <time>2018-08-14T07:36:03.000Z</time>
      </trkpt>
      <trkpt lat="44.86213" lon="4.17809">
        <ele>1413</ele>
        <time>2018-08-14T07:36:13.000Z</time>
      </trkpt>
      <trkpt lat="44.86211" lon="4.17816">
        <ele>1412</ele>
        <time>2018-08-14T07:36:31.000Z</time>
      </trkpt>
      <trkpt lat="44.8621" lon="4.17821">
        <ele>1412</ele>
        <time>2018-08-14T07:36:32.000Z</time>
      </trkpt>
      <trkpt lat="44.86213" lon="4.17839">
        <ele>1412</ele>
        <time>2018-08-14T07:36:39.000Z</time>
      </trkpt>
      <trkpt lat="44.86232" lon="4.17855">
        <ele>1412</ele>
        <time>2018-08-14T07:36:50.000Z</time>
      </trkpt>
      <trkpt lat="44.86261" lon="4.17882">
        <ele>1412</ele>
        <time>2018-08-14T07:37:10.000Z</time>
      </trkpt>
      <trkpt lat="44.86282" lon="4.17921">
        <ele>1415</ele>
        <time>2018-08-14T07:37:36.000Z</time>
      </trkpt>
      <trkpt lat="44.86298" lon="4.17965">
        <ele>1420</ele>
        <time>2018-08-14T07:37:57.000Z</time>
      </trkpt>
      <trkpt lat="44.86307" lon="4.18012">
        <ele>1423</ele>
        <time>2018-08-14T07:38:14.000Z</time>
      </trkpt>
      <trkpt lat="44.86316" lon="4.18025">
        <ele>1425</ele>
        <time>2018-08-14T07:38:30.000Z</time>
      </trkpt>
      <trkpt lat="44.86318" lon="4.18027">
        <ele>1426</ele>
        <time>2018-08-14T07:38:41.000Z</time>
      </trkpt>
      <trkpt lat="44.8632" lon="4.18028">
        <ele>1426</ele>
        <time>2018-08-14T07:38:42.000Z</time>
      </trkpt>
      <trkpt lat="44.86349" lon="4.18049">
        <ele>1427</ele>
        <time>2018-08-14T07:38:55.000Z</time>
      </trkpt>
      <trkpt lat="44.86368" lon="4.18093">
        <ele>1429</ele>
        <time>2018-08-14T07:39:16.000Z</time>
      </trkpt>
      <trkpt lat="44.86381" lon="4.18138">
        <ele>1435</ele>
        <time>2018-08-14T07:39:40.000Z</time>
      </trkpt>
      <trkpt lat="44.86392" lon="4.18185">
        <ele>1438</ele>
        <time>2018-08-14T07:40:02.000Z</time>
      </trkpt>
      <trkpt lat="44.86419" lon="4.18217">
        <ele>1439</ele>
        <time>2018-08-14T07:40:28.000Z</time>
      </trkpt>
      <trkpt lat="44.86432" lon="4.18223">
        <ele>1440</ele>
        <time>2018-08-14T07:40:44.000Z</time>
      </trkpt>
      <trkpt lat="44.86434" lon="4.18228">
        <ele>1442</ele>
        <time>2018-08-14T07:40:59.000Z</time>
      </trkpt>
      <trkpt lat="44.86435" lon="4.18231">
        <ele>1442</ele>
        <time>2018-08-14T07:41:00.000Z</time>
      </trkpt>
      <trkpt lat="44.8646" lon="4.18267">
        <ele>1443</ele>
        <time>2018-08-14T07:41:22.000Z</time>
      </trkpt>
      <trkpt lat="44.86476" lon="4.18311">
        <ele>1446</ele>
        <time>2018-08-14T07:41:53.000Z</time>
      </trkpt>
      <trkpt lat="44.86503" lon="4.18344">
        <ele>1447</ele>
        <time>2018-08-14T07:42:11.000Z</time>
      </trkpt>
      <trkpt lat="44.86518" lon="4.18387">
        <ele>1449</ele>
        <time>2018-08-14T07:42:39.000Z</time>
      </trkpt>
      <trkpt lat="44.86544" lon="4.1842">
        <ele>1449</ele>
        <time>2018-08-14T07:43:04.000Z</time>
      </trkpt>
      <trkpt lat="44.86576" lon="4.1844">
        <ele>1449</ele>
        <time>2018-08-14T07:43:25.000Z</time>
      </trkpt>
      <trkpt lat="44.86604" lon="4.18471">
        <ele>1450</ele>
        <time>2018-08-14T07:43:45.000Z</time>
      </trkpt>
      <trkpt lat="44.86616" lon="4.18518">
        <ele>1454</ele>
        <time>2018-08-14T07:44:09.000Z</time>
      </trkpt>
      <trkpt lat="44.86622" lon="4.18553">
        <ele>1456</ele>
        <time>2018-08-14T07:44:24.000Z</time>
      </trkpt>
      <trkpt lat="44.86634" lon="4.1856">
        <ele>1457</ele>
        <time>2018-08-14T07:44:40.000Z</time>
      </trkpt>
      <trkpt lat="44.86649" lon="4.18575">
        <ele>1458</ele>
        <time>2018-08-14T07:44:52.000Z</time>
      </trkpt>
      <trkpt lat="44.86665" lon="4.18573">
        <ele>1452</ele>
        <time>2018-08-14T07:44:57.000Z</time>
      </trkpt>
      <trkpt lat="44.86699" lon="4.18587">
        <ele>1442</ele>
        <time>2018-08-14T07:45:22.000Z</time>
      </trkpt>
      <trkpt lat="44.86715" lon="4.18585">
        <ele>1441</ele>
        <time>2018-08-14T07:45:31.000Z</time>
      </trkpt>
      <trkpt lat="44.86731" lon="4.1861">
        <ele>1439</ele>
        <time>2018-08-14T07:45:49.000Z</time>
      </trkpt>
      <trkpt lat="44.86726" lon="4.18629">
        <ele>1441</ele>
        <time>2018-08-14T07:45:58.000Z</time>
      </trkpt>
      <trkpt lat="44.86754" lon="4.18647">
        <ele>1445</ele>
        <time>2018-08-14T07:46:16.000Z</time>
      </trkpt>
      <trkpt lat="44.86789" lon="4.18657">
        <ele>1452</ele>
        <time>2018-08-14T07:46:38.000Z</time>
      </trkpt>
      <trkpt lat="44.86823" lon="4.18661">
        <ele>1459</ele>
        <time>2018-08-14T07:47:08.000Z</time>
      </trkpt>
      <trkpt lat="44.86829" lon="4.1866">
        <ele>1460</ele>
        <time>2018-08-14T07:47:14.000Z</time>
      </trkpt>
      <trkpt lat="44.86831" lon="4.18659">
        <ele>1460</ele>
        <time>2018-08-14T07:47:28.000Z</time>
      </trkpt>
      <trkpt lat="44.86833" lon="4.18658">
        <ele>1460</ele>
        <time>2018-08-14T07:47:29.000Z</time>
      </trkpt>
      <trkpt lat="44.86865" lon="4.18639">
        <ele>1460</ele>
        <time>2018-08-14T07:47:40.000Z</time>
      </trkpt>
      <trkpt lat="44.86899" lon="4.18631">
        <ele>1459</ele>
        <time>2018-08-14T07:47:58.000Z</time>
      </trkpt>
      <trkpt lat="44.86932" lon="4.18626">
        <ele>1460</ele>
        <time>2018-08-14T07:48:21.000Z</time>
      </trkpt>
      <trkpt lat="44.86938" lon="4.1863">
        <ele>1460</ele>
        <time>2018-08-14T07:48:26.000Z</time>
      </trkpt>
      <trkpt lat="44.86947" lon="4.18636">
        <ele>1459</ele>
        <time>2018-08-14T07:48:46.000Z</time>
      </trkpt>
      <trkpt lat="44.86951" lon="4.18639">
        <ele>1459</ele>
        <time>2018-08-14T07:48:47.000Z</time>
      </trkpt>
      <trkpt lat="44.86977" lon="4.18657">
        <ele>1459</ele>
        <time>2018-08-14T07:49:05.000Z</time>
      </trkpt>
      <trkpt lat="44.86989" lon="4.18649">
        <ele>1457</ele>
        <time>2018-08-14T07:49:12.000Z</time>
      </trkpt>
      <trkpt lat="44.87025" lon="4.18647">
        <ele>1456</ele>
        <time>2018-08-14T07:49:26.000Z</time>
      </trkpt>
      <trkpt lat="44.87055" lon="4.18674">
        <ele>1454</ele>
        <time>2018-08-14T07:49:46.000Z</time>
      </trkpt>
      <trkpt lat="44.87083" lon="4.18695">
        <ele>1454</ele>
        <time>2018-08-14T07:50:03.000Z</time>
      </trkpt>
      <trkpt lat="44.87114" lon="4.18715">
        <ele>1454</ele>
        <time>2018-08-14T07:50:20.000Z</time>
      </trkpt>
      <trkpt lat="44.87146" lon="4.18735">
        <ele>1453</ele>
        <time>2018-08-14T07:50:42.000Z</time>
      </trkpt>
      <trkpt lat="44.87177" lon="4.18752">
        <ele>1451</ele>
        <time>2018-08-14T07:51:04.000Z</time>
      </trkpt>
      <trkpt lat="44.87212" lon="4.18756">
        <ele>1452</ele>
        <time>2018-08-14T07:51:30.000Z</time>
      </trkpt>
      <trkpt lat="44.87246" lon="4.18749">
        <ele>1452</ele>
        <time>2018-08-14T07:51:43.000Z</time>
      </trkpt>
      <trkpt lat="44.87265" lon="4.1876">
        <ele>1452</ele>
        <time>2018-08-14T07:51:54.000Z</time>
      </trkpt>
      <trkpt lat="44.8728" lon="4.18735">
        <ele>1451</ele>
        <time>2018-08-14T07:52:07.000Z</time>
      </trkpt>
      <trkpt lat="44.87304" lon="4.18699">
        <ele>1449</ele>
        <time>2018-08-14T07:52:32.000Z</time>
      </trkpt>
      <trkpt lat="44.87328" lon="4.18664">
        <ele>1449</ele>
        <time>2018-08-14T07:53:00.000Z</time>
      </trkpt>
      <trkpt lat="44.87361" lon="4.18646">
        <ele>1446</ele>
        <time>2018-08-14T07:53:30.000Z</time>
      </trkpt>
      <trkpt lat="44.87392" lon="4.18627">
        <ele>1443</ele>
        <time>2018-08-14T07:53:58.000Z</time>
      </trkpt>
      <trkpt lat="44.87402" lon="4.18617">
        <ele>1441</ele>
        <time>2018-08-14T07:54:05.000Z</time>
      </trkpt>
      <trkpt lat="44.87428" lon="4.18617">
        <ele>1434</ele>
        <time>2018-08-14T07:54:22.000Z</time>
      </trkpt>
      <trkpt lat="44.8745" lon="4.18609">
        <ele>1419</ele>
        <time>2018-08-14T07:54:49.000Z</time>
      </trkpt>
      <trkpt lat="44.87456" lon="4.18608">
        <ele>1414</ele>
        <time>2018-08-14T07:55:06.000Z</time>
      </trkpt>
      <trkpt lat="44.8746" lon="4.18607">
        <ele>1414</ele>
        <time>2018-08-14T07:55:07.000Z</time>
      </trkpt>
      <trkpt lat="44.87492" lon="4.18597">
        <ele>1409</ele>
        <time>2018-08-14T07:55:30.000Z</time>
      </trkpt>
      <trkpt lat="44.87526" lon="4.186">
        <ele>1404</ele>
        <time>2018-08-14T07:56:00.000Z</time>
      </trkpt>
      <trkpt lat="44.87534" lon="4.186">
        <ele>1400</ele>
        <time>2018-08-14T07:56:17.000Z</time>
      </trkpt>
      <trkpt lat="44.87537" lon="4.18599">
        <ele>1400</ele>
        <time>2018-08-14T07:56:18.000Z</time>
      </trkpt>
      <trkpt lat="44.87571" lon="4.18586">
        <ele>1400</ele>
        <time>2018-08-14T07:56:33.000Z</time>
      </trkpt>
      <trkpt lat="44.87599" lon="4.18559">
        <ele>1400</ele>
        <time>2018-08-14T07:56:56.000Z</time>
      </trkpt>
      <trkpt lat="44.87629" lon="4.18532">
        <ele>1400</ele>
        <time>2018-08-14T07:57:24.000Z</time>
      </trkpt>
      <trkpt lat="44.87659" lon="4.18506">
        <ele>1398</ele>
        <time>2018-08-14T07:57:57.000Z</time>
      </trkpt>
      <trkpt lat="44.8769" lon="4.18479">
        <ele>1400</ele>
        <time>2018-08-14T07:58:24.000Z</time>
      </trkpt>
      <trkpt lat="44.87724" lon="4.1846">
        <ele>1400</ele>
        <time>2018-08-14T07:58:50.000Z</time>
      </trkpt>
      <trkpt lat="44.87754" lon="4.18435">
        <ele>1394</ele>
        <time>2018-08-14T07:59:21.000Z</time>
      </trkpt>
      <trkpt lat="44.87785" lon="4.18412">
        <ele>1391</ele>
        <time>2018-08-14T07:59:50.000Z</time>
      </trkpt>
      <trkpt lat="44.87813" lon="4.1838">
        <ele>1389</ele>
        <time>2018-08-14T08:00:17.000Z</time>
      </trkpt>
      <trkpt lat="44.87826" lon="4.18334">
        <ele>1385</ele>
        <time>2018-08-14T08:00:54.000Z</time>
      </trkpt>
      <trkpt lat="44.87836" lon="4.18295">
        <ele>1382</ele>
        <time>2018-08-14T08:01:19.000Z</time>
      </trkpt>
      <trkpt lat="44.87839" lon="4.18293">
        <ele>1381</ele>
        <time>2018-08-14T08:01:39.000Z</time>
      </trkpt>
      <trkpt lat="44.87841" lon="4.18292">
        <ele>1381</ele>
        <time>2018-08-14T08:01:40.000Z</time>
      </trkpt>
      <trkpt lat="44.87856" lon="4.1829">
        <ele>1380</ele>
        <time>2018-08-14T08:01:46.000Z</time>
      </trkpt>
      <trkpt lat="44.87873" lon="4.18303">
        <ele>1374</ele>
        <time>2018-08-14T08:01:56.000Z</time>
      </trkpt>
      <trkpt lat="44.87885" lon="4.18289">
        <ele>1372</ele>
        <time>2018-08-14T08:02:13.000Z</time>
      </trkpt>
      <trkpt lat="44.87885" lon="4.18287">
        <ele>1372</ele>
        <time>2018-08-14T08:02:30.000Z</time>
      </trkpt>
      <trkpt lat="44.87884" lon="4.18286">
        <ele>1372</ele>
        <time>2018-08-14T08:02:31.000Z</time>
      </trkpt>
      <trkpt lat="44.87872" lon="4.18244">
        <ele>1373</ele>
        <time>2018-08-14T08:02:47.000Z</time>
      </trkpt>
      <trkpt lat="44.87876" lon="4.18223">
        <ele>1374</ele>
        <time>2018-08-14T08:02:56.000Z</time>
      </trkpt>
      <trkpt lat="44.87904" lon="4.18228">
        <ele>1377</ele>
        <time>2018-08-14T08:03:28.000Z</time>
      </trkpt>
      <trkpt lat="44.87905" lon="4.18229">
        <ele>1379</ele>
        <time>2018-08-14T08:03:46.000Z</time>
      </trkpt>
      <trkpt lat="44.87906" lon="4.18231">
        <ele>1379</ele>
        <time>2018-08-14T08:03:47.000Z</time>
      </trkpt>
      <trkpt lat="44.87922" lon="4.18251">
        <ele>1380</ele>
        <time>2018-08-14T08:03:56.000Z</time>
      </trkpt>
      <trkpt lat="44.87919" lon="4.18247">
        <ele>1382</ele>
        <time>2018-08-14T08:04:26.000Z</time>
      </trkpt>
      <trkpt lat="44.87918" lon="4.18244">
        <ele>1382</ele>
        <time>2018-08-14T08:04:27.000Z</time>
      </trkpt>
      <trkpt lat="44.87897" lon="4.18211">
        <ele>1383</ele>
        <time>2018-08-14T08:04:41.000Z</time>
      </trkpt>
      <trkpt lat="44.87896" lon="4.1821">
        <ele>1383</ele>
        <time>2018-08-14T08:04:42.000Z</time>
      </trkpt>
      <trkpt lat="44.87891" lon="4.18199">
        <ele>1383</ele>
        <time>2018-08-14T08:04:54.000Z</time>
      </trkpt>
      <trkpt lat="44.87888" lon="4.18195">
        <ele>1383</ele>
        <time>2018-08-14T08:04:55.000Z</time>
      </trkpt>
      <trkpt lat="44.87872" lon="4.18155">
        <ele>1385</ele>
        <time>2018-08-14T08:05:15.000Z</time>
      </trkpt>
      <trkpt lat="44.87867" lon="4.18108">
        <ele>1387</ele>
        <time>2018-08-14T08:05:35.000Z</time>
      </trkpt>
      <trkpt lat="44.87859" lon="4.1806">
        <ele>1391</ele>
        <time>2018-08-14T08:06:00.000Z</time>
      </trkpt>
      <trkpt lat="44.87841" lon="4.18018">
        <ele>1395</ele>
        <time>2018-08-14T08:06:26.000Z</time>
      </trkpt>
      <trkpt lat="44.87838" lon="4.17987">
        <ele>1400</ele>
        <time>2018-08-14T08:06:42.000Z</time>
      </trkpt>
      <trkpt lat="44.87819" lon="4.1798">
        <ele>1404</ele>
        <time>2018-08-14T08:06:51.000Z</time>
      </trkpt>
      <trkpt lat="44.87805" lon="4.17962">
        <ele>1407</ele>
        <time>2018-08-14T08:07:04.000Z</time>
      </trkpt>
      <trkpt lat="44.87811" lon="4.17943">
        <ele>1411</ele>
        <time>2018-08-14T08:07:19.000Z</time>
      </trkpt>
      <trkpt lat="44.87816" lon="4.17943">
        <ele>1411</ele>
        <time>2018-08-14T08:07:29.000Z</time>
      </trkpt>
      <trkpt lat="44.87819" lon="4.17942">
        <ele>1411</ele>
        <time>2018-08-14T08:07:30.000Z</time>
      </trkpt>
      <trkpt lat="44.87825" lon="4.17942">
        <ele>1412</ele>
        <time>2018-08-14T08:07:33.000Z</time>
      </trkpt>
      <trkpt lat="44.87829" lon="4.17942">
        <ele>1414</ele>
        <time>2018-08-14T08:07:45.000Z</time>
      </trkpt>
      <trkpt lat="44.87831" lon="4.17943">
        <ele>1414</ele>
        <time>2018-08-14T08:07:46.000Z</time>
      </trkpt>
      <trkpt lat="44.87846" lon="4.17945">
        <ele>1414</ele>
        <time>2018-08-14T08:07:51.000Z</time>
      </trkpt>
      <trkpt lat="44.87851" lon="4.17946">
        <ele>1415</ele>
        <time>2018-08-14T08:07:59.000Z</time>
      </trkpt>
      <trkpt lat="44.87854" lon="4.17946">
        <ele>1415</ele>
        <time>2018-08-14T08:08:00.000Z</time>
      </trkpt>
      <trkpt lat="44.87888" lon="4.17947">
        <ele>1416</ele>
        <time>2018-08-14T08:08:15.000Z</time>
      </trkpt>
      <trkpt lat="44.87924" lon="4.17954">
        <ele>1418</ele>
        <time>2018-08-14T08:08:35.000Z</time>
      </trkpt>
      <trkpt lat="44.87946" lon="4.17962">
        <ele>1419</ele>
        <time>2018-08-14T08:08:53.000Z</time>
      </trkpt>
      <trkpt lat="44.87949" lon="4.17962">
        <ele>1423</ele>
        <time>2018-08-14T08:09:09.000Z</time>
      </trkpt>
      <trkpt lat="44.87951" lon="4.17961">
        <ele>1423</ele>
        <time>2018-08-14T08:09:10.000Z</time>
      </trkpt>
      <trkpt lat="44.87986" lon="4.17954">
        <ele>1426</ele>
        <time>2018-08-14T08:09:22.000Z</time>
      </trkpt>
      <trkpt lat="44.87997" lon="4.17951">
        <ele>1428</ele>
        <time>2018-08-14T08:09:27.000Z</time>
      </trkpt>
      <trkpt lat="44.8802" lon="4.17967">
        <ele>1433</ele>
        <time>2018-08-14T08:09:42.000Z</time>
      </trkpt>
      <trkpt lat="44.88051" lon="4.17991">
        <ele>1441</ele>
        <time>2018-08-14T08:10:08.000Z</time>
      </trkpt>
      <trkpt lat="44.88082" lon="4.18011">
        <ele>1447</ele>
        <time>2018-08-14T08:10:30.000Z</time>
      </trkpt>
      <trkpt lat="44.88114" lon="4.18027">
        <ele>1450</ele>
        <time>2018-08-14T08:10:53.000Z</time>
      </trkpt>
      <trkpt lat="44.88145" lon="4.18047">
        <ele>1454</ele>
        <time>2018-08-14T08:11:19.000Z</time>
      </trkpt>
      <trkpt lat="44.88158" lon="4.18062">
        <ele>1455</ele>
        <time>2018-08-14T08:11:32.000Z</time>
      </trkpt>
      <trkpt lat="44.88163" lon="4.18089">
        <ele>1458</ele>
        <time>2018-08-14T08:11:47.000Z</time>
      </trkpt>
      <trkpt lat="44.88197" lon="4.18102">
        <ele>1461</ele>
        <time>2018-08-14T08:12:11.000Z</time>
      </trkpt>
      <trkpt lat="44.88231" lon="4.1812">
        <ele>1462</ele>
        <time>2018-08-14T08:12:34.000Z</time>
      </trkpt>
      <trkpt lat="44.88263" lon="4.18137">
        <ele>1466</ele>
        <time>2018-08-14T08:12:57.000Z</time>
      </trkpt>
      <trkpt lat="44.88285" lon="4.18173">
        <ele>1468</ele>
        <time>2018-08-14T08:13:27.000Z</time>
      </trkpt>
      <trkpt lat="44.88288" lon="4.18174">
        <ele>1469</ele>
        <time>2018-08-14T08:13:42.000Z</time>
      </trkpt>
      <trkpt lat="44.8829" lon="4.18174">
        <ele>1469</ele>
        <time>2018-08-14T08:13:43.000Z</time>
      </trkpt>
      <trkpt lat="44.88291" lon="4.18174">
        <ele>1469</ele>
        <time>2018-08-14T08:13:44.000Z</time>
      </trkpt>
      <trkpt lat="44.88298" lon="4.18177">
        <ele>1468</ele>
        <time>2018-08-14T08:13:52.000Z</time>
      </trkpt>
      <trkpt lat="44.88302" lon="4.18178">
        <ele>1468</ele>
        <time>2018-08-14T08:13:53.000Z</time>
      </trkpt>
      <trkpt lat="44.88304" lon="4.18179">
        <ele>1468</ele>
        <time>2018-08-14T08:13:55.000Z</time>
      </trkpt>
      <trkpt lat="44.88304" lon="4.18179">
        <ele>1469</ele>
        <time>2018-08-14T08:14:13.000Z</time>
      </trkpt>
      <trkpt lat="44.88305" lon="4.18179">
        <ele>1469</ele>
        <time>2018-08-14T08:14:14.000Z</time>
      </trkpt>
      <trkpt lat="44.88336" lon="4.18195">
        <ele>1472</ele>
        <time>2018-08-14T08:14:29.000Z</time>
      </trkpt>
      <trkpt lat="44.88369" lon="4.18206">
        <ele>1476</ele>
        <time>2018-08-14T08:14:53.000Z</time>
      </trkpt>
      <trkpt lat="44.88383" lon="4.18209">
        <ele>1479</ele>
        <time>2018-08-14T08:15:08.000Z</time>
      </trkpt>
      <trkpt lat="44.88389" lon="4.18211">
        <ele>1484</ele>
        <time>2018-08-14T08:15:24.000Z</time>
      </trkpt>
      <trkpt lat="44.88392" lon="4.18211">
        <ele>1484</ele>
        <time>2018-08-14T08:15:25.000Z</time>
      </trkpt>
      <trkpt lat="44.88405" lon="4.18214">
        <ele>1487</ele>
        <time>2018-08-14T08:15:31.000Z</time>
      </trkpt>
      <trkpt lat="44.88408" lon="4.18214">
        <ele>1491</ele>
        <time>2018-08-14T08:15:49.000Z</time>
      </trkpt>
      <trkpt lat="44.8841" lon="4.18215">
        <ele>1491</ele>
        <time>2018-08-14T08:15:50.000Z</time>
      </trkpt>
      <trkpt lat="44.88419" lon="4.18218">
        <ele>1492</ele>
        <time>2018-08-14T08:15:54.000Z</time>
      </trkpt>
      <trkpt lat="44.88423" lon="4.18219">
        <ele>1492</ele>
        <time>2018-08-14T08:16:03.000Z</time>
      </trkpt>
      <trkpt lat="44.88425" lon="4.18219">
        <ele>1492</ele>
        <time>2018-08-14T08:16:04.000Z</time>
      </trkpt>
      <trkpt lat="44.88458" lon="4.18217">
        <ele>1493</ele>
        <time>2018-08-14T08:16:16.000Z</time>
      </trkpt>
      <trkpt lat="44.88469" lon="4.1822">
        <ele>1494</ele>
        <time>2018-08-14T08:16:27.000Z</time>
      </trkpt>
      <trkpt lat="44.88476" lon="4.18217">
        <ele>1497</ele>
        <time>2018-08-14T08:17:18.000Z</time>
      </trkpt>
      <trkpt lat="44.8848" lon="4.18216">
        <ele>1497</ele>
        <time>2018-08-14T08:17:19.000Z</time>
      </trkpt>
      <trkpt lat="44.88484" lon="4.18215">
        <ele>1497</ele>
        <time>2018-08-14T08:17:22.000Z</time>
      </trkpt>
      <trkpt lat="44.88487" lon="4.18213">
        <ele>1498</ele>
        <time>2018-08-14T08:17:32.000Z</time>
      </trkpt>
      <trkpt lat="44.8849" lon="4.18212">
        <ele>1498</ele>
        <time>2018-08-14T08:17:33.000Z</time>
      </trkpt>
      <trkpt lat="44.88523" lon="4.18194">
        <ele>1498</ele>
        <time>2018-08-14T08:17:49.000Z</time>
      </trkpt>
      <trkpt lat="44.88546" lon="4.18179">
        <ele>1498</ele>
        <time>2018-08-14T08:18:19.000Z</time>
      </trkpt>
      <trkpt lat="44.88548" lon="4.18177">
        <ele>1495</ele>
        <time>2018-08-14T08:18:46.000Z</time>
      </trkpt>
      <trkpt lat="44.8855" lon="4.18175">
        <ele>1495</ele>
        <time>2018-08-14T08:18:47.000Z</time>
      </trkpt>
      <trkpt lat="44.88562" lon="4.18161">
        <ele>1495</ele>
        <time>2018-08-14T08:18:51.000Z</time>
      </trkpt>
      <trkpt lat="44.88564" lon="4.18159">
        <ele>1496</ele>
        <time>2018-08-14T08:19:02.000Z</time>
      </trkpt>
      <trkpt lat="44.88565" lon="4.18157">
        <ele>1496</ele>
        <time>2018-08-14T08:19:03.000Z</time>
      </trkpt>
      <trkpt lat="44.88596" lon="4.18131">
        <ele>1498</ele>
        <time>2018-08-14T08:19:25.000Z</time>
      </trkpt>
      <trkpt lat="44.88629" lon="4.18112">
        <ele>1507</ele>
        <time>2018-08-14T08:20:00.000Z</time>
      </trkpt>
      <trkpt lat="44.8864" lon="4.18112">
        <ele>1509</ele>
        <time>2018-08-14T08:20:09.000Z</time>
      </trkpt>
      <trkpt lat="44.88646" lon="4.18107">
        <ele>1516</ele>
        <time>2018-08-14T08:20:28.000Z</time>
      </trkpt>
      <trkpt lat="44.8865" lon="4.18105">
        <ele>1516</ele>
        <time>2018-08-14T08:20:29.000Z</time>
      </trkpt>
      <trkpt lat="44.8868" lon="4.18092">
        <ele>1523</ele>
        <time>2018-08-14T08:20:53.000Z</time>
      </trkpt>
      <trkpt lat="44.88685" lon="4.18089">
        <ele>1508</ele>
        <time>2018-08-14T08:28:31.000Z</time>
      </trkpt>
      <trkpt lat="44.88688" lon="4.18087">
        <ele>1508</ele>
        <time>2018-08-14T08:28:32.000Z</time>
      </trkpt>
      <trkpt lat="44.88712" lon="4.18082">
        <ele>1499</ele>
        <time>2018-08-14T08:28:42.000Z</time>
      </trkpt>
      <trkpt lat="44.88722" lon="4.18095">
        <ele>1490</ele>
        <time>2018-08-14T08:28:55.000Z</time>
      </trkpt>
      <trkpt lat="44.88754" lon="4.18114">
        <ele>1483</ele>
        <time>2018-08-14T08:29:31.000Z</time>
      </trkpt>
      <trkpt lat="44.88786" lon="4.18137">
        <ele>1487</ele>
        <time>2018-08-14T08:29:59.000Z</time>
      </trkpt>
      <trkpt lat="44.88816" lon="4.18162">
        <ele>1497</ele>
        <time>2018-08-14T08:30:27.000Z</time>
      </trkpt>
      <trkpt lat="44.88846" lon="4.18186">
        <ele>1506</ele>
        <time>2018-08-14T08:31:07.000Z</time>
      </trkpt>
      <trkpt lat="44.88853" lon="4.18195">
        <ele>1509</ele>
        <time>2018-08-14T08:31:20.000Z</time>
      </trkpt>
      <trkpt lat="44.8886" lon="4.182">
        <ele>1516</ele>
        <time>2018-08-14T08:31:49.000Z</time>
      </trkpt>
      <trkpt lat="44.88863" lon="4.18203">
        <ele>1516</ele>
        <time>2018-08-14T08:31:50.000Z</time>
      </trkpt>
      <trkpt lat="44.88892" lon="4.18231">
        <ele>1521</ele>
        <time>2018-08-14T08:32:09.000Z</time>
      </trkpt>
      <trkpt lat="44.88921" lon="4.18259">
        <ele>1525</ele>
        <time>2018-08-14T08:32:36.000Z</time>
      </trkpt>
      <trkpt lat="44.88946" lon="4.18275">
        <ele>1526</ele>
        <time>2018-08-14T08:33:00.000Z</time>
      </trkpt>
      <trkpt lat="44.88947" lon="4.18294">
        <ele>1529</ele>
        <time>2018-08-14T08:33:13.000Z</time>
      </trkpt>
      <trkpt lat="44.88974" lon="4.18324">
        <ele>1531</ele>
        <time>2018-08-14T08:33:36.000Z</time>
      </trkpt>
      <trkpt lat="44.89" lon="4.18343">
        <ele>1534</ele>
        <time>2018-08-14T08:34:02.000Z</time>
      </trkpt>
      <trkpt lat="44.89004" lon="4.18345">
        <ele>1535</ele>
        <time>2018-08-14T08:34:14.000Z</time>
      </trkpt>
      <trkpt lat="44.89006" lon="4.18347">
        <ele>1535</ele>
        <time>2018-08-14T08:34:15.000Z</time>
      </trkpt>
      <trkpt lat="44.89035" lon="4.18369">
        <ele>1536</ele>
        <time>2018-08-14T08:34:29.000Z</time>
      </trkpt>
      <trkpt lat="44.89064" lon="4.18398">
        <ele>1538</ele>
        <time>2018-08-14T08:34:59.000Z</time>
      </trkpt>
      <trkpt lat="44.89097" lon="4.18406">
        <ele>1541</ele>
        <time>2018-08-14T08:35:25.000Z</time>
      </trkpt>
      <trkpt lat="44.8913" lon="4.18421">
        <ele>1544</ele>
        <time>2018-08-14T08:35:50.000Z</time>
      </trkpt>
      <trkpt lat="44.89159" lon="4.18448">
        <ele>1543</ele>
        <time>2018-08-14T08:36:16.000Z</time>
      </trkpt>
      <trkpt lat="44.89161" lon="4.18444">
        <ele>1540</ele>
        <time>2018-08-14T08:36:21.000Z</time>
      </trkpt>
      <trkpt lat="44.89174" lon="4.18442">
        <ele>1542</ele>
        <time>2018-08-14T08:36:34.000Z</time>
      </trkpt>
      <trkpt lat="44.89177" lon="4.18442">
        <ele>1542</ele>
        <time>2018-08-14T08:36:35.000Z</time>
      </trkpt>
      <trkpt lat="44.89197" lon="4.18445">
        <ele>1545</ele>
        <time>2018-08-14T08:36:46.000Z</time>
      </trkpt>
      <trkpt lat="44.89203" lon="4.18455">
        <ele>1548</ele>
        <time>2018-08-14T08:37:02.000Z</time>
      </trkpt>
      <trkpt lat="44.89198" lon="4.18467">
        <ele>1555</ele>
        <time>2018-08-14T08:39:30.000Z</time>
      </trkpt>
      <trkpt lat="44.89196" lon="4.18472">
        <ele>1555</ele>
        <time>2018-08-14T08:39:31.000Z</time>
      </trkpt>
      <trkpt lat="44.8919" lon="4.18496">
        <ele>1558</ele>
        <time>2018-08-14T08:39:48.000Z</time>
      </trkpt>
      <trkpt lat="44.89187" lon="4.18506">
        <ele>1561</ele>
        <time>2018-08-14T08:40:14.000Z</time>
      </trkpt>
      <trkpt lat="44.89186" lon="4.1851">
        <ele>1561</ele>
        <time>2018-08-14T08:40:15.000Z</time>
      </trkpt>
      <trkpt lat="44.89174" lon="4.18556">
        <ele>1564</ele>
        <time>2018-08-14T08:40:41.000Z</time>
      </trkpt>
      <trkpt lat="44.89162" lon="4.18567">
        <ele>1564</ele>
        <time>2018-08-14T08:40:55.000Z</time>
      </trkpt>
      <trkpt lat="44.89154" lon="4.18571">
        <ele>1559</ele>
        <time>2018-08-14T08:41:50.000Z</time>
      </trkpt>
      <trkpt lat="44.89151" lon="4.18573">
        <ele>1559</ele>
        <time>2018-08-14T08:41:51.000Z</time>
      </trkpt>
      <trkpt lat="44.8912" lon="4.18596">
        <ele>1554</ele>
        <time>2018-08-14T08:42:12.000Z</time>
      </trkpt>
      <trkpt lat="44.89118" lon="4.18597">
        <ele>1553</ele>
        <time>2018-08-14T08:42:16.000Z</time>
      </trkpt>
      <trkpt lat="44.89116" lon="4.18598">
        <ele>1552</ele>
        <time>2018-08-14T08:42:36.000Z</time>
      </trkpt>
      <trkpt lat="44.89115" lon="4.18598">
        <ele>1552</ele>
        <time>2018-08-14T08:42:37.000Z</time>
      </trkpt>
      <trkpt lat="44.89112" lon="4.186">
        <ele>1552</ele>
        <time>2018-08-14T08:42:40.000Z</time>
      </trkpt>
      <trkpt lat="44.89104" lon="4.18607">
        <ele>1551</ele>
        <time>2018-08-14T08:42:45.000Z</time>
      </trkpt>
      <trkpt lat="44.891" lon="4.1861">
        <ele>1551</ele>
        <time>2018-08-14T08:42:46.000Z</time>
      </trkpt>
      <trkpt lat="44.89099" lon="4.18612">
        <ele>1550</ele>
        <time>2018-08-14T08:42:47.000Z</time>
      </trkpt>
      <trkpt lat="44.89098" lon="4.18613">
        <ele>1547</ele>
        <time>2018-08-14T08:43:00.000Z</time>
      </trkpt>
      <trkpt lat="44.89098" lon="4.18613">
        <ele>1547</ele>
        <time>2018-08-14T08:43:01.000Z</time>
      </trkpt>
      <trkpt lat="44.89086" lon="4.18629">
        <ele>1546</ele>
        <time>2018-08-14T08:43:08.000Z</time>
      </trkpt>
      <trkpt lat="44.89079" lon="4.18635">
        <ele>1542</ele>
        <time>2018-08-14T08:43:18.000Z</time>
      </trkpt>
      <trkpt lat="44.89075" lon="4.18638">
        <ele>1542</ele>
        <time>2018-08-14T08:43:19.000Z</time>
      </trkpt>
      <trkpt lat="44.89054" lon="4.18657">
        <ele>1538</ele>
        <time>2018-08-14T08:43:36.000Z</time>
      </trkpt>
      <trkpt lat="44.89044" lon="4.18668">
        <ele>1534</ele>
        <time>2018-08-14T08:44:01.000Z</time>
      </trkpt>
      <trkpt lat="44.89041" lon="4.18672">
        <ele>1534</ele>
        <time>2018-08-14T08:44:02.000Z</time>
      </trkpt>
      <trkpt lat="44.89034" lon="4.18684">
        <ele>1534</ele>
        <time>2018-08-14T08:44:07.000Z</time>
      </trkpt>
      <trkpt lat="44.89032" lon="4.18687">
        <ele>1529</ele>
        <time>2018-08-14T08:44:28.000Z</time>
      </trkpt>
      <trkpt lat="44.8903" lon="4.1869">
        <ele>1529</ele>
        <time>2018-08-14T08:44:29.000Z</time>
      </trkpt>
      <trkpt lat="44.89021" lon="4.18709">
        <ele>1526</ele>
        <time>2018-08-14T08:44:38.000Z</time>
      </trkpt>
      <trkpt lat="44.89017" lon="4.18717">
        <ele>1519</ele>
        <time>2018-08-14T08:44:59.000Z</time>
      </trkpt>
      <trkpt lat="44.89015" lon="4.18721">
        <ele>1519</ele>
        <time>2018-08-14T08:45:00.000Z</time>
      </trkpt>
      <trkpt lat="44.89012" lon="4.18736">
        <ele>1517</ele>
        <time>2018-08-14T08:45:14.000Z</time>
      </trkpt>
      <trkpt lat="44.8901" lon="4.18741">
        <ele>1516</ele>
        <time>2018-08-14T08:45:27.000Z</time>
      </trkpt>
      <trkpt lat="44.89009" lon="4.18744">
        <ele>1516</ele>
        <time>2018-08-14T08:45:28.000Z</time>
      </trkpt>
      <trkpt lat="44.88994" lon="4.1879">
        <ele>1515</ele>
        <time>2018-08-14T08:45:43.000Z</time>
      </trkpt>
      <trkpt lat="44.88992" lon="4.18839">
        <ele>1509</ele>
        <time>2018-08-14T08:46:19.000Z</time>
      </trkpt>
      <trkpt lat="44.88992" lon="4.18843">
        <ele>1509</ele>
        <time>2018-08-14T08:46:25.000Z</time>
      </trkpt>
      <trkpt lat="44.88997" lon="4.18848">
        <ele>1506</ele>
        <time>2018-08-14T08:46:51.000Z</time>
      </trkpt>
      <trkpt lat="44.88999" lon="4.1885">
        <ele>1506</ele>
        <time>2018-08-14T08:46:52.000Z</time>
      </trkpt>
      <trkpt lat="44.89013" lon="4.18894">
        <ele>1501</ele>
        <time>2018-08-14T08:47:15.000Z</time>
      </trkpt>
      <trkpt lat="44.88988" lon="4.18926">
        <ele>1499</ele>
        <time>2018-08-14T08:47:33.000Z</time>
      </trkpt>
      <trkpt lat="44.88982" lon="4.18938">
        <ele>1495</ele>
        <time>2018-08-14T08:48:18.000Z</time>
      </trkpt>
      <trkpt lat="44.8898" lon="4.18943">
        <ele>1495</ele>
        <time>2018-08-14T08:48:19.000Z</time>
      </trkpt>
      <trkpt lat="44.88974" lon="4.18952">
        <ele>1495</ele>
        <time>2018-08-14T08:48:25.000Z</time>
      </trkpt>
      <trkpt lat="44.88958" lon="4.18958">
        <ele>1502</ele>
        <time>2018-08-14T08:49:37.000Z</time>
      </trkpt>
      <trkpt lat="44.88952" lon="4.1896">
        <ele>1502</ele>
        <time>2018-08-14T08:49:38.000Z</time>
      </trkpt>
      <trkpt lat="44.8895" lon="4.18961">
        <ele>1502</ele>
        <time>2018-08-14T08:49:41.000Z</time>
      </trkpt>
      <trkpt lat="44.88949" lon="4.18969">
        <ele>1512</ele>
        <time>2018-08-14T08:50:59.000Z</time>
      </trkpt>
      <trkpt lat="44.88948" lon="4.18975">
        <ele>1512</ele>
        <time>2018-08-14T08:51:00.000Z</time>
      </trkpt>
      <trkpt lat="44.88942" lon="4.19023">
        <ele>1514</ele>
        <time>2018-08-14T08:51:13.000Z</time>
      </trkpt>
      <trkpt lat="44.88942" lon="4.19023">
        <ele>1514</ele>
        <time>2018-08-14T08:51:14.000Z</time>
      </trkpt>
      <trkpt lat="44.88942" lon="4.19034">
        <ele>1522</ele>
        <time>2018-08-14T08:51:59.000Z</time>
      </trkpt>
      <trkpt lat="44.88942" lon="4.19039">
        <ele>1522</ele>
        <time>2018-08-14T08:52:00.000Z</time>
      </trkpt>
      <trkpt lat="44.88942" lon="4.1905">
        <ele>1522</ele>
        <time>2018-08-14T08:52:03.000Z</time>
      </trkpt>
      <trkpt lat="44.88943" lon="4.19053">
        <ele>1551</ele>
        <time>2018-08-14T08:53:52.000Z</time>
      </trkpt>
      <trkpt lat="44.88945" lon="4.19055">
        <ele>1551</ele>
        <time>2018-08-14T08:53:53.000Z</time>
      </trkpt>
      <trkpt lat="44.8896" lon="4.19071">
        <ele>1552</ele>
        <time>2018-08-14T08:53:59.000Z</time>
      </trkpt>
      <trkpt lat="44.88955" lon="4.1908">
        <ele>1553</ele>
        <time>2018-08-14T08:58:16.000Z</time>
      </trkpt>
      <trkpt lat="44.88951" lon="4.19085">
        <ele>1553</ele>
        <time>2018-08-14T08:58:17.000Z</time>
      </trkpt>
      <trkpt lat="44.88949" lon="4.19088">
        <ele>1553</ele>
        <time>2018-08-14T08:58:20.000Z</time>
      </trkpt>
      <trkpt lat="44.88947" lon="4.19091">
        <ele>1553</ele>
        <time>2018-08-14T08:58:32.000Z</time>
      </trkpt>
      <trkpt lat="44.88945" lon="4.19093">
        <ele>1553</ele>
        <time>2018-08-14T08:58:33.000Z</time>
      </trkpt>
      <trkpt lat="44.88918" lon="4.19124">
        <ele>1552</ele>
        <time>2018-08-14T08:58:41.000Z</time>
      </trkpt>
      <trkpt lat="44.88917" lon="4.19128">
        <ele>1552</ele>
        <time>2018-08-14T08:58:43.000Z</time>
      </trkpt>
      <trkpt lat="44.88916" lon="4.19132">
        <ele>1552</ele>
        <time>2018-08-14T08:58:45.000Z</time>
      </trkpt>
      <trkpt lat="44.88916" lon="4.19137">
        <ele>1551</ele>
        <time>2018-08-14T08:58:47.000Z</time>
      </trkpt>
      <trkpt lat="44.88917" lon="4.19142">
        <ele>1551</ele>
        <time>2018-08-14T08:58:49.000Z</time>
      </trkpt>
      <trkpt lat="44.88917" lon="4.19146">
        <ele>1551</ele>
        <time>2018-08-14T08:58:51.000Z</time>
      </trkpt>
      <trkpt lat="44.88918" lon="4.19151">
        <ele>1551</ele>
        <time>2018-08-14T08:58:54.000Z</time>
      </trkpt>
      <trkpt lat="44.88916" lon="4.19155">
        <ele>1551</ele>
        <time>2018-08-14T08:58:57.000Z</time>
      </trkpt>
      <trkpt lat="44.88914" lon="4.19159">
        <ele>1551</ele>
        <time>2018-08-14T08:59:00.000Z</time>
      </trkpt>
      <trkpt lat="44.88911" lon="4.19163">
        <ele>1550</ele>
        <time>2018-08-14T08:59:03.000Z</time>
      </trkpt>
      <trkpt lat="44.88911" lon="4.19159">
        <ele>1549</ele>
        <time>2018-08-14T08:59:05.000Z</time>
      </trkpt>
      <trkpt lat="44.88907" lon="4.1916">
        <ele>1549</ele>
        <time>2018-08-14T08:59:09.000Z</time>
      </trkpt>
      <trkpt lat="44.88905" lon="4.19162">
        <ele>1549</ele>
        <time>2018-08-14T08:59:13.000Z</time>
      </trkpt>
      <trkpt lat="44.88895" lon="4.19163">
        <ele>1544</ele>
        <time>2018-08-14T08:59:56.000Z</time>
      </trkpt>
      <trkpt lat="44.88892" lon="4.19166">
        <ele>1544</ele>
        <time>2018-08-14T08:59:57.000Z</time>
      </trkpt>
      <trkpt lat="44.88877" lon="4.19179">
        <ele>1544</ele>
        <time>2018-08-14T09:00:06.000Z</time>
      </trkpt>
      <trkpt lat="44.88874" lon="4.19193">
        <ele>1542</ele>
        <time>2018-08-14T09:00:46.000Z</time>
      </trkpt>
      <trkpt lat="44.88873" lon="4.19199">
        <ele>1542</ele>
        <time>2018-08-14T09:00:47.000Z</time>
      </trkpt>
      <trkpt lat="44.88872" lon="4.19204">
        <ele>1542</ele>
        <time>2018-08-14T09:00:50.000Z</time>
      </trkpt>
      <trkpt lat="44.88868" lon="4.19216">
        <ele>1542</ele>
        <time>2018-08-14T09:00:55.000Z</time>
      </trkpt>
      <trkpt lat="44.88867" lon="4.1922">
        <ele>1542</ele>
        <time>2018-08-14T09:00:56.000Z</time>
      </trkpt>
      <trkpt lat="44.88866" lon="4.1923">
        <ele>1542</ele>
        <time>2018-08-14T09:01:00.000Z</time>
      </trkpt>
      <trkpt lat="44.88865" lon="4.19229">
        <ele>1542</ele>
        <time>2018-08-14T09:01:37.000Z</time>
      </trkpt>
      <trkpt lat="44.88864" lon="4.19229">
        <ele>1542</ele>
        <time>2018-08-14T09:01:38.000Z</time>
      </trkpt>
      <trkpt lat="44.88839" lon="4.19218">
        <ele>1541</ele>
        <time>2018-08-14T09:01:50.000Z</time>
      </trkpt>
      <trkpt lat="44.88829" lon="4.1923">
        <ele>1543</ele>
        <time>2018-08-14T09:02:02.000Z</time>
      </trkpt>
      <trkpt lat="44.88794" lon="4.19241">
        <ele>1546</ele>
        <time>2018-08-14T09:02:29.000Z</time>
      </trkpt>
      <trkpt lat="44.8876" lon="4.19255">
        <ele>1549</ele>
        <time>2018-08-14T09:02:58.000Z</time>
      </trkpt>
      <trkpt lat="44.8873" lon="4.19278">
        <ele>1546</ele>
        <time>2018-08-14T09:03:31.000Z</time>
      </trkpt>
      <trkpt lat="44.8872" lon="4.19288">
        <ele>1545</ele>
        <time>2018-08-14T09:03:46.000Z</time>
      </trkpt>
      <trkpt lat="44.88715" lon="4.19287">
        <ele>1545</ele>
        <time>2018-08-14T09:04:04.000Z</time>
      </trkpt>
      <trkpt lat="44.88713" lon="4.19287">
        <ele>1545</ele>
        <time>2018-08-14T09:04:05.000Z</time>
      </trkpt>
      <trkpt lat="44.88677" lon="4.19288">
        <ele>1547</ele>
        <time>2018-08-14T09:04:27.000Z</time>
      </trkpt>
      <trkpt lat="44.88675" lon="4.19291">
        <ele>1547</ele>
        <time>2018-08-14T09:04:32.000Z</time>
      </trkpt>
      <trkpt lat="44.88671" lon="4.19289">
        <ele>1546</ele>
        <time>2018-08-14T09:06:13.000Z</time>
      </trkpt>
      <trkpt lat="44.88669" lon="4.19287">
        <ele>1546</ele>
        <time>2018-08-14T09:06:14.000Z</time>
      </trkpt>
      <trkpt lat="44.88661" lon="4.19282">
        <ele>1546</ele>
        <time>2018-08-14T09:06:19.000Z</time>
      </trkpt>
      <trkpt lat="44.88652" lon="4.19275">
        <ele>1546</ele>
        <time>2018-08-14T09:06:24.000Z</time>
      </trkpt>
      <trkpt lat="44.88649" lon="4.19273">
        <ele>1546</ele>
        <time>2018-08-14T09:06:25.000Z</time>
      </trkpt>
      <trkpt lat="44.88647" lon="4.19272">
        <ele>1546</ele>
        <time>2018-08-14T09:06:27.000Z</time>
      </trkpt>
      <trkpt lat="44.88647" lon="4.19273">
        <ele>1543</ele>
        <time>2018-08-14T09:06:52.000Z</time>
      </trkpt>
      <trkpt lat="44.88646" lon="4.19273">
        <ele>1543</ele>
        <time>2018-08-14T09:06:53.000Z</time>
      </trkpt>
      <trkpt lat="44.88615" lon="4.19277">
        <ele>1542</ele>
        <time>2018-08-14T09:07:01.000Z</time>
      </trkpt>
      <trkpt lat="44.88613" lon="4.19278">
        <ele>1539</ele>
        <time>2018-08-14T09:07:23.000Z</time>
      </trkpt>
      <trkpt lat="44.88611" lon="4.19279">
        <ele>1539</ele>
        <time>2018-08-14T09:07:24.000Z</time>
      </trkpt>
      <trkpt lat="44.88598" lon="4.19282">
        <ele>1538</ele>
        <time>2018-08-14T09:07:29.000Z</time>
      </trkpt>
      <trkpt lat="44.88579" lon="4.19262">
        <ele>1535</ele>
        <time>2018-08-14T09:07:52.000Z</time>
      </trkpt>
      <trkpt lat="44.88576" lon="4.19259">
        <ele>1532</ele>
        <time>2018-08-14T09:08:15.000Z</time>
      </trkpt>
      <trkpt lat="44.88574" lon="4.19258">
        <ele>1532</ele>
        <time>2018-08-14T09:08:16.000Z</time>
      </trkpt>
      <trkpt lat="44.88541" lon="4.19244">
        <ele>1529</ele>
        <time>2018-08-14T09:08:36.000Z</time>
      </trkpt>
      <trkpt lat="44.88534" lon="4.19247">
        <ele>1527</ele>
        <time>2018-08-14T09:08:51.000Z</time>
      </trkpt>
      <trkpt lat="44.88527" lon="4.19243">
        <ele>1526</ele>
        <time>2018-08-14T09:09:05.000Z</time>
      </trkpt>
      <trkpt lat="44.88524" lon="4.19241">
        <ele>1526</ele>
        <time>2018-08-14T09:09:06.000Z</time>
      </trkpt>
      <trkpt lat="44.88495" lon="4.19227">
        <ele>1523</ele>
        <time>2018-08-14T09:09:28.000Z</time>
      </trkpt>
      <trkpt lat="44.88498" lon="4.19228">
        <ele>1529</ele>
        <time>2018-08-14T09:11:50.000Z</time>
      </trkpt>
      <trkpt lat="44.885" lon="4.1923">
        <ele>1529</ele>
        <time>2018-08-14T09:11:51.000Z</time>
      </trkpt>
      <trkpt lat="44.88533" lon="4.19242">
        <ele>1528</ele>
        <time>2018-08-14T09:12:07.000Z</time>
      </trkpt>
      <trkpt lat="44.8857" lon="4.19244">
        <ele>1525</ele>
        <time>2018-08-14T09:12:38.000Z</time>
      </trkpt>
      <trkpt lat="44.88581" lon="4.19252">
        <ele>1525</ele>
        <time>2018-08-14T09:12:56.000Z</time>
      </trkpt>
      <trkpt lat="44.88581" lon="4.19255">
        <ele>1522</ele>
        <time>2018-08-14T09:13:20.000Z</time>
      </trkpt>
      <trkpt lat="44.8858" lon="4.19257">
        <ele>1522</ele>
        <time>2018-08-14T09:13:21.000Z</time>
      </trkpt>
      <trkpt lat="44.88581" lon="4.19307">
        <ele>1521</ele>
        <time>2018-08-14T09:13:43.000Z</time>
      </trkpt>
      <trkpt lat="44.88589" lon="4.19317">
        <ele>1519</ele>
        <time>2018-08-14T09:13:58.000Z</time>
      </trkpt>
      <trkpt lat="44.88591" lon="4.19321">
        <ele>1514</ele>
        <time>2018-08-14T09:14:13.000Z</time>
      </trkpt>
      <trkpt lat="44.88592" lon="4.19323">
        <ele>1514</ele>
        <time>2018-08-14T09:14:14.000Z</time>
      </trkpt>
      <trkpt lat="44.88612" lon="4.19366">
        <ele>1510</ele>
        <time>2018-08-14T09:14:30.000Z</time>
      </trkpt>
      <trkpt lat="44.88634" lon="4.19405">
        <ele>1507</ele>
        <time>2018-08-14T09:14:57.000Z</time>
      </trkpt>
      <trkpt lat="44.8865" lon="4.1945">
        <ele>1505</ele>
        <time>2018-08-14T09:15:31.000Z</time>
      </trkpt>
      <trkpt lat="44.8865" lon="4.19451">
        <ele>1505</ele>
        <time>2018-08-14T09:15:32.000Z</time>
      </trkpt>
      <trkpt lat="44.88649" lon="4.19458">
        <ele>1502</ele>
        <time>2018-08-14T09:15:45.000Z</time>
      </trkpt>
      <trkpt lat="44.88648" lon="4.19462">
        <ele>1502</ele>
        <time>2018-08-14T09:15:46.000Z</time>
      </trkpt>
      <trkpt lat="44.8864" lon="4.19497">
        <ele>1499</ele>
        <time>2018-08-14T09:16:04.000Z</time>
      </trkpt>
      <trkpt lat="44.88638" lon="4.195">
        <ele>1503</ele>
        <time>2018-08-14T09:16:34.000Z</time>
      </trkpt>
      <trkpt lat="44.88636" lon="4.19502">
        <ele>1503</ele>
        <time>2018-08-14T09:16:35.000Z</time>
      </trkpt>
      <trkpt lat="44.88622" lon="4.19515">
        <ele>1502</ele>
        <time>2018-08-14T09:16:43.000Z</time>
      </trkpt>
      <trkpt lat="44.88609" lon="4.19517">
        <ele>1492</ele>
        <time>2018-08-14T09:17:34.000Z</time>
      </trkpt>
      <trkpt lat="44.88603" lon="4.19519">
        <ele>1492</ele>
        <time>2018-08-14T09:17:35.000Z</time>
      </trkpt>
      <trkpt lat="44.88583" lon="4.19521">
        <ele>1488</ele>
        <time>2018-08-14T09:17:45.000Z</time>
      </trkpt>
      <trkpt lat="44.88573" lon="4.19511">
        <ele>1486</ele>
        <time>2018-08-14T09:17:57.000Z</time>
      </trkpt>
      <trkpt lat="44.88571" lon="4.19516">
        <ele>1472</ele>
        <time>2018-08-14T09:18:52.000Z</time>
      </trkpt>
      <trkpt lat="44.8857" lon="4.19519">
        <ele>1472</ele>
        <time>2018-08-14T09:18:53.000Z</time>
      </trkpt>
      <trkpt lat="44.8856" lon="4.19538">
        <ele>1470</ele>
        <time>2018-08-14T09:18:58.000Z</time>
      </trkpt>
      <trkpt lat="44.88559" lon="4.19542">
        <ele>1458</ele>
        <time>2018-08-14T09:19:43.000Z</time>
      </trkpt>
      <trkpt lat="44.88558" lon="4.19545">
        <ele>1458</ele>
        <time>2018-08-14T09:19:44.000Z</time>
      </trkpt>
      <trkpt lat="44.88552" lon="4.19564">
        <ele>1456</ele>
        <time>2018-08-14T09:19:48.000Z</time>
      </trkpt>
      <trkpt lat="44.88546" lon="4.19591">
        <ele>1455</ele>
        <time>2018-08-14T09:19:56.000Z</time>
      </trkpt>
      <trkpt lat="44.88544" lon="4.19602">
        <ele>1448</ele>
        <time>2018-08-14T09:20:24.000Z</time>
      </trkpt>
      <trkpt lat="44.88543" lon="4.19606">
        <ele>1448</ele>
        <time>2018-08-14T09:20:25.000Z</time>
      </trkpt>
      <trkpt lat="44.8854" lon="4.19631">
        <ele>1448</ele>
        <time>2018-08-14T09:20:38.000Z</time>
      </trkpt>
      <trkpt lat="44.8854" lon="4.1964">
        <ele>1447</ele>
        <time>2018-08-14T09:21:00.000Z</time>
      </trkpt>
      <trkpt lat="44.88539" lon="4.19644">
        <ele>1447</ele>
        <time>2018-08-14T09:21:01.000Z</time>
      </trkpt>
      <trkpt lat="44.8854" lon="4.19674">
        <ele>1446</ele>
        <time>2018-08-14T09:21:12.000Z</time>
      </trkpt>
      <trkpt lat="44.8854" lon="4.1968">
        <ele>1441</ele>
        <time>2018-08-14T09:21:58.000Z</time>
      </trkpt>
      <trkpt lat="44.8854" lon="4.19684">
        <ele>1441</ele>
        <time>2018-08-14T09:21:59.000Z</time>
      </trkpt>
      <trkpt lat="44.88547" lon="4.19733">
        <ele>1436</ele>
        <time>2018-08-14T09:22:25.000Z</time>
      </trkpt>
      <trkpt lat="44.88552" lon="4.19774">
        <ele>1425</ele>
        <time>2018-08-14T09:23:03.000Z</time>
      </trkpt>
      <trkpt lat="44.88554" lon="4.19784">
        <ele>1419</ele>
        <time>2018-08-14T09:23:27.000Z</time>
      </trkpt>
      <trkpt lat="44.88556" lon="4.19789">
        <ele>1419</ele>
        <time>2018-08-14T09:23:28.000Z</time>
      </trkpt>
      <trkpt lat="44.88567" lon="4.19803">
        <ele>1415</ele>
        <time>2018-08-14T09:23:47.000Z</time>
      </trkpt>
      <trkpt lat="44.88571" lon="4.19805">
        <ele>1406</ele>
        <time>2018-08-14T09:24:56.000Z</time>
      </trkpt>
      <trkpt lat="44.88574" lon="4.19806">
        <ele>1406</ele>
        <time>2018-08-14T09:24:57.000Z</time>
      </trkpt>
      <trkpt lat="44.88594" lon="4.19816">
        <ele>1405</ele>
        <time>2018-08-14T09:25:07.000Z</time>
      </trkpt>
      <trkpt lat="44.88595" lon="4.19817">
        <ele>1402</ele>
        <time>2018-08-14T09:25:25.000Z</time>
      </trkpt>
      <trkpt lat="44.88595" lon="4.19818">
        <ele>1402</ele>
        <time>2018-08-14T09:25:26.000Z</time>
      </trkpt>
      <trkpt lat="44.88604" lon="4.19861">
        <ele>1400</ele>
        <time>2018-08-14T09:25:45.000Z</time>
      </trkpt>
      <trkpt lat="44.88607" lon="4.19873">
        <ele>1398</ele>
        <time>2018-08-14T09:25:54.000Z</time>
      </trkpt>
      <trkpt lat="44.88603" lon="4.19886">
        <ele>1389</ele>
        <time>2018-08-14T09:26:39.000Z</time>
      </trkpt>
      <trkpt lat="44.88602" lon="4.19893">
        <ele>1389</ele>
        <time>2018-08-14T09:26:40.000Z</time>
      </trkpt>
      <trkpt lat="44.88599" lon="4.19911">
        <ele>1388</ele>
        <time>2018-08-14T09:26:45.000Z</time>
      </trkpt>
      <trkpt lat="44.88599" lon="4.19916">
        <ele>1375</ele>
        <time>2018-08-14T09:27:39.000Z</time>
      </trkpt>
      <trkpt lat="44.886" lon="4.1992">
        <ele>1375</ele>
        <time>2018-08-14T09:27:40.000Z</time>
      </trkpt>
      <trkpt lat="44.88602" lon="4.19943">
        <ele>1374</ele>
        <time>2018-08-14T09:27:49.000Z</time>
      </trkpt>
      <trkpt lat="44.88596" lon="4.19946">
        <ele>1371</ele>
        <time>2018-08-14T09:28:14.000Z</time>
      </trkpt>
      <trkpt lat="44.88593" lon="4.19948">
        <ele>1371</ele>
        <time>2018-08-14T09:28:15.000Z</time>
      </trkpt>
      <trkpt lat="44.88583" lon="4.19966">
        <ele>1370</ele>
        <time>2018-08-14T09:28:23.000Z</time>
      </trkpt>
      <trkpt lat="44.88577" lon="4.19966">
        <ele>1363</ele>
        <time>2018-08-14T09:29:44.000Z</time>
      </trkpt>
      <trkpt lat="44.88573" lon="4.19967">
        <ele>1363</ele>
        <time>2018-08-14T09:29:45.000Z</time>
      </trkpt>
      <trkpt lat="44.8857" lon="4.19968">
        <ele>1362</ele>
        <time>2018-08-14T09:29:47.000Z</time>
      </trkpt>
      <trkpt lat="44.88565" lon="4.19968">
        <ele>1362</ele>
        <time>2018-08-14T09:29:50.000Z</time>
      </trkpt>
      <trkpt lat="44.88561" lon="4.19968">
        <ele>1362</ele>
        <time>2018-08-14T09:29:51.000Z</time>
      </trkpt>
      <trkpt lat="44.88545" lon="4.19972">
        <ele>1361</ele>
        <time>2018-08-14T09:29:57.000Z</time>
      </trkpt>
      <trkpt lat="44.88544" lon="4.19971">
        <ele>1360</ele>
        <time>2018-08-14T09:30:14.000Z</time>
      </trkpt>
      <trkpt lat="44.88544" lon="4.1997">
        <ele>1360</ele>
        <time>2018-08-14T09:30:15.000Z</time>
      </trkpt>
      <trkpt lat="44.88535" lon="4.19963">
        <ele>1359</ele>
        <time>2018-08-14T09:30:21.000Z</time>
      </trkpt>
      <trkpt lat="44.88522" lon="4.19953">
        <ele>1359</ele>
        <time>2018-08-14T09:30:26.000Z</time>
      </trkpt>
      <trkpt lat="44.88519" lon="4.19951">
        <ele>1359</ele>
        <time>2018-08-14T09:30:27.000Z</time>
      </trkpt>
      <trkpt lat="44.88491" lon="4.19922">
        <ele>1356</ele>
        <time>2018-08-14T09:30:58.000Z</time>
      </trkpt>
      <trkpt lat="44.8849" lon="4.19922">
        <ele>1356</ele>
        <time>2018-08-14T09:30:59.000Z</time>
      </trkpt>
      <trkpt lat="44.88486" lon="4.19919">
        <ele>1349</ele>
        <time>2018-08-14T09:32:02.000Z</time>
      </trkpt>
      <trkpt lat="44.88483" lon="4.19917">
        <ele>1349</ele>
        <time>2018-08-14T09:32:03.000Z</time>
      </trkpt>
      <trkpt lat="44.88458" lon="4.19893">
        <ele>1348</ele>
        <time>2018-08-14T09:32:17.000Z</time>
      </trkpt>
      <trkpt lat="44.88434" lon="4.1988">
        <ele>1343</ele>
        <time>2018-08-14T09:32:44.000Z</time>
      </trkpt>
      <trkpt lat="44.88427" lon="4.19876">
        <ele>1341</ele>
        <time>2018-08-14T09:32:57.000Z</time>
      </trkpt>
      <trkpt lat="44.88424" lon="4.19874">
        <ele>1341</ele>
        <time>2018-08-14T09:32:58.000Z</time>
      </trkpt>
      <trkpt lat="44.88392" lon="4.19855">
        <ele>1340</ele>
        <time>2018-08-14T09:33:14.000Z</time>
      </trkpt>
      <trkpt lat="44.88377" lon="4.19854">
        <ele>1337</ele>
        <time>2018-08-14T09:33:30.000Z</time>
      </trkpt>
      <trkpt lat="44.88358" lon="4.19837">
        <ele>1332</ele>
        <time>2018-08-14T09:33:53.000Z</time>
      </trkpt>
      <trkpt lat="44.88358" lon="4.19837">
        <ele>1332</ele>
        <time>2018-08-14T09:33:53.000Z</time>
      </trkpt>
      <trkpt lat="44.88356" lon="4.19839">
        <ele>1331</ele>
        <time>2018-08-14T09:33:57.000Z</time>
      </trkpt>
      <trkpt lat="44.88353" lon="4.19841">
        <ele>1331</ele>
        <time>2018-08-14T09:34:01.000Z</time>
      </trkpt>
      <trkpt lat="44.88351" lon="4.19846">
        <ele>1331</ele>
        <time>2018-08-14T09:34:06.000Z</time>
      </trkpt>
      <trkpt lat="44.88352" lon="4.19851">
        <ele>1331</ele>
        <time>2018-08-14T09:34:09.000Z</time>
      </trkpt>
      <trkpt lat="44.88354" lon="4.19855">
        <ele>1330</ele>
        <time>2018-08-14T09:34:12.000Z</time>
      </trkpt>
      <trkpt lat="44.88357" lon="4.19858">
        <ele>1330</ele>
        <time>2018-08-14T09:34:15.000Z</time>
      </trkpt>
      <trkpt lat="44.8836" lon="4.19861">
        <ele>1329</ele>
        <time>2018-08-14T09:34:18.000Z</time>
      </trkpt>
      <trkpt lat="44.88363" lon="4.19861">
        <ele>1328</ele>
        <time>2018-08-14T09:34:21.000Z</time>
      </trkpt>
      <trkpt lat="44.88366" lon="4.19864">
        <ele>1328</ele>
        <time>2018-08-14T09:34:25.000Z</time>
      </trkpt>
      <trkpt lat="44.88368" lon="4.19867">
        <ele>1327</ele>
        <time>2018-08-14T09:34:28.000Z</time>
      </trkpt>
      <trkpt lat="44.88371" lon="4.19866">
        <ele>1327</ele>
        <time>2018-08-14T09:34:32.000Z</time>
      </trkpt>
      <trkpt lat="44.88375" lon="4.19866">
        <ele>1327</ele>
        <time>2018-08-14T09:34:35.000Z</time>
      </trkpt>
      <trkpt lat="44.88379" lon="4.19867">
        <ele>1327</ele>
        <time>2018-08-14T09:34:38.000Z</time>
      </trkpt>
      <trkpt lat="44.88382" lon="4.19868">
        <ele>1327</ele>
        <time>2018-08-14T09:34:40.000Z</time>
      </trkpt>
      <trkpt lat="44.88418" lon="4.19891">
        <ele>1324</ele>
        <time>2018-08-14T09:35:10.000Z</time>
      </trkpt>
      <trkpt lat="44.88445" lon="4.19922">
        <ele>1320</ele>
        <time>2018-08-14T09:35:36.000Z</time>
      </trkpt>
      <trkpt lat="44.88465" lon="4.19964">
        <ele>1313</ele>
        <time>2018-08-14T09:36:07.000Z</time>
      </trkpt>
      <trkpt lat="44.88465" lon="4.19987">
        <ele>1307</ele>
        <time>2018-08-14T09:36:33.000Z</time>
      </trkpt>
      <trkpt lat="44.88465" lon="4.20001">
        <ele>1305</ele>
        <time>2018-08-14T09:37:22.000Z</time>
      </trkpt>
      <trkpt lat="44.88465" lon="4.20006">
        <ele>1305</ele>
        <time>2018-08-14T09:37:23.000Z</time>
      </trkpt>
      <trkpt lat="44.88461" lon="4.20036">
        <ele>1304</ele>
        <time>2018-08-14T09:37:41.000Z</time>
      </trkpt>
      <trkpt lat="44.88461" lon="4.20034">
        <ele>1305</ele>
        <time>2018-08-14T09:38:55.000Z</time>
      </trkpt>
      <trkpt lat="44.88461" lon="4.20031">
        <ele>1305</ele>
        <time>2018-08-14T09:38:56.000Z</time>
      </trkpt>
      <trkpt lat="44.88459" lon="4.20017">
        <ele>1305</ele>
        <time>2018-08-14T09:39:00.000Z</time>
      </trkpt>
      <trkpt lat="44.88453" lon="4.20009">
        <ele>1306</ele>
        <time>2018-08-14T09:39:13.000Z</time>
      </trkpt>
      <trkpt lat="44.8845" lon="4.20006">
        <ele>1306</ele>
        <time>2018-08-14T09:39:14.000Z</time>
      </trkpt>
      <trkpt lat="44.88442" lon="4.19997">
        <ele>1305</ele>
        <time>2018-08-14T09:39:18.000Z</time>
      </trkpt>
      <trkpt lat="44.88443" lon="4.19995">
        <ele>1293</ele>
        <time>2018-08-14T09:44:02.000Z</time>
      </trkpt>
      <trkpt lat="44.88443" lon="4.19993">
        <ele>1293</ele>
        <time>2018-08-14T09:44:03.000Z</time>
      </trkpt>
      <trkpt lat="44.8845" lon="4.19977">
        <ele>1293</ele>
        <time>2018-08-14T09:44:11.000Z</time>
      </trkpt>
      <trkpt lat="44.88448" lon="4.19979">
        <ele>1303</ele>
        <time>2018-08-14T09:45:54.000Z</time>
      </trkpt>
      <trkpt lat="44.88447" lon="4.19981">
        <ele>1303</ele>
        <time>2018-08-14T09:45:55.000Z</time>
      </trkpt>
      <trkpt lat="44.88441" lon="4.19988">
        <ele>1303</ele>
        <time>2018-08-14T09:45:59.000Z</time>
      </trkpt>
      <trkpt lat="44.88445" lon="4.19994">
        <ele>1296</ele>
        <time>2018-08-14T09:47:03.000Z</time>
      </trkpt>
      <trkpt lat="44.88447" lon="4.19997">
        <ele>1296</ele>
        <time>2018-08-14T09:47:04.000Z</time>
      </trkpt>
      <trkpt lat="44.88454" lon="4.20012">
        <ele>1296</ele>
        <time>2018-08-14T09:47:09.000Z</time>
      </trkpt>
      <trkpt lat="44.88445" lon="4.20046">
        <ele>1298</ele>
        <time>2018-08-14T09:47:29.000Z</time>
      </trkpt>
      <trkpt lat="44.88438" lon="4.20082">
        <ele>1298</ele>
        <time>2018-08-14T09:47:48.000Z</time>
      </trkpt>
      <trkpt lat="44.88428" lon="4.20089">
        <ele>1297</ele>
        <time>2018-08-14T09:47:58.000Z</time>
      </trkpt>
      <trkpt lat="44.88398" lon="4.20117">
        <ele>1295</ele>
        <time>2018-08-14T09:48:26.000Z</time>
      </trkpt>
      <trkpt lat="44.88381" lon="4.20159">
        <ele>1294</ele>
        <time>2018-08-14T09:48:52.000Z</time>
      </trkpt>
      <trkpt lat="44.88367" lon="4.20206">
        <ele>1295</ele>
        <time>2018-08-14T09:49:31.000Z</time>
      </trkpt>
      <trkpt lat="44.88358" lon="4.20253">
        <ele>1292</ele>
        <time>2018-08-14T09:49:57.000Z</time>
      </trkpt>
      <trkpt lat="44.88367" lon="4.20301">
        <ele>1290</ele>
        <time>2018-08-14T09:50:28.000Z</time>
      </trkpt>
      <trkpt lat="44.88376" lon="4.20347">
        <ele>1286</ele>
        <time>2018-08-14T09:50:51.000Z</time>
      </trkpt>
      <trkpt lat="44.88394" lon="4.20391">
        <ele>1284</ele>
        <time>2018-08-14T09:51:16.000Z</time>
      </trkpt>
      <trkpt lat="44.88403" lon="4.20439">
        <ele>1282</ele>
        <time>2018-08-14T09:51:46.000Z</time>
      </trkpt>
      <trkpt lat="44.88411" lon="4.20486">
        <ele>1285</ele>
        <time>2018-08-14T09:52:10.000Z</time>
      </trkpt>
      <trkpt lat="44.88402" lon="4.20536">
        <ele>1282</ele>
        <time>2018-08-14T09:52:33.000Z</time>
      </trkpt>
      <trkpt lat="44.88404" lon="4.2057">
        <ele>1279</ele>
        <time>2018-08-14T09:53:04.000Z</time>
      </trkpt>
      <trkpt lat="44.88402" lon="4.20568">
        <ele>1278</ele>
        <time>2018-08-14T09:53:21.000Z</time>
      </trkpt>
      <trkpt lat="44.88401" lon="4.20566">
        <ele>1278</ele>
        <time>2018-08-14T09:53:22.000Z</time>
      </trkpt>
      <trkpt lat="44.88385" lon="4.20523">
        <ele>1277</ele>
        <time>2018-08-14T09:53:36.000Z</time>
      </trkpt>
      <trkpt lat="44.88387" lon="4.20482">
        <ele>1273</ele>
        <time>2018-08-14T09:54:08.000Z</time>
      </trkpt>
      <trkpt lat="44.88379" lon="4.20473">
        <ele>1272</ele>
        <time>2018-08-14T09:54:13.000Z</time>
      </trkpt>
      <trkpt lat="44.88378" lon="4.2046">
        <ele>1269</ele>
        <time>2018-08-14T09:54:25.000Z</time>
      </trkpt>
      <trkpt lat="44.88375" lon="4.20457">
        <ele>1265</ele>
        <time>2018-08-14T09:54:42.000Z</time>
      </trkpt>
      <trkpt lat="44.88373" lon="4.20455">
        <ele>1265</ele>
        <time>2018-08-14T09:54:43.000Z</time>
      </trkpt>
      <trkpt lat="44.88341" lon="4.20439">
        <ele>1260</ele>
        <time>2018-08-14T09:55:03.000Z</time>
      </trkpt>
      <trkpt lat="44.88311" lon="4.20415">
        <ele>1254</ele>
        <time>2018-08-14T09:55:30.000Z</time>
      </trkpt>
      <trkpt lat="44.88298" lon="4.20413">
        <ele>1251</ele>
        <time>2018-08-14T09:55:47.000Z</time>
      </trkpt>
      <trkpt lat="44.88291" lon="4.20391">
        <ele>1245</ele>
        <time>2018-08-14T09:56:07.000Z</time>
      </trkpt>
      <trkpt lat="44.88288" lon="4.20389">
        <ele>1242</ele>
        <time>2018-08-14T09:56:22.000Z</time>
      </trkpt>
      <trkpt lat="44.88285" lon="4.20387">
        <ele>1242</ele>
        <time>2018-08-14T09:56:23.000Z</time>
      </trkpt>
      <trkpt lat="44.88259" lon="4.20356">
        <ele>1240</ele>
        <time>2018-08-14T09:56:41.000Z</time>
      </trkpt>
      <trkpt lat="44.88247" lon="4.20309">
        <ele>1238</ele>
        <time>2018-08-14T09:57:09.000Z</time>
      </trkpt>
      <trkpt lat="44.88243" lon="4.20303">
        <ele>1237</ele>
        <time>2018-08-14T09:57:17.000Z</time>
      </trkpt>
      <trkpt lat="44.88243" lon="4.20301">
        <ele>1235</ele>
        <time>2018-08-14T09:57:32.000Z</time>
      </trkpt>
      <trkpt lat="44.88243" lon="4.20299">
        <ele>1235</ele>
        <time>2018-08-14T09:57:33.000Z</time>
      </trkpt>
      <trkpt lat="44.88241" lon="4.20264">
        <ele>1234</ele>
        <time>2018-08-14T09:57:44.000Z</time>
      </trkpt>
      <trkpt lat="44.88237" lon="4.20256">
        <ele>1233</ele>
        <time>2018-08-14T09:58:11.000Z</time>
      </trkpt>
      <trkpt lat="44.88235" lon="4.20253">
        <ele>1233</ele>
        <time>2018-08-14T09:58:12.000Z</time>
      </trkpt>
      <trkpt lat="44.88219" lon="4.20216">
        <ele>1232</ele>
        <time>2018-08-14T09:58:28.000Z</time>
      </trkpt>
      <trkpt lat="44.88223" lon="4.20224">
        <ele>1234</ele>
        <time>2018-08-14T09:59:36.000Z</time>
      </trkpt>
      <trkpt lat="44.88224" lon="4.20229">
        <ele>1234</ele>
        <time>2018-08-14T09:59:37.000Z</time>
      </trkpt>
      <trkpt lat="44.88227" lon="4.20235">
        <ele>1233</ele>
        <time>2018-08-14T09:59:40.000Z</time>
      </trkpt>
      <trkpt lat="44.88229" lon="4.20232">
        <ele>1231</ele>
        <time>2018-08-14T10:01:37.000Z</time>
      </trkpt>
      <trkpt lat="44.88231" lon="4.20229">
        <ele>1231</ele>
        <time>2018-08-14T10:01:38.000Z</time>
      </trkpt>
      <trkpt lat="44.88241" lon="4.20184">
        <ele>1230</ele>
        <time>2018-08-14T10:01:55.000Z</time>
      </trkpt>
      <trkpt lat="44.88234" lon="4.20136">
        <ele>1229</ele>
        <time>2018-08-14T10:02:25.000Z</time>
      </trkpt>
      <trkpt lat="44.88203" lon="4.20117">
        <ele>1228</ele>
        <time>2018-08-14T10:02:37.000Z</time>
      </trkpt>
      <trkpt lat="44.88186" lon="4.20112">
        <ele>1227</ele>
        <time>2018-08-14T10:02:48.000Z</time>
      </trkpt>
      <trkpt lat="44.88177" lon="4.2012">
        <ele>1227</ele>
        <time>2018-08-14T10:02:59.000Z</time>
      </trkpt>
      <trkpt lat="44.8817" lon="4.20124">
        <ele>1224</ele>
        <time>2018-08-14T10:03:25.000Z</time>
      </trkpt>
      <trkpt lat="44.88166" lon="4.20126">
        <ele>1224</ele>
        <time>2018-08-14T10:03:26.000Z</time>
      </trkpt>
      <trkpt lat="44.88148" lon="4.20141">
        <ele>1222</ele>
        <time>2018-08-14T10:03:35.000Z</time>
      </trkpt>
      <trkpt lat="44.88142" lon="4.20148">
        <ele>1217</ele>
        <time>2018-08-14T10:03:49.000Z</time>
      </trkpt>
      <trkpt lat="44.8814" lon="4.20152">
        <ele>1217</ele>
        <time>2018-08-14T10:03:50.000Z</time>
      </trkpt>
      <trkpt lat="44.88109" lon="4.20166">
        <ele>1213</ele>
        <time>2018-08-14T10:04:04.000Z</time>
      </trkpt>
      <trkpt lat="44.88105" lon="4.20164">
        <ele>1209</ele>
        <time>2018-08-14T10:04:22.000Z</time>
      </trkpt>
      <trkpt lat="44.88103" lon="4.20163">
        <ele>1209</ele>
        <time>2018-08-14T10:04:23.000Z</time>
      </trkpt>
      <trkpt lat="44.8809" lon="4.20161">
        <ele>1207</ele>
        <time>2018-08-14T10:04:27.000Z</time>
      </trkpt>
      <trkpt lat="44.8807" lon="4.20176">
        <ele>1200</ele>
        <time>2018-08-14T10:04:46.000Z</time>
      </trkpt>
      <trkpt lat="44.88046" lon="4.20199">
        <ele>1193</ele>
        <time>2018-08-14T10:05:11.000Z</time>
      </trkpt>
      <trkpt lat="44.88041" lon="4.20199">
        <ele>1188</ele>
        <time>2018-08-14T10:05:27.000Z</time>
      </trkpt>
      <trkpt lat="44.88037" lon="4.20199">
        <ele>1188</ele>
        <time>2018-08-14T10:05:28.000Z</time>
      </trkpt>
      <trkpt lat="44.88018" lon="4.202">
        <ele>1184</ele>
        <time>2018-08-14T10:05:38.000Z</time>
      </trkpt>
      <trkpt lat="44.88015" lon="4.20206">
        <ele>1177</ele>
        <time>2018-08-14T10:06:38.000Z</time>
      </trkpt>
      <trkpt lat="44.88013" lon="4.20211">
        <ele>1177</ele>
        <time>2018-08-14T10:06:39.000Z</time>
      </trkpt>
      <trkpt lat="44.88" lon="4.20256">
        <ele>1176</ele>
        <time>2018-08-14T10:06:48.000Z</time>
      </trkpt>
      <trkpt lat="44.88" lon="4.20266">
        <ele>1174</ele>
        <time>2018-08-14T10:06:56.000Z</time>
      </trkpt>
      <trkpt lat="44.87994" lon="4.20271">
        <ele>1161</ele>
        <time>2018-08-14T10:09:58.000Z</time>
      </trkpt>
      <trkpt lat="44.87991" lon="4.20273">
        <ele>1161</ele>
        <time>2018-08-14T10:09:59.000Z</time>
      </trkpt>
      <trkpt lat="44.87988" lon="4.20288">
        <ele>1160</ele>
        <time>2018-08-14T10:10:06.000Z</time>
      </trkpt>
      <trkpt lat="44.87988" lon="4.20297">
        <ele>1156</ele>
        <time>2018-08-14T10:10:25.000Z</time>
      </trkpt>
      <trkpt lat="44.87988" lon="4.20302">
        <ele>1156</ele>
        <time>2018-08-14T10:10:26.000Z</time>
      </trkpt>
      <trkpt lat="44.87986" lon="4.20323">
        <ele>1155</ele>
        <time>2018-08-14T10:10:31.000Z</time>
      </trkpt>
      <trkpt lat="44.8797" lon="4.20341">
        <ele>1152</ele>
        <time>2018-08-14T10:10:52.000Z</time>
      </trkpt>
      <trkpt lat="44.87968" lon="4.20349">
        <ele>1151</ele>
        <time>2018-08-14T10:11:14.000Z</time>
      </trkpt>
      <trkpt lat="44.87968" lon="4.20353">
        <ele>1151</ele>
        <time>2018-08-14T10:11:15.000Z</time>
      </trkpt>
      <trkpt lat="44.87965" lon="4.20373">
        <ele>1151</ele>
        <time>2018-08-14T10:11:25.000Z</time>
      </trkpt>
      <trkpt lat="44.87972" lon="4.20381">
        <ele>1145</ele>
        <time>2018-08-14T10:12:24.000Z</time>
      </trkpt>
      <trkpt lat="44.87974" lon="4.20384">
        <ele>1145</ele>
        <time>2018-08-14T10:12:25.000Z</time>
      </trkpt>
      <trkpt lat="44.87964" lon="4.20405">
        <ele>1145</ele>
        <time>2018-08-14T10:12:46.000Z</time>
      </trkpt>
      <trkpt lat="44.87959" lon="4.20415">
        <ele>1140</ele>
        <time>2018-08-14T10:14:24.000Z</time>
      </trkpt>
      <trkpt lat="44.87957" lon="4.20419">
        <ele>1140</ele>
        <time>2018-08-14T10:14:25.000Z</time>
      </trkpt>
      <trkpt lat="44.87956" lon="4.20421">
        <ele>1140</ele>
        <time>2018-08-14T10:14:27.000Z</time>
      </trkpt>
      <trkpt lat="44.87954" lon="4.20426">
        <ele>1137</ele>
        <time>2018-08-14T10:14:55.000Z</time>
      </trkpt>
      <trkpt lat="44.87952" lon="4.20429">
        <ele>1137</ele>
        <time>2018-08-14T10:14:56.000Z</time>
      </trkpt>
      <trkpt lat="44.87949" lon="4.20435">
        <ele>1136</ele>
        <time>2018-08-14T10:15:00.000Z</time>
      </trkpt>
      <trkpt lat="44.87949" lon="4.20437">
        <ele>1136</ele>
        <time>2018-08-14T10:15:08.000Z</time>
      </trkpt>
      <trkpt lat="44.87949" lon="4.20438">
        <ele>1136</ele>
        <time>2018-08-14T10:15:09.000Z</time>
      </trkpt>
      <trkpt lat="44.87946" lon="4.20459">
        <ele>1136</ele>
        <time>2018-08-14T10:15:19.000Z</time>
      </trkpt>
      <trkpt lat="44.87941" lon="4.20467">
        <ele>1135</ele>
        <time>2018-08-14T10:16:18.000Z</time>
      </trkpt>
      <trkpt lat="44.87939" lon="4.20471">
        <ele>1135</ele>
        <time>2018-08-14T10:16:19.000Z</time>
      </trkpt>
      <trkpt lat="44.87932" lon="4.20484">
        <ele>1135</ele>
        <time>2018-08-14T10:16:24.000Z</time>
      </trkpt>
      <trkpt lat="44.87933" lon="4.2049">
        <ele>1135</ele>
        <time>2018-08-14T10:16:42.000Z</time>
      </trkpt>
      <trkpt lat="44.87934" lon="4.20494">
        <ele>1135</ele>
        <time>2018-08-14T10:16:43.000Z</time>
      </trkpt>
      <trkpt lat="44.87934" lon="4.20495">
        <ele>1135</ele>
        <time>2018-08-14T10:16:44.000Z</time>
      </trkpt>
      <trkpt lat="44.87934" lon="4.20496">
        <ele>1132</ele>
        <time>2018-08-14T10:17:10.000Z</time>
      </trkpt>
      <trkpt lat="44.87934" lon="4.20498">
        <ele>1132</ele>
        <time>2018-08-14T10:17:11.000Z</time>
      </trkpt>
      <trkpt lat="44.87934" lon="4.205">
        <ele>1132</ele>
        <time>2018-08-14T10:17:13.000Z</time>
      </trkpt>
      <trkpt lat="44.87934" lon="4.20515">
        <ele>1130</ele>
        <time>2018-08-14T10:17:32.000Z</time>
      </trkpt>
      <trkpt lat="44.87934" lon="4.20525">
        <ele>1130</ele>
        <time>2018-08-14T10:17:33.000Z</time>
      </trkpt>
      <trkpt lat="44.87936" lon="4.20565">
        <ele>1129</ele>
        <time>2018-08-14T10:17:37.000Z</time>
      </trkpt>
      <trkpt lat="44.87934" lon="4.20566">
        <ele>1116</ele>
        <time>2018-08-14T10:19:14.000Z</time>
      </trkpt>
      <trkpt lat="44.87932" lon="4.20567">
        <ele>1116</ele>
        <time>2018-08-14T10:19:15.000Z</time>
      </trkpt>
      <trkpt lat="44.8793" lon="4.20567">
        <ele>1116</ele>
        <time>2018-08-14T10:19:16.000Z</time>
      </trkpt>
      <trkpt lat="44.87929" lon="4.2057">
        <ele>1107</ele>
        <time>2018-08-14T10:20:14.000Z</time>
      </trkpt>
      <trkpt lat="44.87928" lon="4.20572">
        <ele>1107</ele>
        <time>2018-08-14T10:20:15.000Z</time>
      </trkpt>
      <trkpt lat="44.87926" lon="4.20574">
        <ele>1107</ele>
        <time>2018-08-14T10:20:16.000Z</time>
      </trkpt>
      <trkpt lat="44.87925" lon="4.20578">
        <ele>1103</ele>
        <time>2018-08-14T10:20:40.000Z</time>
      </trkpt>
      <trkpt lat="44.87923" lon="4.20581">
        <ele>1103</ele>
        <time>2018-08-14T10:20:41.000Z</time>
      </trkpt>
      <trkpt lat="44.87922" lon="4.20584">
        <ele>1103</ele>
        <time>2018-08-14T10:20:42.000Z</time>
      </trkpt>
      <trkpt lat="44.8792" lon="4.20585">
        <ele>1099</ele>
        <time>2018-08-14T10:21:32.000Z</time>
      </trkpt>
      <trkpt lat="44.87919" lon="4.20586">
        <ele>1099</ele>
        <time>2018-08-14T10:21:33.000Z</time>
      </trkpt>
      <trkpt lat="44.87901" lon="4.20598">
        <ele>1100</ele>
        <time>2018-08-14T10:21:37.000Z</time>
      </trkpt>
      <trkpt lat="44.87899" lon="4.20599">
        <ele>1100</ele>
        <time>2018-08-14T10:21:42.000Z</time>
      </trkpt>
      <trkpt lat="44.87897" lon="4.20599">
        <ele>1100</ele>
        <time>2018-08-14T10:21:43.000Z</time>
      </trkpt>
      <trkpt lat="44.87881" lon="4.206">
        <ele>1099</ele>
        <time>2018-08-14T10:21:50.000Z</time>
      </trkpt>
      <trkpt lat="44.87871" lon="4.20608">
        <ele>1098</ele>
        <time>2018-08-14T10:22:28.000Z</time>
      </trkpt>
      <trkpt lat="44.87866" lon="4.20612">
        <ele>1098</ele>
        <time>2018-08-14T10:22:29.000Z</time>
      </trkpt>
      <trkpt lat="44.87852" lon="4.20622">
        <ele>1098</ele>
        <time>2018-08-14T10:22:35.000Z</time>
      </trkpt>
      <trkpt lat="44.87849" lon="4.20624">
        <ele>1098</ele>
        <time>2018-08-14T10:22:55.000Z</time>
      </trkpt>
      <trkpt lat="44.87848" lon="4.20625">
        <ele>1098</ele>
        <time>2018-08-14T10:22:56.000Z</time>
      </trkpt>
      <trkpt lat="44.87822" lon="4.2065">
        <ele>1097</ele>
        <time>2018-08-14T10:23:07.000Z</time>
      </trkpt>
      <trkpt lat="44.87814" lon="4.20674">
        <ele>1095</ele>
        <time>2018-08-14T10:23:15.000Z</time>
      </trkpt>
      <trkpt lat="44.878" lon="4.20685">
        <ele>1095</ele>
        <time>2018-08-14T10:23:31.000Z</time>
      </trkpt>
      <trkpt lat="44.87797" lon="4.20688">
        <ele>1094</ele>
        <time>2018-08-14T10:23:53.000Z</time>
      </trkpt>
      <trkpt lat="44.87794" lon="4.2069">
        <ele>1094</ele>
        <time>2018-08-14T10:23:54.000Z</time>
      </trkpt>
      <trkpt lat="44.87776" lon="4.2071">
        <ele>1091</ele>
        <time>2018-08-14T10:24:03.000Z</time>
      </trkpt>
      <trkpt lat="44.87774" lon="4.2072">
        <ele>1088</ele>
        <time>2018-08-14T10:24:18.000Z</time>
      </trkpt>
      <trkpt lat="44.87772" lon="4.20725">
        <ele>1088</ele>
        <time>2018-08-14T10:24:19.000Z</time>
      </trkpt>
      <trkpt lat="44.87769" lon="4.2074">
        <ele>1088</ele>
        <time>2018-08-14T10:24:28.000Z</time>
      </trkpt>
      <trkpt lat="44.87768" lon="4.20747">
        <ele>1087</ele>
        <time>2018-08-14T10:25:56.000Z</time>
      </trkpt>
      <trkpt lat="44.87768" lon="4.20751">
        <ele>1087</ele>
        <time>2018-08-14T10:25:57.000Z</time>
      </trkpt>
      <trkpt lat="44.87771" lon="4.20777">
        <ele>1087</ele>
        <time>2018-08-14T10:26:06.000Z</time>
      </trkpt>
      <trkpt lat="44.8777" lon="4.2078">
        <ele>1088</ele>
        <time>2018-08-14T10:26:35.000Z</time>
      </trkpt>
      <trkpt lat="44.87769" lon="4.20782">
        <ele>1088</ele>
        <time>2018-08-14T10:26:36.000Z</time>
      </trkpt>
      <trkpt lat="44.87767" lon="4.20797">
        <ele>1089</ele>
        <time>2018-08-14T10:26:41.000Z</time>
      </trkpt>
      <trkpt lat="44.87766" lon="4.20809">
        <ele>1094</ele>
        <time>2018-08-14T10:27:19.000Z</time>
      </trkpt>
      <trkpt lat="44.87765" lon="4.20814">
        <ele>1094</ele>
        <time>2018-08-14T10:27:20.000Z</time>
      </trkpt>
      <trkpt lat="44.87762" lon="4.20821">
        <ele>1096</ele>
        <time>2018-08-14T10:27:36.000Z</time>
      </trkpt>
      <trkpt lat="44.87757" lon="4.20826">
        <ele>1094</ele>
        <time>2018-08-14T10:28:02.000Z</time>
      </trkpt>
      <trkpt lat="44.87755" lon="4.20828">
        <ele>1094</ele>
        <time>2018-08-14T10:28:03.000Z</time>
      </trkpt>
      <trkpt lat="44.87752" lon="4.2083">
        <ele>1094</ele>
        <time>2018-08-14T10:28:05.000Z</time>
      </trkpt>
      <trkpt lat="44.87749" lon="4.20831">
        <ele>1098</ele>
        <time>2018-08-14T10:28:52.000Z</time>
      </trkpt>
      <trkpt lat="44.87746" lon="4.20832">
        <ele>1098</ele>
        <time>2018-08-14T10:28:53.000Z</time>
      </trkpt>
      <trkpt lat="44.8773" lon="4.20829">
        <ele>1099</ele>
        <time>2018-08-14T10:29:01.000Z</time>
      </trkpt>
      <trkpt lat="44.87724" lon="4.20842">
        <ele>1102</ele>
        <time>2018-08-14T10:29:21.000Z</time>
      </trkpt>
      <trkpt lat="44.8772" lon="4.20859">
        <ele>1122</ele>
        <time>2018-08-14T10:30:49.000Z</time>
      </trkpt>
      <trkpt lat="44.87718" lon="4.20863">
        <ele>1122</ele>
        <time>2018-08-14T10:30:50.000Z</time>
      </trkpt>
      <trkpt lat="44.87718" lon="4.20869">
        <ele>1122</ele>
        <time>2018-08-14T10:30:54.000Z</time>
      </trkpt>
      <trkpt lat="44.87718" lon="4.20879">
        <ele>1152</ele>
        <time>2018-08-14T10:33:19.000Z</time>
      </trkpt>
      <trkpt lat="44.87718" lon="4.20885">
        <ele>1152</ele>
        <time>2018-08-14T10:33:20.000Z</time>
      </trkpt>
      <trkpt lat="44.87719" lon="4.20911">
        <ele>1153</ele>
        <time>2018-08-14T10:33:25.000Z</time>
      </trkpt>
      <trkpt lat="44.87711" lon="4.20921">
        <ele>1157</ele>
        <time>2018-08-14T10:34:06.000Z</time>
      </trkpt>
      <trkpt lat="44.87709" lon="4.20924">
        <ele>1157</ele>
        <time>2018-08-14T10:34:07.000Z</time>
      </trkpt>
      <trkpt lat="44.87698" lon="4.20934">
        <ele>1158</ele>
        <time>2018-08-14T10:34:21.000Z</time>
      </trkpt>
      <trkpt lat="44.87701" lon="4.20954">
        <ele>1177</ele>
        <time>2018-08-14T10:36:14.000Z</time>
      </trkpt>
      <trkpt lat="44.87702" lon="4.20961">
        <ele>1177</ele>
        <time>2018-08-14T10:36:15.000Z</time>
      </trkpt>
      <trkpt lat="44.87702" lon="4.20964">
        <ele>1178</ele>
        <time>2018-08-14T10:36:17.000Z</time>
      </trkpt>
      <trkpt lat="44.87703" lon="4.20967">
        <ele>1188</ele>
        <time>2018-08-14T10:36:46.000Z</time>
      </trkpt>
      <trkpt lat="44.87704" lon="4.2097">
        <ele>1188</ele>
        <time>2018-08-14T10:36:47.000Z</time>
      </trkpt>
      <trkpt lat="44.87706" lon="4.20978">
        <ele>1189</ele>
        <time>2018-08-14T10:36:51.000Z</time>
      </trkpt>
      <trkpt lat="44.87702" lon="4.20987">
        <ele>1197</ele>
        <time>2018-08-14T10:38:44.000Z</time>
      </trkpt>
      <trkpt lat="44.877" lon="4.20992">
        <ele>1197</ele>
        <time>2018-08-14T10:38:45.000Z</time>
      </trkpt>
      <trkpt lat="44.87696" lon="4.21001">
        <ele>1199</ele>
        <time>2018-08-14T10:38:48.000Z</time>
      </trkpt>
      <trkpt lat="44.87694" lon="4.21004">
        <ele>1208</ele>
        <time>2018-08-14T10:39:53.000Z</time>
      </trkpt>
      <trkpt lat="44.87693" lon="4.21007">
        <ele>1208</ele>
        <time>2018-08-14T10:39:54.000Z</time>
      </trkpt>
      <trkpt lat="44.87688" lon="4.21025">
        <ele>1209</ele>
        <time>2018-08-14T10:40:01.000Z</time>
      </trkpt>
      <trkpt lat="44.87684" lon="4.2103">
        <ele>1217</ele>
        <time>2018-08-14T10:41:09.000Z</time>
      </trkpt>
      <trkpt lat="44.87681" lon="4.21033">
        <ele>1217</ele>
        <time>2018-08-14T10:41:10.000Z</time>
      </trkpt>
      <trkpt lat="44.87668" lon="4.2105">
        <ele>1217</ele>
        <time>2018-08-14T10:41:15.000Z</time>
      </trkpt>
      <trkpt lat="44.87663" lon="4.21057">
        <ele>1220</ele>
        <time>2018-08-14T10:41:49.000Z</time>
      </trkpt>
      <trkpt lat="44.8766" lon="4.2106">
        <ele>1220</ele>
        <time>2018-08-14T10:41:50.000Z</time>
      </trkpt>
      <trkpt lat="44.87647" lon="4.21083">
        <ele>1222</ele>
        <time>2018-08-14T10:41:59.000Z</time>
      </trkpt>
      <trkpt lat="44.87645" lon="4.21086">
        <ele>1230</ele>
        <time>2018-08-14T10:42:44.000Z</time>
      </trkpt>
      <trkpt lat="44.87644" lon="4.21089">
        <ele>1230</ele>
        <time>2018-08-14T10:42:45.000Z</time>
      </trkpt>
      <trkpt lat="44.87643" lon="4.21091">
        <ele>1230</ele>
        <time>2018-08-14T10:42:47.000Z</time>
      </trkpt>
      <trkpt lat="44.87638" lon="4.211">
        <ele>1230</ele>
        <time>2018-08-14T10:42:51.000Z</time>
      </trkpt>
      <trkpt lat="44.87635" lon="4.21105">
        <ele>1230</ele>
        <time>2018-08-14T10:42:52.000Z</time>
      </trkpt>
      <trkpt lat="44.87632" lon="4.21111">
        <ele>1231</ele>
        <time>2018-08-14T10:42:54.000Z</time>
      </trkpt>
      <trkpt lat="44.87632" lon="4.21112">
        <ele>1238</ele>
        <time>2018-08-14T10:43:50.000Z</time>
      </trkpt>
      <trkpt lat="44.87631" lon="4.21113">
        <ele>1238</ele>
        <time>2018-08-14T10:43:51.000Z</time>
      </trkpt>
      <trkpt lat="44.87625" lon="4.21128">
        <ele>1239</ele>
        <time>2018-08-14T10:43:53.000Z</time>
      </trkpt>
      <trkpt lat="44.87621" lon="4.21137">
        <ele>1239</ele>
        <time>2018-08-14T10:43:56.000Z</time>
      </trkpt>
      <trkpt lat="44.87616" lon="4.21147">
        <ele>1242</ele>
        <time>2018-08-14T10:44:22.000Z</time>
      </trkpt>
      <trkpt lat="44.87613" lon="4.21153">
        <ele>1242</ele>
        <time>2018-08-14T10:44:23.000Z</time>
      </trkpt>
      <trkpt lat="44.87611" lon="4.21157">
        <ele>1242</ele>
        <time>2018-08-14T10:44:24.000Z</time>
      </trkpt>
      <trkpt lat="44.87609" lon="4.2116">
        <ele>1244</ele>
        <time>2018-08-14T10:44:28.000Z</time>
      </trkpt>
      <trkpt lat="44.87608" lon="4.21162">
        <ele>1244</ele>
        <time>2018-08-14T10:44:29.000Z</time>
      </trkpt>
      <trkpt lat="44.87607" lon="4.21164">
        <ele>1245</ele>
        <time>2018-08-14T10:44:31.000Z</time>
      </trkpt>
      <trkpt lat="44.87606" lon="4.21165">
        <ele>1253</ele>
        <time>2018-08-14T10:45:18.000Z</time>
      </trkpt>
      <trkpt lat="44.87606" lon="4.21166">
        <ele>1253</ele>
        <time>2018-08-14T10:45:19.000Z</time>
      </trkpt>
      <trkpt lat="44.87595" lon="4.212">
        <ele>1253</ele>
        <time>2018-08-14T10:45:23.000Z</time>
      </trkpt>
      <trkpt lat="44.87595" lon="4.21201">
        <ele>1253</ele>
        <time>2018-08-14T10:45:24.000Z</time>
      </trkpt>
      <trkpt lat="44.87593" lon="4.21205">
        <ele>1256</ele>
        <time>2018-08-14T10:45:52.000Z</time>
      </trkpt>
      <trkpt lat="44.87591" lon="4.21208">
        <ele>1256</ele>
        <time>2018-08-14T10:45:53.000Z</time>
      </trkpt>
      <trkpt lat="44.8759" lon="4.2121">
        <ele>1257</ele>
        <time>2018-08-14T10:45:55.000Z</time>
      </trkpt>
      <trkpt lat="44.87589" lon="4.21212">
        <ele>1272</ele>
        <time>2018-08-14T10:46:58.000Z</time>
      </trkpt>
      <trkpt lat="44.87588" lon="4.21213">
        <ele>1272</ele>
        <time>2018-08-14T10:46:59.000Z</time>
      </trkpt>
      <trkpt lat="44.87586" lon="4.21217">
        <ele>1272</ele>
        <time>2018-08-14T10:47:02.000Z</time>
      </trkpt>
      <trkpt lat="44.87582" lon="4.21228">
        <ele>1272</ele>
        <time>2018-08-14T10:47:07.000Z</time>
      </trkpt>
      <trkpt lat="44.8758" lon="4.21234">
        <ele>1272</ele>
        <time>2018-08-14T10:47:08.000Z</time>
      </trkpt>
      <trkpt lat="44.87579" lon="4.21236">
        <ele>1272</ele>
        <time>2018-08-14T10:47:09.000Z</time>
      </trkpt>
      <trkpt lat="44.87579" lon="4.21241">
        <ele>1276</ele>
        <time>2018-08-14T10:47:28.000Z</time>
      </trkpt>
      <trkpt lat="44.87578" lon="4.21244">
        <ele>1276</ele>
        <time>2018-08-14T10:47:29.000Z</time>
      </trkpt>
      <trkpt lat="44.87577" lon="4.21246">
        <ele>1276</ele>
        <time>2018-08-14T10:47:30.000Z</time>
      </trkpt>
      <trkpt lat="44.87577" lon="4.21249">
        <ele>1286</ele>
        <time>2018-08-14T10:48:36.000Z</time>
      </trkpt>
      <trkpt lat="44.87576" lon="4.21252">
        <ele>1286</ele>
        <time>2018-08-14T10:48:37.000Z</time>
      </trkpt>
      <trkpt lat="44.87576" lon="4.21254">
        <ele>1286</ele>
        <time>2018-08-14T10:48:38.000Z</time>
      </trkpt>
      <trkpt lat="44.87575" lon="4.21255">
        <ele>1288</ele>
        <time>2018-08-14T10:48:53.000Z</time>
      </trkpt>
      <trkpt lat="44.87575" lon="4.21256">
        <ele>1288</ele>
        <time>2018-08-14T10:48:54.000Z</time>
      </trkpt>
      <trkpt lat="44.87575" lon="4.21257">
        <ele>1288</ele>
        <time>2018-08-14T10:48:55.000Z</time>
      </trkpt>
      <trkpt lat="44.87574" lon="4.21261">
        <ele>1290</ele>
        <time>2018-08-14T10:49:01.000Z</time>
      </trkpt>
      <trkpt lat="44.87572" lon="4.21264">
        <ele>1290</ele>
        <time>2018-08-14T10:49:02.000Z</time>
      </trkpt>
      <trkpt lat="44.87567" lon="4.21281">
        <ele>1291</ele>
        <time>2018-08-14T10:49:04.000Z</time>
      </trkpt>
      <trkpt lat="44.87564" lon="4.21287">
        <ele>1292</ele>
        <time>2018-08-14T10:49:06.000Z</time>
      </trkpt>
      <trkpt lat="44.87563" lon="4.21291">
        <ele>1295</ele>
        <time>2018-08-14T10:49:24.000Z</time>
      </trkpt>
      <trkpt lat="44.87561" lon="4.21295">
        <ele>1295</ele>
        <time>2018-08-14T10:49:25.000Z</time>
      </trkpt>
      <trkpt lat="44.87558" lon="4.21304">
        <ele>1296</ele>
        <time>2018-08-14T10:49:27.000Z</time>
      </trkpt>
      <trkpt lat="44.87558" lon="4.21304">
        <ele>1303</ele>
        <time>2018-08-14T10:50:31.000Z</time>
      </trkpt>
      <trkpt lat="44.87558" lon="4.21304">
        <ele>1303</ele>
        <time>2018-08-14T10:50:32.000Z</time>
      </trkpt>
      <trkpt lat="44.87556" lon="4.2131">
        <ele>1303</ele>
        <time>2018-08-14T10:50:37.000Z</time>
      </trkpt>
      <trkpt lat="44.87555" lon="4.21315">
        <ele>1304</ele>
        <time>2018-08-14T10:50:44.000Z</time>
      </trkpt>
      <trkpt lat="44.87553" lon="4.21319">
        <ele>1304</ele>
        <time>2018-08-14T10:50:45.000Z</time>
      </trkpt>
      <trkpt lat="44.87553" lon="4.21321">
        <ele>1304</ele>
        <time>2018-08-14T10:50:46.000Z</time>
      </trkpt>
      <trkpt lat="44.87551" lon="4.21323">
        <ele>1326</ele>
        <time>2018-08-14T10:53:20.000Z</time>
      </trkpt>
      <trkpt lat="44.8755" lon="4.21326">
        <ele>1326</ele>
        <time>2018-08-14T10:53:21.000Z</time>
      </trkpt>
      <trkpt lat="44.87531" lon="4.21361">
        <ele>1326</ele>
        <time>2018-08-14T10:53:23.000Z</time>
      </trkpt>
      <trkpt lat="44.87508" lon="4.214">
        <ele>1327</ele>
        <time>2018-08-14T10:53:25.000Z</time>
      </trkpt>
      <trkpt lat="44.87503" lon="4.21407">
        <ele>1327</ele>
        <time>2018-08-14T10:53:28.000Z</time>
      </trkpt>
      <trkpt lat="44.87495" lon="4.21425">
        <ele>1337</ele>
        <time>2018-08-14T10:54:43.000Z</time>
      </trkpt>
      <trkpt lat="44.87492" lon="4.21433">
        <ele>1337</ele>
        <time>2018-08-14T10:54:44.000Z</time>
      </trkpt>
      <trkpt lat="44.87482" lon="4.21453">
        <ele>1340</ele>
        <time>2018-08-14T10:54:52.000Z</time>
      </trkpt>
      <trkpt lat="44.87479" lon="4.21468">
        <ele>1359</ele>
        <time>2018-08-14T10:55:57.000Z</time>
      </trkpt>
      <trkpt lat="44.87478" lon="4.21475">
        <ele>1359</ele>
        <time>2018-08-14T10:55:58.000Z</time>
      </trkpt>
      <trkpt lat="44.87473" lon="4.21495">
        <ele>1360</ele>
        <time>2018-08-14T10:56:02.000Z</time>
      </trkpt>
      <trkpt lat="44.87471" lon="4.21502">
        <ele>1393</ele>
        <time>2018-08-14T11:00:21.000Z</time>
      </trkpt>
      <trkpt lat="44.8747" lon="4.21508">
        <ele>1393</ele>
        <time>2018-08-14T11:00:22.000Z</time>
      </trkpt>
      <trkpt lat="44.87469" lon="4.21514">
        <ele>1393</ele>
        <time>2018-08-14T11:00:23.000Z</time>
      </trkpt>
      <trkpt lat="44.87463" lon="4.21536">
        <ele>1395</ele>
        <time>2018-08-14T11:00:54.000Z</time>
      </trkpt>
      <trkpt lat="44.87459" lon="4.21552">
        <ele>1395</ele>
        <time>2018-08-14T11:00:55.000Z</time>
      </trkpt>
      <trkpt lat="44.87456" lon="4.21563">
        <ele>1396</ele>
        <time>2018-08-14T11:00:56.000Z</time>
      </trkpt>
      <trkpt lat="44.87455" lon="4.21569">
        <ele>1405</ele>
        <time>2018-08-14T11:02:03.000Z</time>
      </trkpt>
      <trkpt lat="44.87453" lon="4.21575">
        <ele>1405</ele>
        <time>2018-08-14T11:02:04.000Z</time>
      </trkpt>
      <trkpt lat="44.87447" lon="4.21604">
        <ele>1406</ele>
        <time>2018-08-14T11:02:07.000Z</time>
      </trkpt>
      <trkpt lat="44.87442" lon="4.21626">
        <ele>1406</ele>
        <time>2018-08-14T11:02:08.000Z</time>
      </trkpt>
      <trkpt lat="44.87441" lon="4.21629">
        <ele>1408</ele>
        <time>2018-08-14T11:02:59.000Z</time>
      </trkpt>
      <trkpt lat="44.8744" lon="4.21631">
        <ele>1408</ele>
        <time>2018-08-14T11:03:00.000Z</time>
      </trkpt>
      <trkpt lat="44.87438" lon="4.2164">
        <ele>1409</ele>
        <time>2018-08-14T11:03:02.000Z</time>
      </trkpt>
      <trkpt lat="44.87433" lon="4.21664">
        <ele>1409</ele>
        <time>2018-08-14T11:03:03.000Z</time>
      </trkpt>
      <trkpt lat="44.87432" lon="4.21667">
        <ele>1419</ele>
        <time>2018-08-14T11:03:34.000Z</time>
      </trkpt>
      <trkpt lat="44.87431" lon="4.2167">
        <ele>1419</ele>
        <time>2018-08-14T11:03:35.000Z</time>
      </trkpt>
      <trkpt lat="44.87428" lon="4.21681">
        <ele>1419</ele>
        <time>2018-08-14T11:03:37.000Z</time>
      </trkpt>
      <trkpt lat="44.87423" lon="4.217">
        <ele>1420</ele>
        <time>2018-08-14T11:03:38.000Z</time>
      </trkpt>
      <trkpt lat="44.87418" lon="4.21713">
        <ele>1420</ele>
        <time>2018-08-14T11:03:40.000Z</time>
      </trkpt>
      <trkpt lat="44.87416" lon="4.21722">
        <ele>1420</ele>
        <time>2018-08-14T11:03:41.000Z</time>
      </trkpt>
      <trkpt lat="44.87407" lon="4.2175">
        <ele>1420</ele>
        <time>2018-08-14T11:03:43.000Z</time>
      </trkpt>
      <trkpt lat="44.87398" lon="4.21776">
        <ele>1421</ele>
        <time>2018-08-14T11:03:46.000Z</time>
      </trkpt>
      <trkpt lat="44.87398" lon="4.21787">
        <ele>1422</ele>
        <time>2018-08-14T11:03:50.000Z</time>
      </trkpt>
      <trkpt lat="44.87396" lon="4.21797">
        <ele>1451</ele>
        <time>2018-08-14T11:06:09.000Z</time>
      </trkpt>
      <trkpt lat="44.87394" lon="4.21805">
        <ele>1451</ele>
        <time>2018-08-14T11:06:10.000Z</time>
      </trkpt>
      <trkpt lat="44.87393" lon="4.21811">
        <ele>1451</ele>
        <time>2018-08-14T11:06:12.000Z</time>
      </trkpt>
      <trkpt lat="44.87388" lon="4.21839">
        <ele>1451</ele>
        <time>2018-08-14T11:06:14.000Z</time>
      </trkpt>
      <trkpt lat="44.87384" lon="4.21857">
        <ele>1453</ele>
        <time>2018-08-14T11:06:20.000Z</time>
      </trkpt>
      <trkpt lat="44.87383" lon="4.21868">
        <ele>1453</ele>
        <time>2018-08-14T11:06:21.000Z</time>
      </trkpt>
      <trkpt lat="44.87381" lon="4.21874">
        <ele>1453</ele>
        <time>2018-08-14T11:06:23.000Z</time>
      </trkpt>
      <trkpt lat="44.8738" lon="4.21881">
        <ele>1453</ele>
        <time>2018-08-14T11:06:27.000Z</time>
      </trkpt>
      <trkpt lat="44.87379" lon="4.21886">
        <ele>1453</ele>
        <time>2018-08-14T11:06:28.000Z</time>
      </trkpt>
      <trkpt lat="44.87376" lon="4.21903">
        <ele>1453</ele>
        <time>2018-08-14T11:06:31.000Z</time>
      </trkpt>
      <trkpt lat="44.87374" lon="4.21911">
        <ele>1456</ele>
        <time>2018-08-14T11:07:03.000Z</time>
      </trkpt>
      <trkpt lat="44.87373" lon="4.21918">
        <ele>1456</ele>
        <time>2018-08-14T11:07:04.000Z</time>
      </trkpt>
      <trkpt lat="44.87372" lon="4.21918">
        <ele>1456</ele>
        <time>2018-08-14T11:07:05.000Z</time>
      </trkpt>
      <trkpt lat="44.87371" lon="4.21923">
        <ele>1456</ele>
        <time>2018-08-14T11:07:07.000Z</time>
      </trkpt>
      <trkpt lat="44.8737" lon="4.21927">
        <ele>1456</ele>
        <time>2018-08-14T11:07:08.000Z</time>
      </trkpt>
      <trkpt lat="44.87359" lon="4.21969">
        <ele>1458</ele>
        <time>2018-08-14T11:07:17.000Z</time>
      </trkpt>
      <trkpt lat="44.87359" lon="4.21977">
        <ele>1465</ele>
        <time>2018-08-14T11:07:57.000Z</time>
      </trkpt>
      <trkpt lat="44.87359" lon="4.21982">
        <ele>1465</ele>
        <time>2018-08-14T11:07:58.000Z</time>
      </trkpt>
      <trkpt lat="44.87359" lon="4.21986">
        <ele>1465</ele>
        <time>2018-08-14T11:07:59.000Z</time>
      </trkpt>
      <trkpt lat="44.87359" lon="4.21988">
        <ele>1463</ele>
        <time>2018-08-14T11:08:24.000Z</time>
      </trkpt>
      <trkpt lat="44.87359" lon="4.21989">
        <ele>1463</ele>
        <time>2018-08-14T11:08:25.000Z</time>
      </trkpt>
      <trkpt lat="44.8736" lon="4.22027">
        <ele>1465</ele>
        <time>2018-08-14T11:08:36.000Z</time>
      </trkpt>
      <trkpt lat="44.87361" lon="4.22042">
        <ele>1480</ele>
        <time>2018-08-14T11:09:29.000Z</time>
      </trkpt>
      <trkpt lat="44.87362" lon="4.2205">
        <ele>1480</ele>
        <time>2018-08-14T11:09:30.000Z</time>
      </trkpt>
      <trkpt lat="44.87362" lon="4.2209">
        <ele>1481</ele>
        <time>2018-08-14T11:09:43.000Z</time>
      </trkpt>
      <trkpt lat="44.87358" lon="4.22099">
        <ele>1484</ele>
        <time>2018-08-14T11:09:56.000Z</time>
      </trkpt>
      <trkpt lat="44.87357" lon="4.22103">
        <ele>1484</ele>
        <time>2018-08-14T11:09:57.000Z</time>
      </trkpt>
      <trkpt lat="44.87351" lon="4.22133">
        <ele>1485</ele>
        <time>2018-08-14T11:10:09.000Z</time>
      </trkpt>
      <trkpt lat="44.87349" lon="4.22135">
        <ele>1487</ele>
        <time>2018-08-14T11:10:36.000Z</time>
      </trkpt>
      <trkpt lat="44.87348" lon="4.22136">
        <ele>1487</ele>
        <time>2018-08-14T11:10:37.000Z</time>
      </trkpt>
      <trkpt lat="44.87336" lon="4.22147">
        <ele>1489</ele>
        <time>2018-08-14T11:10:43.000Z</time>
      </trkpt>
      <trkpt lat="44.87333" lon="4.22169">
        <ele>1498</ele>
        <time>2018-08-14T11:16:32.000Z</time>
      </trkpt>
      <trkpt lat="44.87332" lon="4.22173">
        <ele>1498</ele>
        <time>2018-08-14T11:16:33.000Z</time>
      </trkpt>
      <trkpt lat="44.87332" lon="4.22174">
        <ele>1498</ele>
        <time>2018-08-14T11:16:35.000Z</time>
      </trkpt>
      <trkpt lat="44.87331" lon="4.2218">
        <ele>1501</ele>
        <time>2018-08-14T11:49:55.000Z</time>
      </trkpt>
      <trkpt lat="44.8733" lon="4.22184">
        <ele>1501</ele>
        <time>2018-08-14T11:49:56.000Z</time>
      </trkpt>
      <trkpt lat="44.87329" lon="4.22188">
        <ele>1501</ele>
        <time>2018-08-14T11:49:58.000Z</time>
      </trkpt>
      <trkpt lat="44.87329" lon="4.22195">
        <ele>1496</ele>
        <time>2018-08-14T11:50:20.000Z</time>
      </trkpt>
      <trkpt lat="44.87328" lon="4.222">
        <ele>1496</ele>
        <time>2018-08-14T11:50:21.000Z</time>
      </trkpt>
      <trkpt lat="44.87326" lon="4.22246">
        <ele>1495</ele>
        <time>2018-08-14T11:50:24.000Z</time>
      </trkpt>
      <trkpt lat="44.87326" lon="4.22269">
        <ele>1495</ele>
        <time>2018-08-14T11:50:32.000Z</time>
      </trkpt>
      <trkpt lat="44.87326" lon="4.2228">
        <ele>1485</ele>
        <time>2018-08-14T11:51:13.000Z</time>
      </trkpt>
      <trkpt lat="44.87325" lon="4.22285">
        <ele>1485</ele>
        <time>2018-08-14T11:51:14.000Z</time>
      </trkpt>
      <trkpt lat="44.8732" lon="4.22325">
        <ele>1479</ele>
        <time>2018-08-14T11:51:31.000Z</time>
      </trkpt>
      <trkpt lat="44.87314" lon="4.22328">
        <ele>1466</ele>
        <time>2018-08-14T11:53:00.000Z</time>
      </trkpt>
      <trkpt lat="44.8731" lon="4.22331">
        <ele>1466</ele>
        <time>2018-08-14T11:53:01.000Z</time>
      </trkpt>
      <trkpt lat="44.8731" lon="4.22331">
        <ele>1465</ele>
        <time>2018-08-14T11:53:03.000Z</time>
      </trkpt>
      <trkpt lat="44.87309" lon="4.2234">
        <ele>1459</ele>
        <time>2018-08-14T11:53:42.000Z</time>
      </trkpt>
      <trkpt lat="44.87308" lon="4.22345">
        <ele>1459</ele>
        <time>2018-08-14T11:53:43.000Z</time>
      </trkpt>
      <trkpt lat="44.8731" lon="4.22393">
        <ele>1455</ele>
        <time>2018-08-14T11:54:04.000Z</time>
      </trkpt>
      <trkpt lat="44.87309" lon="4.22414">
        <ele>1451</ele>
        <time>2018-08-14T11:54:24.000Z</time>
      </trkpt>
      <trkpt lat="44.87316" lon="4.22423">
        <ele>1440</ele>
        <time>2018-08-14T11:55:47.000Z</time>
      </trkpt>
      <trkpt lat="44.87319" lon="4.22427">
        <ele>1440</ele>
        <time>2018-08-14T11:55:48.000Z</time>
      </trkpt>
      <trkpt lat="44.87329" lon="4.22436">
        <ele>1440</ele>
        <time>2018-08-14T11:55:55.000Z</time>
      </trkpt>
      <trkpt lat="44.87329" lon="4.22442">
        <ele>1436</ele>
        <time>2018-08-14T11:56:26.000Z</time>
      </trkpt>
      <trkpt lat="44.8733" lon="4.22446">
        <ele>1436</ele>
        <time>2018-08-14T11:56:27.000Z</time>
      </trkpt>
      <trkpt lat="44.87336" lon="4.22494">
        <ele>1435</ele>
        <time>2018-08-14T11:56:53.000Z</time>
      </trkpt>
      <trkpt lat="44.87336" lon="4.22495">
        <ele>1435</ele>
        <time>2018-08-14T11:56:54.000Z</time>
      </trkpt>
      <trkpt lat="44.87341" lon="4.22502">
        <ele>1417</ele>
        <time>2018-08-14T11:57:37.000Z</time>
      </trkpt>
      <trkpt lat="44.87344" lon="4.22505">
        <ele>1417</ele>
        <time>2018-08-14T11:57:38.000Z</time>
      </trkpt>
      <trkpt lat="44.8735" lon="4.22513">
        <ele>1416</ele>
        <time>2018-08-14T11:57:42.000Z</time>
      </trkpt>
      <trkpt lat="44.8735" lon="4.22515">
        <ele>1408</ele>
        <time>2018-08-14T11:58:32.000Z</time>
      </trkpt>
      <trkpt lat="44.8735" lon="4.22517">
        <ele>1408</ele>
        <time>2018-08-14T11:58:33.000Z</time>
      </trkpt>
      <trkpt lat="44.8735" lon="4.22519">
        <ele>1408</ele>
        <time>2018-08-14T11:58:35.000Z</time>
      </trkpt>
      <trkpt lat="44.87347" lon="4.22522">
        <ele>1396</ele>
        <time>2018-08-14T12:00:57.000Z</time>
      </trkpt>
      <trkpt lat="44.87344" lon="4.22525">
        <ele>1396</ele>
        <time>2018-08-14T12:00:58.000Z</time>
      </trkpt>
      <trkpt lat="44.87326" lon="4.22544">
        <ele>1396</ele>
        <time>2018-08-14T12:01:00.000Z</time>
      </trkpt>
      <trkpt lat="44.87309" lon="4.22557">
        <ele>1395</ele>
        <time>2018-08-14T12:01:07.000Z</time>
      </trkpt>
      <trkpt lat="44.87309" lon="4.22557">
        <ele>1393</ele>
        <time>2018-08-14T12:01:46.000Z</time>
      </trkpt>
      <trkpt lat="44.87308" lon="4.22557">
        <ele>1393</ele>
        <time>2018-08-14T12:01:47.000Z</time>
      </trkpt>
      <trkpt lat="44.87307" lon="4.22556">
        <ele>1392</ele>
        <time>2018-08-14T12:01:50.000Z</time>
      </trkpt>
      <trkpt lat="44.87304" lon="4.22555">
        <ele>1387</ele>
        <time>2018-08-14T12:02:31.000Z</time>
      </trkpt>
      <trkpt lat="44.87301" lon="4.22554">
        <ele>1387</ele>
        <time>2018-08-14T12:02:32.000Z</time>
      </trkpt>
      <trkpt lat="44.87291" lon="4.22552">
        <ele>1387</ele>
        <time>2018-08-14T12:02:34.000Z</time>
      </trkpt>
      <trkpt lat="44.87279" lon="4.2255">
        <ele>1387</ele>
        <time>2018-08-14T12:02:38.000Z</time>
      </trkpt>
      <trkpt lat="44.87273" lon="4.22546">
        <ele>1382</ele>
        <time>2018-08-14T12:03:08.000Z</time>
      </trkpt>
      <trkpt lat="44.87268" lon="4.22543">
        <ele>1382</ele>
        <time>2018-08-14T12:03:09.000Z</time>
      </trkpt>
      <trkpt lat="44.87249" lon="4.22531">
        <ele>1381</ele>
        <time>2018-08-14T12:03:15.000Z</time>
      </trkpt>
      <trkpt lat="44.8723" lon="4.22514">
        <ele>1379</ele>
        <time>2018-08-14T12:03:31.000Z</time>
      </trkpt>
      <trkpt lat="44.87228" lon="4.22511">
        <ele>1371</ele>
        <time>2018-08-14T12:06:56.000Z</time>
      </trkpt>
      <trkpt lat="44.87227" lon="4.22509">
        <ele>1371</ele>
        <time>2018-08-14T12:06:57.000Z</time>
      </trkpt>
      <trkpt lat="44.87218" lon="4.22495">
        <ele>1371</ele>
        <time>2018-08-14T12:07:01.000Z</time>
      </trkpt>
      <trkpt lat="44.87205" lon="4.22485">
        <ele>1371</ele>
        <time>2018-08-14T12:07:29.000Z</time>
      </trkpt>
      <trkpt lat="44.87203" lon="4.22484">
        <ele>1371</ele>
        <time>2018-08-14T12:07:30.000Z</time>
      </trkpt>
      <trkpt lat="44.87203" lon="4.22484">
        <ele>1371</ele>
        <time>2018-08-14T12:07:32.000Z</time>
      </trkpt>
      <trkpt lat="44.87201" lon="4.22481">
        <ele>1370</ele>
        <time>2018-08-14T12:08:12.000Z</time>
      </trkpt>
      <trkpt lat="44.87199" lon="4.22479">
        <ele>1370</ele>
        <time>2018-08-14T12:08:13.000Z</time>
      </trkpt>
      <trkpt lat="44.8718" lon="4.22459">
        <ele>1370</ele>
        <time>2018-08-14T12:08:17.000Z</time>
      </trkpt>
      <trkpt lat="44.87178" lon="4.22455">
        <ele>1370</ele>
        <time>2018-08-14T12:08:36.000Z</time>
      </trkpt>
      <trkpt lat="44.87177" lon="4.22453">
        <ele>1370</ele>
        <time>2018-08-14T12:08:37.000Z</time>
      </trkpt>
      <trkpt lat="44.87174" lon="4.22446">
        <ele>1370</ele>
        <time>2018-08-14T12:08:42.000Z</time>
      </trkpt>
      <trkpt lat="44.87164" lon="4.2242">
        <ele>1368</ele>
        <time>2018-08-14T12:09:11.000Z</time>
      </trkpt>
      <trkpt lat="44.87162" lon="4.22415">
        <ele>1368</ele>
        <time>2018-08-14T12:09:12.000Z</time>
      </trkpt>
      <trkpt lat="44.87161" lon="4.22413">
        <ele>1368</ele>
        <time>2018-08-14T12:09:13.000Z</time>
      </trkpt>
      <trkpt lat="44.8716" lon="4.22412">
        <ele>1368</ele>
        <time>2018-08-14T12:09:25.000Z</time>
      </trkpt>
      <trkpt lat="44.87159" lon="4.2241">
        <ele>1368</ele>
        <time>2018-08-14T12:09:26.000Z</time>
      </trkpt>
      <trkpt lat="44.87137" lon="4.22373">
        <ele>1367</ele>
        <time>2018-08-14T12:09:38.000Z</time>
      </trkpt>
      <trkpt lat="44.87131" lon="4.2237">
        <ele>1367</ele>
        <time>2018-08-14T12:09:44.000Z</time>
      </trkpt>
      <trkpt lat="44.87127" lon="4.22359">
        <ele>1365</ele>
        <time>2018-08-14T12:10:09.000Z</time>
      </trkpt>
      <trkpt lat="44.87125" lon="4.22354">
        <ele>1365</ele>
        <time>2018-08-14T12:10:10.000Z</time>
      </trkpt>
      <trkpt lat="44.87125" lon="4.22354">
        <ele>1364</ele>
        <time>2018-08-14T12:10:11.000Z</time>
      </trkpt>
      <trkpt lat="44.87123" lon="4.2235">
        <ele>1363</ele>
        <time>2018-08-14T12:10:23.000Z</time>
      </trkpt>
      <trkpt lat="44.87121" lon="4.22347">
        <ele>1363</ele>
        <time>2018-08-14T12:10:24.000Z</time>
      </trkpt>
      <trkpt lat="44.8712" lon="4.22345">
        <ele>1363</ele>
        <time>2018-08-14T12:10:25.000Z</time>
      </trkpt>
      <trkpt lat="44.87119" lon="4.22342">
        <ele>1358</ele>
        <time>2018-08-14T12:10:49.000Z</time>
      </trkpt>
      <trkpt lat="44.87117" lon="4.2234">
        <ele>1358</ele>
        <time>2018-08-14T12:10:50.000Z</time>
      </trkpt>
      <trkpt lat="44.87107" lon="4.22325">
        <ele>1355</ele>
        <time>2018-08-14T12:10:58.000Z</time>
      </trkpt>
      <trkpt lat="44.87105" lon="4.2232">
        <ele>1353</ele>
        <time>2018-08-14T12:11:11.000Z</time>
      </trkpt>
      <trkpt lat="44.87104" lon="4.22317">
        <ele>1353</ele>
        <time>2018-08-14T12:11:12.000Z</time>
      </trkpt>
      <trkpt lat="44.87091" lon="4.22284">
        <ele>1350</ele>
        <time>2018-08-14T12:11:27.000Z</time>
      </trkpt>
      <trkpt lat="44.87088" lon="4.22277">
        <ele>1346</ele>
        <time>2018-08-14T12:11:39.000Z</time>
      </trkpt>
      <trkpt lat="44.87087" lon="4.22273">
        <ele>1346</ele>
        <time>2018-08-14T12:11:40.000Z</time>
      </trkpt>
      <trkpt lat="44.87082" lon="4.22253">
        <ele>1344</ele>
        <time>2018-08-14T12:11:49.000Z</time>
      </trkpt>
      <trkpt lat="44.87078" lon="4.22243">
        <ele>1339</ele>
        <time>2018-08-14T12:12:21.000Z</time>
      </trkpt>
      <trkpt lat="44.87076" lon="4.22238">
        <ele>1339</ele>
        <time>2018-08-14T12:12:22.000Z</time>
      </trkpt>
      <trkpt lat="44.87076" lon="4.22197">
        <ele>1328</ele>
        <time>2018-08-14T12:12:48.000Z</time>
      </trkpt>
      <trkpt lat="44.87075" lon="4.22191">
        <ele>1316</ele>
        <time>2018-08-14T12:13:15.000Z</time>
      </trkpt>
      <trkpt lat="44.87074" lon="4.22186">
        <ele>1316</ele>
        <time>2018-08-14T12:13:16.000Z</time>
      </trkpt>
      <trkpt lat="44.87067" lon="4.22152">
        <ele>1313</ele>
        <time>2018-08-14T12:13:29.000Z</time>
      </trkpt>
      <trkpt lat="44.87068" lon="4.22147">
        <ele>1306</ele>
        <time>2018-08-14T12:13:48.000Z</time>
      </trkpt>
      <trkpt lat="44.87068" lon="4.22143">
        <ele>1306</ele>
        <time>2018-08-14T12:13:49.000Z</time>
      </trkpt>
      <trkpt lat="44.87069" lon="4.22127">
        <ele>1306</ele>
        <time>2018-08-14T12:13:54.000Z</time>
      </trkpt>
      <trkpt lat="44.87067" lon="4.22111">
        <ele>1304</ele>
        <time>2018-08-14T12:14:25.000Z</time>
      </trkpt>
      <trkpt lat="44.87066" lon="4.22103">
        <ele>1304</ele>
        <time>2018-08-14T12:14:26.000Z</time>
      </trkpt>
      <trkpt lat="44.87065" lon="4.22093">
        <ele>1303</ele>
        <time>2018-08-14T12:14:28.000Z</time>
      </trkpt>
      <trkpt lat="44.87064" lon="4.22091">
        <ele>1304</ele>
        <time>2018-08-14T12:14:47.000Z</time>
      </trkpt>
      <trkpt lat="44.87064" lon="4.22088">
        <ele>1304</ele>
        <time>2018-08-14T12:14:48.000Z</time>
      </trkpt>
      <trkpt lat="44.87064" lon="4.22084">
        <ele>1304</ele>
        <time>2018-08-14T12:14:52.000Z</time>
      </trkpt>
      <trkpt lat="44.87064" lon="4.22079">
        <ele>1304</ele>
        <time>2018-08-14T12:15:15.000Z</time>
      </trkpt>
      <trkpt lat="44.87063" lon="4.22074">
        <ele>1304</ele>
        <time>2018-08-14T12:15:16.000Z</time>
      </trkpt>
      <trkpt lat="44.87062" lon="4.22058">
        <ele>1304</ele>
        <time>2018-08-14T12:15:21.000Z</time>
      </trkpt>
      <trkpt lat="44.87064" lon="4.22048">
        <ele>1304</ele>
        <time>2018-08-14T12:15:32.000Z</time>
      </trkpt>
      <trkpt lat="44.87064" lon="4.22042">
        <ele>1304</ele>
        <time>2018-08-14T12:15:33.000Z</time>
      </trkpt>
      <trkpt lat="44.87072" lon="4.21995">
        <ele>1303</ele>
        <time>2018-08-14T12:16:02.000Z</time>
      </trkpt>
      <trkpt lat="44.87078" lon="4.21976">
        <ele>1299</ele>
        <time>2018-08-14T12:16:23.000Z</time>
      </trkpt>
      <trkpt lat="44.87078" lon="4.2197">
        <ele>1296</ele>
        <time>2018-08-14T12:16:49.000Z</time>
      </trkpt>
      <trkpt lat="44.87079" lon="4.21965">
        <ele>1296</ele>
        <time>2018-08-14T12:16:50.000Z</time>
      </trkpt>
      <trkpt lat="44.87079" lon="4.21956">
        <ele>1296</ele>
        <time>2018-08-14T12:16:53.000Z</time>
      </trkpt>
      <trkpt lat="44.8708" lon="4.21954">
        <ele>1293</ele>
        <time>2018-08-14T12:17:06.000Z</time>
      </trkpt>
      <trkpt lat="44.8708" lon="4.21952">
        <ele>1293</ele>
        <time>2018-08-14T12:17:07.000Z</time>
      </trkpt>
      <trkpt lat="44.87081" lon="4.21948">
        <ele>1292</ele>
        <time>2018-08-14T12:17:10.000Z</time>
      </trkpt>
      <trkpt lat="44.87082" lon="4.21935">
        <ele>1289</ele>
        <time>2018-08-14T12:17:27.000Z</time>
      </trkpt>
      <trkpt lat="44.87083" lon="4.21927">
        <ele>1289</ele>
        <time>2018-08-14T12:17:28.000Z</time>
      </trkpt>
      <trkpt lat="44.87083" lon="4.21922">
        <ele>1289</ele>
        <time>2018-08-14T12:17:30.000Z</time>
      </trkpt>
      <trkpt lat="44.87083" lon="4.2191">
        <ele>1286</ele>
        <time>2018-08-14T12:17:46.000Z</time>
      </trkpt>
      <trkpt lat="44.87083" lon="4.21902">
        <ele>1286</ele>
        <time>2018-08-14T12:17:47.000Z</time>
      </trkpt>
      <trkpt lat="44.87083" lon="4.21886">
        <ele>1285</ele>
        <time>2018-08-14T12:17:51.000Z</time>
      </trkpt>
      <trkpt lat="44.87081" lon="4.21876">
        <ele>1276</ele>
        <time>2018-08-14T12:18:21.000Z</time>
      </trkpt>
      <trkpt lat="44.8708" lon="4.2187">
        <ele>1276</ele>
        <time>2018-08-14T12:18:22.000Z</time>
      </trkpt>
      <trkpt lat="44.87076" lon="4.21842">
        <ele>1275</ele>
        <time>2018-08-14T12:18:26.000Z</time>
      </trkpt>
      <trkpt lat="44.87076" lon="4.21831">
        <ele>1273</ele>
        <time>2018-08-14T12:18:31.000Z</time>
      </trkpt>
      <trkpt lat="44.87076" lon="4.21826">
        <ele>1273</ele>
        <time>2018-08-14T12:18:32.000Z</time>
      </trkpt>
      <trkpt lat="44.8707" lon="4.21778">
        <ele>1269</ele>
        <time>2018-08-14T12:18:56.000Z</time>
      </trkpt>
      <trkpt lat="44.87071" lon="4.21773">
        <ele>1269</ele>
        <time>2018-08-14T12:19:01.000Z</time>
      </trkpt>
      <trkpt lat="44.8706" lon="4.21786">
        <ele>1258</ele>
        <time>2018-08-14T12:20:50.000Z</time>
      </trkpt>
      <trkpt lat="44.87054" lon="4.21793">
        <ele>1258</ele>
        <time>2018-08-14T12:20:51.000Z</time>
      </trkpt>
      <trkpt lat="44.87037" lon="4.21831">
        <ele>1253</ele>
        <time>2018-08-14T12:21:07.000Z</time>
      </trkpt>
      <trkpt lat="44.87003" lon="4.21845">
        <ele>1248</ele>
        <time>2018-08-14T12:21:34.000Z</time>
      </trkpt>
      <trkpt lat="44.86976" lon="4.21863">
        <ele>1236</ele>
        <time>2018-08-14T12:22:14.000Z</time>
      </trkpt>
      <trkpt lat="44.86975" lon="4.21867">
        <ele>1229</ele>
        <time>2018-08-14T12:22:32.000Z</time>
      </trkpt>
      <trkpt lat="44.86974" lon="4.21871">
        <ele>1229</ele>
        <time>2018-08-14T12:22:33.000Z</time>
      </trkpt>
      <trkpt lat="44.86969" lon="4.21885">
        <ele>1228</ele>
        <time>2018-08-14T12:22:38.000Z</time>
      </trkpt>
      <trkpt lat="44.86967" lon="4.21896">
        <ele>1221</ele>
        <time>2018-08-14T12:22:56.000Z</time>
      </trkpt>
      <trkpt lat="44.86966" lon="4.21901">
        <ele>1221</ele>
        <time>2018-08-14T12:22:57.000Z</time>
      </trkpt>
      <trkpt lat="44.86954" lon="4.21947">
        <ele>1216</ele>
        <time>2018-08-14T12:23:21.000Z</time>
      </trkpt>
      <trkpt lat="44.86937" lon="4.21988">
        <ele>1210</ele>
        <time>2018-08-14T12:23:48.000Z</time>
      </trkpt>
      <trkpt lat="44.86922" lon="4.22005">
        <ele>1206</ele>
        <time>2018-08-14T12:24:08.000Z</time>
      </trkpt>
      <trkpt lat="44.86914" lon="4.2201">
        <ele>1201</ele>
        <time>2018-08-14T12:24:18.000Z</time>
      </trkpt>
      <trkpt lat="44.86911" lon="4.22012">
        <ele>1201</ele>
        <time>2018-08-14T12:24:19.000Z</time>
      </trkpt>
      <trkpt lat="44.86902" lon="4.22032">
        <ele>1195</ele>
        <time>2018-08-14T12:24:34.000Z</time>
      </trkpt>
      <trkpt lat="44.86901" lon="4.22037">
        <ele>1191</ele>
        <time>2018-08-14T12:25:12.000Z</time>
      </trkpt>
      <trkpt lat="44.869" lon="4.22041">
        <ele>1191</ele>
        <time>2018-08-14T12:25:13.000Z</time>
      </trkpt>
      <trkpt lat="44.869" lon="4.22087">
        <ele>1189</ele>
        <time>2018-08-14T12:25:27.000Z</time>
      </trkpt>
      <trkpt lat="44.86906" lon="4.22096">
        <ele>1187</ele>
        <time>2018-08-14T12:25:36.000Z</time>
      </trkpt>
      <trkpt lat="44.8691" lon="4.22101">
        <ele>1184</ele>
        <time>2018-08-14T12:25:56.000Z</time>
      </trkpt>
      <trkpt lat="44.86913" lon="4.22103">
        <ele>1184</ele>
        <time>2018-08-14T12:25:57.000Z</time>
      </trkpt>
      <trkpt lat="44.86933" lon="4.22142">
        <ele>1182</ele>
        <time>2018-08-14T12:26:09.000Z</time>
      </trkpt>
      <trkpt lat="44.86926" lon="4.22188">
        <ele>1179</ele>
        <time>2018-08-14T12:26:39.000Z</time>
      </trkpt>
      <trkpt lat="44.86917" lon="4.22236">
        <ele>1176</ele>
        <time>2018-08-14T12:27:07.000Z</time>
      </trkpt>
      <trkpt lat="44.86916" lon="4.22244">
        <ele>1176</ele>
        <time>2018-08-14T12:27:13.000Z</time>
      </trkpt>
      <trkpt lat="44.86915" lon="4.22247">
        <ele>1177</ele>
        <time>2018-08-14T12:27:28.000Z</time>
      </trkpt>
      <trkpt lat="44.86914" lon="4.22249">
        <ele>1177</ele>
        <time>2018-08-14T12:27:29.000Z</time>
      </trkpt>
      <trkpt lat="44.86898" lon="4.22292">
        <ele>1179</ele>
        <time>2018-08-14T12:27:46.000Z</time>
      </trkpt>
      <trkpt lat="44.86883" lon="4.22334">
        <ele>1177</ele>
        <time>2018-08-14T12:28:14.000Z</time>
      </trkpt>
      <trkpt lat="44.86856" lon="4.22361">
        <ele>1175</ele>
        <time>2018-08-14T12:28:36.000Z</time>
      </trkpt>
      <trkpt lat="44.86828" lon="4.2239">
        <ele>1177</ele>
        <time>2018-08-14T12:29:01.000Z</time>
      </trkpt>
      <trkpt lat="44.86808" lon="4.22393">
        <ele>1180</ele>
        <time>2018-08-14T12:29:17.000Z</time>
      </trkpt>
      <trkpt lat="44.86806" lon="4.22404">
        <ele>1184</ele>
        <time>2018-08-14T12:29:45.000Z</time>
      </trkpt>
      <trkpt lat="44.86805" lon="4.22409">
        <ele>1184</ele>
        <time>2018-08-14T12:29:46.000Z</time>
      </trkpt>
      <trkpt lat="44.86799" lon="4.22452">
        <ele>1185</ele>
        <time>2018-08-14T12:30:12.000Z</time>
      </trkpt>
      <trkpt lat="44.86798" lon="4.22454">
        <ele>1187</ele>
        <time>2018-08-14T12:30:38.000Z</time>
      </trkpt>
      <trkpt lat="44.86797" lon="4.22456">
        <ele>1187</ele>
        <time>2018-08-14T12:30:39.000Z</time>
      </trkpt>
      <trkpt lat="44.86786" lon="4.22498">
        <ele>1187</ele>
        <time>2018-08-14T12:30:53.000Z</time>
      </trkpt>
      <trkpt lat="44.86765" lon="4.22537">
        <ele>1190</ele>
        <time>2018-08-14T12:31:25.000Z</time>
      </trkpt>
      <trkpt lat="44.86764" lon="4.22538">
        <ele>1190</ele>
        <time>2018-08-14T12:31:26.000Z</time>
      </trkpt>
      <trkpt lat="44.86763" lon="4.22542">
        <ele>1192</ele>
        <time>2018-08-14T12:32:12.000Z</time>
      </trkpt>
      <trkpt lat="44.86761" lon="4.22546">
        <ele>1192</ele>
        <time>2018-08-14T12:32:13.000Z</time>
      </trkpt>
      <trkpt lat="44.86745" lon="4.22587">
        <ele>1193</ele>
        <time>2018-08-14T12:32:27.000Z</time>
      </trkpt>
      <trkpt lat="44.86731" lon="4.22632">
        <ele>1192</ele>
        <time>2018-08-14T12:32:56.000Z</time>
      </trkpt>
      <trkpt lat="44.86715" lon="4.22668">
        <ele>1192</ele>
        <time>2018-08-14T12:33:24.000Z</time>
      </trkpt>
      <trkpt lat="44.86714" lon="4.22674">
        <ele>1190</ele>
        <time>2018-08-14T12:33:45.000Z</time>
      </trkpt>
      <trkpt lat="44.86713" lon="4.22678">
        <ele>1190</ele>
        <time>2018-08-14T12:33:46.000Z</time>
      </trkpt>
      <trkpt lat="44.8672" lon="4.22701">
        <ele>1190</ele>
        <time>2018-08-14T12:34:00.000Z</time>
      </trkpt>
      <trkpt lat="44.86723" lon="4.22701">
        <ele>1190</ele>
        <time>2018-08-14T12:34:11.000Z</time>
      </trkpt>
      <trkpt lat="44.86725" lon="4.22701">
        <ele>1190</ele>
        <time>2018-08-14T12:34:12.000Z</time>
      </trkpt>
      <trkpt lat="44.86759" lon="4.22685">
        <ele>1189</ele>
        <time>2018-08-14T12:34:33.000Z</time>
      </trkpt>
      <trkpt lat="44.86789" lon="4.22658">
        <ele>1189</ele>
        <time>2018-08-14T12:35:02.000Z</time>
      </trkpt>
      <trkpt lat="44.86821" lon="4.22635">
        <ele>1190</ele>
        <time>2018-08-14T12:35:31.000Z</time>
      </trkpt>
      <trkpt lat="44.86828" lon="4.22619">
        <ele>1192</ele>
        <time>2018-08-14T12:35:49.000Z</time>
      </trkpt>
      <trkpt lat="44.86835" lon="4.22614">
        <ele>1194</ele>
        <time>2018-08-14T12:36:06.000Z</time>
      </trkpt>
      <trkpt lat="44.86838" lon="4.22611">
        <ele>1194</ele>
        <time>2018-08-14T12:36:07.000Z</time>
      </trkpt>
      <trkpt lat="44.86861" lon="4.22609">
        <ele>1197</ele>
        <time>2018-08-14T12:36:24.000Z</time>
      </trkpt>
      <trkpt lat="44.86867" lon="4.22613">
        <ele>1198</ele>
        <time>2018-08-14T12:36:58.000Z</time>
      </trkpt>
      <trkpt lat="44.8687" lon="4.22616">
        <ele>1198</ele>
        <time>2018-08-14T12:36:59.000Z</time>
      </trkpt>
      <trkpt lat="44.8689" lon="4.22637">
        <ele>1198</ele>
        <time>2018-08-14T12:37:15.000Z</time>
      </trkpt>
      <trkpt lat="44.86884" lon="4.2263">
        <ele>1193</ele>
        <time>2018-08-14T12:46:19.000Z</time>
      </trkpt>
      <trkpt lat="44.8688" lon="4.22627">
        <ele>1193</ele>
        <time>2018-08-14T12:46:20.000Z</time>
      </trkpt>
      <trkpt lat="44.86848" lon="4.22607">
        <ele>1196</ele>
        <time>2018-08-14T12:46:42.000Z</time>
      </trkpt>
      <trkpt lat="44.86813" lon="4.22613">
        <ele>1199</ele>
        <time>2018-08-14T12:47:12.000Z</time>
      </trkpt>
      <trkpt lat="44.868" lon="4.22607">
        <ele>1199</ele>
        <time>2018-08-14T12:47:22.000Z</time>
      </trkpt>
      <trkpt lat="44.8678" lon="4.22633">
        <ele>1201</ele>
        <time>2018-08-14T12:47:45.000Z</time>
      </trkpt>
      <trkpt lat="44.86749" lon="4.22656">
        <ele>1201</ele>
        <time>2018-08-14T12:48:17.000Z</time>
      </trkpt>
      <trkpt lat="44.86728" lon="4.22691">
        <ele>1199</ele>
        <time>2018-08-14T12:48:51.000Z</time>
      </trkpt>
      <trkpt lat="44.86724" lon="4.22693">
        <ele>1198</ele>
        <time>2018-08-14T12:49:27.000Z</time>
      </trkpt>
      <trkpt lat="44.86721" lon="4.22695">
        <ele>1198</ele>
        <time>2018-08-14T12:49:28.000Z</time>
      </trkpt>
      <trkpt lat="44.8672" lon="4.22696">
        <ele>1198</ele>
        <time>2018-08-14T12:49:29.000Z</time>
      </trkpt>
      <trkpt lat="44.86715" lon="4.22694">
        <ele>1194</ele>
        <time>2018-08-14T12:49:49.000Z</time>
      </trkpt>
      <trkpt lat="44.86713" lon="4.22693">
        <ele>1194</ele>
        <time>2018-08-14T12:49:50.000Z</time>
      </trkpt>
      <trkpt lat="44.86703" lon="4.22687">
        <ele>1194</ele>
        <time>2018-08-14T12:49:51.000Z</time>
      </trkpt>
      <trkpt lat="44.867" lon="4.22678">
        <ele>1193</ele>
        <time>2018-08-14T12:50:00.000Z</time>
      </trkpt>
      <trkpt lat="44.86698" lon="4.22678">
        <ele>1186</ele>
        <time>2018-08-14T12:51:15.000Z</time>
      </trkpt>
      <trkpt lat="44.86696" lon="4.22678">
        <ele>1186</ele>
        <time>2018-08-14T12:51:16.000Z</time>
      </trkpt>
      <trkpt lat="44.86663" lon="4.22685">
        <ele>1184</ele>
        <time>2018-08-14T12:51:35.000Z</time>
      </trkpt>
      <trkpt lat="44.86662" lon="4.22685">
        <ele>1183</ele>
        <time>2018-08-14T12:51:38.000Z</time>
      </trkpt>
      <trkpt lat="44.86651" lon="4.2268">
        <ele>1178</ele>
        <time>2018-08-14T12:51:55.000Z</time>
      </trkpt>
      <trkpt lat="44.86647" lon="4.22678">
        <ele>1178</ele>
        <time>2018-08-14T12:51:56.000Z</time>
      </trkpt>
      <trkpt lat="44.86634" lon="4.22681">
        <ele>1176</ele>
        <time>2018-08-14T12:52:04.000Z</time>
      </trkpt>
      <trkpt lat="44.86625" lon="4.22697">
        <ele>1172</ele>
        <time>2018-08-14T12:52:26.000Z</time>
      </trkpt>
      <trkpt lat="44.86621" lon="4.22704">
        <ele>1172</ele>
        <time>2018-08-14T12:52:27.000Z</time>
      </trkpt>
      <trkpt lat="44.86608" lon="4.22724">
        <ele>1169</ele>
        <time>2018-08-14T12:52:41.000Z</time>
      </trkpt>
      <trkpt lat="44.86601" lon="4.22729">
        <ele>1166</ele>
        <time>2018-08-14T12:53:03.000Z</time>
      </trkpt>
      <trkpt lat="44.86597" lon="4.22731">
        <ele>1166</ele>
        <time>2018-08-14T12:53:04.000Z</time>
      </trkpt>
      <trkpt lat="44.86588" lon="4.22739">
        <ele>1166</ele>
        <time>2018-08-14T12:53:08.000Z</time>
      </trkpt>
      <trkpt lat="44.86585" lon="4.22744">
        <ele>1162</ele>
        <time>2018-08-14T12:53:23.000Z</time>
      </trkpt>
      <trkpt lat="44.86583" lon="4.22748">
        <ele>1162</ele>
        <time>2018-08-14T12:53:24.000Z</time>
      </trkpt>
      <trkpt lat="44.86575" lon="4.22759">
        <ele>1160</ele>
        <time>2018-08-14T12:53:32.000Z</time>
      </trkpt>
      <trkpt lat="44.86573" lon="4.22759">
        <ele>1157</ele>
        <time>2018-08-14T12:54:22.000Z</time>
      </trkpt>
      <trkpt lat="44.86571" lon="4.2276">
        <ele>1157</ele>
        <time>2018-08-14T12:54:23.000Z</time>
      </trkpt>
      <trkpt lat="44.8657" lon="4.22761">
        <ele>1157</ele>
        <time>2018-08-14T12:54:24.000Z</time>
      </trkpt>
      <trkpt lat="44.86561" lon="4.22765">
        <ele>1157</ele>
        <time>2018-08-14T12:54:28.000Z</time>
      </trkpt>
      <trkpt lat="44.86556" lon="4.22767">
        <ele>1157</ele>
        <time>2018-08-14T12:54:29.000Z</time>
      </trkpt>
      <trkpt lat="44.86546" lon="4.22772">
        <ele>1156</ele>
        <time>2018-08-14T12:54:32.000Z</time>
      </trkpt>
      <trkpt lat="44.86543" lon="4.22773">
        <ele>1149</ele>
        <time>2018-08-14T12:54:51.000Z</time>
      </trkpt>
      <trkpt lat="44.86542" lon="4.22773">
        <ele>1149</ele>
        <time>2018-08-14T12:54:52.000Z</time>
      </trkpt>
      <trkpt lat="44.8654" lon="4.22774">
        <ele>1149</ele>
        <time>2018-08-14T12:54:54.000Z</time>
      </trkpt>
      <trkpt lat="44.86539" lon="4.22774">
        <ele>1148</ele>
        <time>2018-08-14T12:54:57.000Z</time>
      </trkpt>
      <trkpt lat="44.86538" lon="4.22774">
        <ele>1148</ele>
        <time>2018-08-14T12:54:58.000Z</time>
      </trkpt>
      <trkpt lat="44.86528" lon="4.22785">
        <ele>1143</ele>
        <time>2018-08-14T12:55:04.000Z</time>
      </trkpt>
      <trkpt lat="44.86522" lon="4.22793">
        <ele>1138</ele>
        <time>2018-08-14T12:55:14.000Z</time>
      </trkpt>
      <trkpt lat="44.8652" lon="4.22796">
        <ele>1138</ele>
        <time>2018-08-14T12:55:15.000Z</time>
      </trkpt>
      <trkpt lat="44.86486" lon="4.22806">
        <ele>1134</ele>
        <time>2018-08-14T12:55:37.000Z</time>
      </trkpt>
      <trkpt lat="44.86484" lon="4.22807">
        <ele>1134</ele>
        <time>2018-08-14T12:55:40.000Z</time>
      </trkpt>
      <trkpt lat="44.86481" lon="4.22806">
        <ele>1132</ele>
        <time>2018-08-14T12:55:59.000Z</time>
      </trkpt>
      <trkpt lat="44.86479" lon="4.22806">
        <ele>1132</ele>
        <time>2018-08-14T12:56:00.000Z</time>
      </trkpt>
      <trkpt lat="44.86477" lon="4.22806">
        <ele>1131</ele>
        <time>2018-08-14T12:56:01.000Z</time>
      </trkpt>
      <trkpt lat="44.86475" lon="4.22807">
        <ele>1130</ele>
        <time>2018-08-14T12:56:11.000Z</time>
      </trkpt>
      <trkpt lat="44.86473" lon="4.22807">
        <ele>1130</ele>
        <time>2018-08-14T12:56:12.000Z</time>
      </trkpt>
      <trkpt lat="44.86463" lon="4.22811">
        <ele>1130</ele>
        <time>2018-08-14T12:56:16.000Z</time>
      </trkpt>
      <trkpt lat="44.86462" lon="4.22811">
        <ele>1125</ele>
        <time>2018-08-14T12:56:34.000Z</time>
      </trkpt>
      <trkpt lat="44.8646" lon="4.22812">
        <ele>1125</ele>
        <time>2018-08-14T12:56:35.000Z</time>
      </trkpt>
      <trkpt lat="44.8643" lon="4.22826">
        <ele>1124</ele>
        <time>2018-08-14T12:56:44.000Z</time>
      </trkpt>
      <trkpt lat="44.86427" lon="4.22829">
        <ele>1119</ele>
        <time>2018-08-14T12:57:12.000Z</time>
      </trkpt>
      <trkpt lat="44.86425" lon="4.2283">
        <ele>1119</ele>
        <time>2018-08-14T12:57:13.000Z</time>
      </trkpt>
      <trkpt lat="44.86422" lon="4.22833">
        <ele>1119</ele>
        <time>2018-08-14T12:57:15.000Z</time>
      </trkpt>
      <trkpt lat="44.86421" lon="4.22834">
        <ele>1118</ele>
        <time>2018-08-14T12:57:23.000Z</time>
      </trkpt>
      <trkpt lat="44.8642" lon="4.22834">
        <ele>1118</ele>
        <time>2018-08-14T12:57:24.000Z</time>
      </trkpt>
      <trkpt lat="44.86398" lon="4.2287">
        <ele>1113</ele>
        <time>2018-08-14T12:57:41.000Z</time>
      </trkpt>
      <trkpt lat="44.86367" lon="4.22892">
        <ele>1105</ele>
        <time>2018-08-14T12:58:12.000Z</time>
      </trkpt>
      <trkpt lat="44.86362" lon="4.22895">
        <ele>1103</ele>
        <time>2018-08-14T12:58:19.000Z</time>
      </trkpt>
      <trkpt lat="44.86358" lon="4.22898">
        <ele>1100</ele>
        <time>2018-08-14T12:58:40.000Z</time>
      </trkpt>
      <trkpt lat="44.86356" lon="4.229">
        <ele>1100</ele>
        <time>2018-08-14T12:58:41.000Z</time>
      </trkpt>
      <trkpt lat="44.86328" lon="4.22927">
        <ele>1098</ele>
        <time>2018-08-14T12:58:59.000Z</time>
      </trkpt>
      <trkpt lat="44.86325" lon="4.22932">
        <ele>1097</ele>
        <time>2018-08-14T12:59:04.000Z</time>
      </trkpt>
      <trkpt lat="44.86317" lon="4.22939">
        <ele>1093</ele>
        <time>2018-08-14T12:59:25.000Z</time>
      </trkpt>
      <trkpt lat="44.86313" lon="4.22942">
        <ele>1093</ele>
        <time>2018-08-14T12:59:26.000Z</time>
      </trkpt>
      <trkpt lat="44.863" lon="4.22956">
        <ele>1093</ele>
        <time>2018-08-14T12:59:34.000Z</time>
      </trkpt>
      <trkpt lat="44.86296" lon="4.22972">
        <ele>1091</ele>
        <time>2018-08-14T12:59:49.000Z</time>
      </trkpt>
      <trkpt lat="44.86296" lon="4.22977">
        <ele>1091</ele>
        <time>2018-08-14T12:59:50.000Z</time>
      </trkpt>
      <trkpt lat="44.86285" lon="4.22998">
        <ele>1089</ele>
        <time>2018-08-14T13:00:05.000Z</time>
      </trkpt>
      <trkpt lat="44.86283" lon="4.23">
        <ele>1087</ele>
        <time>2018-08-14T13:00:29.000Z</time>
      </trkpt>
      <trkpt lat="44.86281" lon="4.23001">
        <ele>1087</ele>
        <time>2018-08-14T13:00:30.000Z</time>
      </trkpt>
      <trkpt lat="44.86269" lon="4.23019">
        <ele>1085</ele>
        <time>2018-08-14T13:00:37.000Z</time>
      </trkpt>
      <trkpt lat="44.8626" lon="4.23019">
        <ele>1079</ele>
        <time>2018-08-14T13:01:09.000Z</time>
      </trkpt>
      <trkpt lat="44.86255" lon="4.23019">
        <ele>1079</ele>
        <time>2018-08-14T13:01:10.000Z</time>
      </trkpt>
      <trkpt lat="44.86229" lon="4.23015">
        <ele>1078</ele>
        <time>2018-08-14T13:01:15.000Z</time>
      </trkpt>
      <trkpt lat="44.8622" lon="4.23014">
        <ele>1061</ele>
        <time>2018-08-14T13:02:37.000Z</time>
      </trkpt>
      <trkpt lat="44.86216" lon="4.23014">
        <ele>1061</ele>
        <time>2018-08-14T13:02:38.000Z</time>
      </trkpt>
      <trkpt lat="44.86214" lon="4.23013">
        <ele>1061</ele>
        <time>2018-08-14T13:02:39.000Z</time>
      </trkpt>
      <trkpt lat="44.86213" lon="4.2301">
        <ele>1051</ele>
        <time>2018-08-14T13:03:57.000Z</time>
      </trkpt>
      <trkpt lat="44.86211" lon="4.23007">
        <ele>1051</ele>
        <time>2018-08-14T13:03:58.000Z</time>
      </trkpt>
      <trkpt lat="44.8621" lon="4.23005">
        <ele>1051</ele>
        <time>2018-08-14T13:04:00.000Z</time>
      </trkpt>
      <trkpt lat="44.8621" lon="4.23004">
        <ele>1048</ele>
        <time>2018-08-14T13:04:12.000Z</time>
      </trkpt>
      <trkpt lat="44.86209" lon="4.23003">
        <ele>1048</ele>
        <time>2018-08-14T13:04:13.000Z</time>
      </trkpt>
      <trkpt lat="44.86207" lon="4.23">
        <ele>1047</ele>
        <time>2018-08-14T13:04:16.000Z</time>
      </trkpt>
      <trkpt lat="44.86198" lon="4.22983">
        <ele>1035</ele>
        <time>2018-08-14T13:05:45.000Z</time>
      </trkpt>
      <trkpt lat="44.86193" lon="4.22975">
        <ele>1035</ele>
        <time>2018-08-14T13:05:46.000Z</time>
      </trkpt>
      <trkpt lat="44.86176" lon="4.22952">
        <ele>1035</ele>
        <time>2018-08-14T13:05:52.000Z</time>
      </trkpt>
      <trkpt lat="44.86172" lon="4.22952">
        <ele>1026</ele>
        <time>2018-08-14T13:06:24.000Z</time>
      </trkpt>
      <trkpt lat="44.8617" lon="4.22951">
        <ele>1026</ele>
        <time>2018-08-14T13:06:25.000Z</time>
      </trkpt>
      <trkpt lat="44.8615" lon="4.22945">
        <ele>1025</ele>
        <time>2018-08-14T13:06:31.000Z</time>
      </trkpt>
      <trkpt lat="44.86145" lon="4.22936">
        <ele>1002</ele>
        <time>2018-08-14T13:08:38.000Z</time>
      </trkpt>
      <trkpt lat="44.86142" lon="4.22932">
        <ele>1002</ele>
        <time>2018-08-14T13:08:39.000Z</time>
      </trkpt>
      <trkpt lat="44.86141" lon="4.22929">
        <ele>1001</ele>
        <time>2018-08-14T13:08:40.000Z</time>
      </trkpt>
      <trkpt lat="44.8614" lon="4.22929">
        <ele>995</ele>
        <time>2018-08-14T13:09:26.000Z</time>
      </trkpt>
      <trkpt lat="44.86139" lon="4.22929">
        <ele>995</ele>
        <time>2018-08-14T13:09:27.000Z</time>
      </trkpt>
      <trkpt lat="44.86113" lon="4.22922">
        <ele>994</ele>
        <time>2018-08-14T13:09:35.000Z</time>
      </trkpt>
      <trkpt lat="44.86111" lon="4.22926">
        <ele>983</ele>
        <time>2018-08-14T13:11:05.000Z</time>
      </trkpt>
      <trkpt lat="44.86111" lon="4.22929">
        <ele>983</ele>
        <time>2018-08-14T13:11:06.000Z</time>
      </trkpt>
      <trkpt lat="44.8611" lon="4.22933">
        <ele>983</ele>
        <time>2018-08-14T13:11:09.000Z</time>
      </trkpt>
      <trkpt lat="44.86108" lon="4.2293">
        <ele>976</ele>
        <time>2018-08-14T13:12:25.000Z</time>
      </trkpt>
      <trkpt lat="44.86107" lon="4.22928">
        <ele>976</ele>
        <time>2018-08-14T13:12:26.000Z</time>
      </trkpt>
      <trkpt lat="44.86105" lon="4.22922">
        <ele>975</ele>
        <time>2018-08-14T13:12:30.000Z</time>
      </trkpt>
      <trkpt lat="44.86101" lon="4.2291">
        <ele>975</ele>
        <time>2018-08-14T13:12:32.000Z</time>
      </trkpt>
      <trkpt lat="44.861" lon="4.22906">
        <ele>975</ele>
        <time>2018-08-14T13:12:33.000Z</time>
      </trkpt>
      <trkpt lat="44.86099" lon="4.22882">
        <ele>974</ele>
        <time>2018-08-14T13:12:39.000Z</time>
      </trkpt>
      <trkpt lat="44.861" lon="4.22876">
        <ele>975</ele>
        <time>2018-08-14T13:13:12.000Z</time>
      </trkpt>
      <trkpt lat="44.861" lon="4.22873">
        <ele>975</ele>
        <time>2018-08-14T13:13:13.000Z</time>
      </trkpt>
      <trkpt lat="44.861" lon="4.22871">
        <ele>975</ele>
        <time>2018-08-14T13:13:14.000Z</time>
      </trkpt>
      <trkpt lat="44.861" lon="4.22869">
        <ele>975</ele>
        <time>2018-08-14T13:13:25.000Z</time>
      </trkpt>
      <trkpt lat="44.86101" lon="4.22868">
        <ele>975</ele>
        <time>2018-08-14T13:13:26.000Z</time>
      </trkpt>
      <trkpt lat="44.86102" lon="4.22866">
        <ele>975</ele>
        <time>2018-08-14T13:13:29.000Z</time>
      </trkpt>
      <trkpt lat="44.86102" lon="4.22864">
        <ele>975</ele>
        <time>2018-08-14T13:13:31.000Z</time>
      </trkpt>
      <trkpt lat="44.86102" lon="4.22863">
        <ele>975</ele>
        <time>2018-08-14T13:13:32.000Z</time>
      </trkpt>
      <trkpt lat="44.86108" lon="4.22841">
        <ele>975</ele>
        <time>2018-08-14T13:13:36.000Z</time>
      </trkpt>
      <trkpt lat="44.8611" lon="4.22835">
        <ele>973</ele>
        <time>2018-08-14T13:13:50.000Z</time>
      </trkpt>
      <trkpt lat="44.86111" lon="4.2283">
        <ele>973</ele>
        <time>2018-08-14T13:13:51.000Z</time>
      </trkpt>
      <trkpt lat="44.86119" lon="4.22798">
        <ele>972</ele>
        <time>2018-08-14T13:14:04.000Z</time>
      </trkpt>
      <trkpt lat="44.86107" lon="4.22803">
        <ele>974</ele>
        <time>2018-08-14T13:14:53.000Z</time>
      </trkpt>
      <trkpt lat="44.86103" lon="4.22805">
        <ele>974</ele>
        <time>2018-08-14T13:14:54.000Z</time>
      </trkpt>
      <trkpt lat="44.86095" lon="4.2281">
        <ele>974</ele>
        <time>2018-08-14T13:14:59.000Z</time>
      </trkpt>
      <trkpt lat="44.86092" lon="4.22811">
        <ele>974</ele>
        <time>2018-08-14T13:15:15.000Z</time>
      </trkpt>
      <trkpt lat="44.8609" lon="4.22812">
        <ele>974</ele>
        <time>2018-08-14T13:15:16.000Z</time>
      </trkpt>
      <trkpt lat="44.86068" lon="4.22812">
        <ele>973</ele>
        <time>2018-08-14T13:15:26.000Z</time>
      </trkpt>
      <trkpt lat="44.86054" lon="4.22818">
        <ele>972</ele>
        <time>2018-08-14T13:15:50.000Z</time>
      </trkpt>
      <trkpt lat="44.86051" lon="4.22819">
        <ele>972</ele>
        <time>2018-08-14T13:15:51.000Z</time>
      </trkpt>
      <trkpt lat="44.86049" lon="4.2282">
        <ele>972</ele>
        <time>2018-08-14T13:15:53.000Z</time>
      </trkpt>
      <trkpt lat="44.86048" lon="4.22821">
        <ele>972</ele>
        <time>2018-08-14T13:16:13.000Z</time>
      </trkpt>
      <trkpt lat="44.86047" lon="4.22823">
        <ele>972</ele>
        <time>2018-08-14T13:16:14.000Z</time>
      </trkpt>
      <trkpt lat="44.86026" lon="4.22838">
        <ele>968</ele>
        <time>2018-08-14T13:16:24.000Z</time>
      </trkpt>
      <trkpt lat="44.86023" lon="4.22839">
        <ele>967</ele>
        <time>2018-08-14T13:16:41.000Z</time>
      </trkpt>
      <trkpt lat="44.8602" lon="4.22839">
        <ele>967</ele>
        <time>2018-08-14T13:16:42.000Z</time>
      </trkpt>
      <trkpt lat="44.86005" lon="4.22841">
        <ele>967</ele>
        <time>2018-08-14T13:16:49.000Z</time>
      </trkpt>
      <trkpt lat="44.85994" lon="4.22835">
        <ele>965</ele>
        <time>2018-08-14T13:17:10.000Z</time>
      </trkpt>
      <trkpt lat="44.8599" lon="4.22833">
        <ele>965</ele>
        <time>2018-08-14T13:17:11.000Z</time>
      </trkpt>
      <trkpt lat="44.85973" lon="4.22822">
        <ele>964</ele>
        <time>2018-08-14T13:17:21.000Z</time>
      </trkpt>
      <trkpt lat="44.8597" lon="4.22823">
        <ele>964</ele>
        <time>2018-08-14T13:18:11.000Z</time>
      </trkpt>
      <trkpt lat="44.85966" lon="4.22823">
        <ele>964</ele>
        <time>2018-08-14T13:18:12.000Z</time>
      </trkpt>
      <trkpt lat="44.85939" lon="4.22834">
        <ele>963</ele>
        <time>2018-08-14T13:18:35.000Z</time>
      </trkpt>
      <trkpt lat="44.85938" lon="4.22839">
        <ele>961</ele>
        <time>2018-08-14T13:18:55.000Z</time>
      </trkpt>
      <trkpt lat="44.85938" lon="4.22843">
        <ele>961</ele>
        <time>2018-08-14T13:18:56.000Z</time>
      </trkpt>
      <trkpt lat="44.8593" lon="4.2289">
        <ele>960</ele>
        <time>2018-08-14T13:19:16.000Z</time>
      </trkpt>
      <trkpt lat="44.85928" lon="4.22904">
        <ele>961</ele>
        <time>2018-08-14T13:19:27.000Z</time>
      </trkpt>
      <trkpt lat="44.85928" lon="4.2291">
        <ele>961</ele>
        <time>2018-08-14T13:19:44.000Z</time>
      </trkpt>
      <trkpt lat="44.85928" lon="4.22914">
        <ele>961</ele>
        <time>2018-08-14T13:19:45.000Z</time>
      </trkpt>
      <trkpt lat="44.85928" lon="4.22916">
        <ele>961</ele>
        <time>2018-08-14T13:19:46.000Z</time>
      </trkpt>
      <trkpt lat="44.85929" lon="4.22919">
        <ele>962</ele>
        <time>2018-08-14T13:19:52.000Z</time>
      </trkpt>
      <trkpt lat="44.85929" lon="4.22922">
        <ele>962</ele>
        <time>2018-08-14T13:19:53.000Z</time>
      </trkpt>
      <trkpt lat="44.85935" lon="4.22971">
        <ele>958</ele>
        <time>2018-08-14T13:20:07.000Z</time>
      </trkpt>
      <trkpt lat="44.85925" lon="4.22988">
        <ele>957</ele>
        <time>2018-08-14T13:20:24.000Z</time>
      </trkpt>
      <trkpt lat="44.85916" lon="4.23006">
        <ele>957</ele>
        <time>2018-08-14T13:20:36.000Z</time>
      </trkpt>
      <trkpt lat="44.85914" lon="4.23009">
        <ele>957</ele>
        <time>2018-08-14T13:20:37.000Z</time>
      </trkpt>
      <trkpt lat="44.85888" lon="4.23042">
        <ele>956</ele>
        <time>2018-08-14T13:21:09.000Z</time>
      </trkpt>
      <trkpt lat="44.85884" lon="4.23091">
        <ele>957</ele>
        <time>2018-08-14T13:21:45.000Z</time>
      </trkpt>
      <trkpt lat="44.85863" lon="4.23131">
        <ele>960</ele>
        <time>2018-08-14T13:22:20.000Z</time>
      </trkpt>
      <trkpt lat="44.85853" lon="4.23139">
        <ele>960</ele>
        <time>2018-08-14T13:22:32.000Z</time>
      </trkpt>
      <trkpt lat="44.85846" lon="4.23127">
        <ele>962</ele>
        <time>2018-08-14T13:22:48.000Z</time>
      </trkpt>
      <trkpt lat="44.85844" lon="4.2312">
        <ele>966</ele>
        <time>2018-08-14T13:23:03.000Z</time>
      </trkpt>
      <trkpt lat="44.85844" lon="4.23115">
        <ele>966</ele>
        <time>2018-08-14T13:23:04.000Z</time>
      </trkpt>
      <trkpt lat="44.85839" lon="4.23089">
        <ele>966</ele>
        <time>2018-08-14T13:23:17.000Z</time>
      </trkpt>
      <trkpt lat="44.85837" lon="4.23087">
        <ele>967</ele>
        <time>2018-08-14T13:24:32.000Z</time>
      </trkpt>
      <trkpt lat="44.85836" lon="4.23085">
        <ele>967</ele>
        <time>2018-08-14T13:24:33.000Z</time>
      </trkpt>
      <trkpt lat="44.85822" lon="4.23046">
        <ele>965</ele>
        <time>2018-08-14T13:24:51.000Z</time>
      </trkpt>
      <trkpt lat="44.85824" lon="4.23009">
        <ele>963</ele>
        <time>2018-08-14T13:25:15.000Z</time>
      </trkpt>
      <trkpt lat="44.85826" lon="4.23003">
        <ele>965</ele>
        <time>2018-08-14T13:25:42.000Z</time>
      </trkpt>
      <trkpt lat="44.85826" lon="4.22999">
        <ele>965</ele>
        <time>2018-08-14T13:25:43.000Z</time>
      </trkpt>
      <trkpt lat="44.85829" lon="4.22951">
        <ele>968</ele>
        <time>2018-08-14T13:26:06.000Z</time>
      </trkpt>
      <trkpt lat="44.8583" lon="4.22903">
        <ele>972</ele>
        <time>2018-08-14T13:26:38.000Z</time>
      </trkpt>
      <trkpt lat="44.8583" lon="4.22896">
        <ele>973</ele>
        <time>2018-08-14T13:26:43.000Z</time>
      </trkpt>
      <trkpt lat="44.85829" lon="4.22894">
        <ele>975</ele>
        <time>2018-08-14T13:27:03.000Z</time>
      </trkpt>
      <trkpt lat="44.85829" lon="4.22892">
        <ele>975</ele>
        <time>2018-08-14T13:27:04.000Z</time>
      </trkpt>
      <trkpt lat="44.85829" lon="4.22888">
        <ele>975</ele>
        <time>2018-08-14T13:27:07.000Z</time>
      </trkpt>
      <trkpt lat="44.85829" lon="4.22878">
        <ele>976</ele>
        <time>2018-08-14T13:27:10.000Z</time>
      </trkpt>
      <trkpt lat="44.85829" lon="4.22873">
        <ele>976</ele>
        <time>2018-08-14T13:27:11.000Z</time>
      </trkpt>
      <trkpt lat="44.8583" lon="4.22871">
        <ele>976</ele>
        <time>2018-08-14T13:27:12.000Z</time>
      </trkpt>
      <trkpt lat="44.8583" lon="4.22868">
        <ele>977</ele>
        <time>2018-08-14T13:27:25.000Z</time>
      </trkpt>
      <trkpt lat="44.8583" lon="4.22866">
        <ele>977</ele>
        <time>2018-08-14T13:27:26.000Z</time>
      </trkpt>
      <trkpt lat="44.85835" lon="4.22824">
        <ele>978</ele>
        <time>2018-08-14T13:27:42.000Z</time>
      </trkpt>
      <trkpt lat="44.85843" lon="4.22784">
        <ele>981</ele>
        <time>2018-08-14T13:28:06.000Z</time>
      </trkpt>
      <trkpt lat="44.85842" lon="4.22776">
        <ele>982</ele>
        <time>2018-08-14T13:28:21.000Z</time>
      </trkpt>
      <trkpt lat="44.85841" lon="4.22772">
        <ele>982</ele>
        <time>2018-08-14T13:28:22.000Z</time>
      </trkpt>
      <trkpt lat="44.85841" lon="4.22747">
        <ele>983</ele>
        <time>2018-08-14T13:28:30.000Z</time>
      </trkpt>
      <trkpt lat="44.85841" lon="4.22743">
        <ele>986</ele>
        <time>2018-08-14T13:28:46.000Z</time>
      </trkpt>
      <trkpt lat="44.8584" lon="4.22741">
        <ele>986</ele>
        <time>2018-08-14T13:28:47.000Z</time>
      </trkpt>
      <trkpt lat="44.85831" lon="4.22697">
        <ele>987</ele>
        <time>2018-08-14T13:28:59.000Z</time>
      </trkpt>
      <trkpt lat="44.8583" lon="4.22693">
        <ele>989</ele>
        <time>2018-08-14T13:29:18.000Z</time>
      </trkpt>
      <trkpt lat="44.85828" lon="4.22691">
        <ele>989</ele>
        <time>2018-08-14T13:29:19.000Z</time>
      </trkpt>
      <trkpt lat="44.8582" lon="4.2267">
        <ele>990</ele>
        <time>2018-08-14T13:29:24.000Z</time>
      </trkpt>
      <trkpt lat="44.8582" lon="4.22668">
        <ele>991</ele>
        <time>2018-08-14T13:29:36.000Z</time>
      </trkpt>
      <trkpt lat="44.8582" lon="4.22666">
        <ele>991</ele>
        <time>2018-08-14T13:29:37.000Z</time>
      </trkpt>
      <trkpt lat="44.85812" lon="4.2262">
        <ele>993</ele>
        <time>2018-08-14T13:29:53.000Z</time>
      </trkpt>
      <trkpt lat="44.85808" lon="4.22606">
        <ele>994</ele>
        <time>2018-08-14T13:30:05.000Z</time>
      </trkpt>
      <trkpt lat="44.85805" lon="4.22599">
        <ele>994</ele>
        <time>2018-08-14T13:30:32.000Z</time>
      </trkpt>
      <trkpt lat="44.85803" lon="4.22595">
        <ele>994</ele>
        <time>2018-08-14T13:30:33.000Z</time>
      </trkpt>
      <trkpt lat="44.85798" lon="4.22582">
        <ele>995</ele>
        <time>2018-08-14T13:30:45.000Z</time>
      </trkpt>
      <trkpt lat="44.85795" lon="4.22576">
        <ele>998</ele>
        <time>2018-08-14T13:31:37.000Z</time>
      </trkpt>
      <trkpt lat="44.85793" lon="4.22571">
        <ele>998</ele>
        <time>2018-08-14T13:31:38.000Z</time>
      </trkpt>
      <trkpt lat="44.85792" lon="4.22568">
        <ele>999</ele>
        <time>2018-08-14T13:31:40.000Z</time>
      </trkpt>
      <trkpt lat="44.85788" lon="4.2256">
        <ele>999</ele>
        <time>2018-08-14T13:31:43.000Z</time>
      </trkpt>
      <trkpt lat="44.85786" lon="4.22556">
        <ele>999</ele>
        <time>2018-08-14T13:31:44.000Z</time>
      </trkpt>
      <trkpt lat="44.85778" lon="4.22542">
        <ele>999</ele>
        <time>2018-08-14T13:31:48.000Z</time>
      </trkpt>
      <trkpt lat="44.85777" lon="4.22541">
        <ele>1000</ele>
        <time>2018-08-14T13:32:05.000Z</time>
      </trkpt>
      <trkpt lat="44.85776" lon="4.2254">
        <ele>1000</ele>
        <time>2018-08-14T13:32:06.000Z</time>
      </trkpt>
      <trkpt lat="44.85764" lon="4.22521">
        <ele>999</ele>
        <time>2018-08-14T13:32:13.000Z</time>
      </trkpt>
      <trkpt lat="44.85759" lon="4.22517">
        <ele>999</ele>
        <time>2018-08-14T13:32:27.000Z</time>
      </trkpt>
      <trkpt lat="44.85756" lon="4.22515">
        <ele>999</ele>
        <time>2018-08-14T13:32:28.000Z</time>
      </trkpt>
      <trkpt lat="44.85722" lon="4.225">
        <ele>997</ele>
        <time>2018-08-14T13:32:48.000Z</time>
      </trkpt>
      <trkpt lat="44.85721" lon="4.22499">
        <ele>997</ele>
        <time>2018-08-14T13:32:51.000Z</time>
      </trkpt>
      <trkpt lat="44.8572" lon="4.22499">
        <ele>994</ele>
        <time>2018-08-14T13:33:08.000Z</time>
      </trkpt>
      <trkpt lat="44.85719" lon="4.22499">
        <ele>994</ele>
        <time>2018-08-14T13:33:09.000Z</time>
      </trkpt>
      <trkpt lat="44.85686" lon="4.225">
        <ele>991</ele>
        <time>2018-08-14T13:33:24.000Z</time>
      </trkpt>
      <trkpt lat="44.85672" lon="4.22495">
        <ele>990</ele>
        <time>2018-08-14T13:33:38.000Z</time>
      </trkpt>
      <trkpt lat="44.8566" lon="4.22491">
        <ele>992</ele>
        <time>2018-08-14T13:34:08.000Z</time>
      </trkpt>
      <trkpt lat="44.85655" lon="4.2249">
        <ele>992</ele>
        <time>2018-08-14T13:34:09.000Z</time>
      </trkpt>
      <trkpt lat="44.85632" lon="4.22484">
        <ele>993</ele>
        <time>2018-08-14T13:34:17.000Z</time>
      </trkpt>
      <trkpt lat="44.85627" lon="4.2248">
        <ele>993</ele>
        <time>2018-08-14T13:34:37.000Z</time>
      </trkpt>
      <trkpt lat="44.85624" lon="4.22478">
        <ele>993</ele>
        <time>2018-08-14T13:34:38.000Z</time>
      </trkpt>
      <trkpt lat="44.85594" lon="4.22451">
        <ele>997</ele>
        <time>2018-08-14T13:35:00.000Z</time>
      </trkpt>
      <trkpt lat="44.8558" lon="4.22441">
        <ele>999</ele>
        <time>2018-08-14T13:35:26.000Z</time>
      </trkpt>
      <trkpt lat="44.85575" lon="4.22438">
        <ele>999</ele>
        <time>2018-08-14T13:35:27.000Z</time>
      </trkpt>
      <trkpt lat="44.85566" lon="4.22432">
        <ele>1000</ele>
        <time>2018-08-14T13:35:31.000Z</time>
      </trkpt>
      <trkpt lat="44.85564" lon="4.22431">
        <ele>998</ele>
        <time>2018-08-14T13:35:47.000Z</time>
      </trkpt>
      <trkpt lat="44.85564" lon="4.2243">
        <ele>998</ele>
        <time>2018-08-14T13:35:48.000Z</time>
      </trkpt>
      <trkpt lat="44.85535" lon="4.22404">
        <ele>998</ele>
        <time>2018-08-14T13:36:06.000Z</time>
      </trkpt>
      <trkpt lat="44.85506" lon="4.2239">
        <ele>998</ele>
        <time>2018-08-14T13:36:32.000Z</time>
      </trkpt>
      <trkpt lat="44.85509" lon="4.22394">
        <ele>1005</ele>
        <time>2018-08-14T13:37:41.000Z</time>
      </trkpt>
      <trkpt lat="44.85511" lon="4.22396">
        <ele>1005</ele>
        <time>2018-08-14T13:37:42.000Z</time>
      </trkpt>
      <trkpt lat="44.85537" lon="4.22424">
        <ele>1006</ele>
        <time>2018-08-14T13:37:49.000Z</time>
      </trkpt>
      <trkpt lat="44.85553" lon="4.22453">
        <ele>1008</ele>
        <time>2018-08-14T13:38:15.000Z</time>
      </trkpt>
      <trkpt lat="44.85553" lon="4.22454">
        <ele>1009</ele>
        <time>2018-08-14T13:38:32.000Z</time>
      </trkpt>
      <trkpt lat="44.85553" lon="4.22455">
        <ele>1009</ele>
        <time>2018-08-14T13:38:33.000Z</time>
      </trkpt>
      <trkpt lat="44.85553" lon="4.22457">
        <ele>1009</ele>
        <time>2018-08-14T13:38:34.000Z</time>
      </trkpt>
      <trkpt lat="44.85555" lon="4.22472">
        <ele>1009</ele>
        <time>2018-08-14T13:38:36.000Z</time>
      </trkpt>
      <trkpt lat="44.85556" lon="4.22476">
        <ele>1009</ele>
        <time>2018-08-14T13:38:37.000Z</time>
      </trkpt>
      <trkpt lat="44.85562" lon="4.2249">
        <ele>1009</ele>
        <time>2018-08-14T13:38:43.000Z</time>
      </trkpt>
      <trkpt lat="44.85564" lon="4.22492">
        <ele>1011</ele>
        <time>2018-08-14T13:38:56.000Z</time>
      </trkpt>
      <trkpt lat="44.85566" lon="4.22493">
        <ele>1011</ele>
        <time>2018-08-14T13:38:57.000Z</time>
      </trkpt>
      <trkpt lat="44.85592" lon="4.22512">
        <ele>1012</ele>
        <time>2018-08-14T13:39:14.000Z</time>
      </trkpt>
      <trkpt lat="44.85596" lon="4.22515">
        <ele>1013</ele>
        <time>2018-08-14T13:39:18.000Z</time>
      </trkpt>
      <trkpt lat="44.85601" lon="4.22518">
        <ele>1014</ele>
        <time>2018-08-14T13:39:27.000Z</time>
      </trkpt>
      <trkpt lat="44.85604" lon="4.2252">
        <ele>1014</ele>
        <time>2018-08-14T13:39:28.000Z</time>
      </trkpt>
      <trkpt lat="44.85626" lon="4.22548">
        <ele>1016</ele>
        <time>2018-08-14T13:39:46.000Z</time>
      </trkpt>
      <trkpt lat="44.85625" lon="4.22551">
        <ele>1016</ele>
        <time>2018-08-14T13:40:03.000Z</time>
      </trkpt>
      <trkpt lat="44.85625" lon="4.22553">
        <ele>1016</ele>
        <time>2018-08-14T13:40:04.000Z</time>
      </trkpt>
      <trkpt lat="44.85624" lon="4.22577">
        <ele>1016</ele>
        <time>2018-08-14T13:40:12.000Z</time>
      </trkpt>
      <trkpt lat="44.85624" lon="4.22582">
        <ele>1017</ele>
        <time>2018-08-14T13:40:27.000Z</time>
      </trkpt>
      <trkpt lat="44.85624" lon="4.22586">
        <ele>1017</ele>
        <time>2018-08-14T13:40:28.000Z</time>
      </trkpt>
      <trkpt lat="44.85619" lon="4.22632">
        <ele>1016</ele>
        <time>2018-08-14T13:40:45.000Z</time>
      </trkpt>
      <trkpt lat="44.85607" lon="4.22677">
        <ele>1023</ele>
        <time>2018-08-14T13:41:14.000Z</time>
      </trkpt>
      <trkpt lat="44.85606" lon="4.22681">
        <ele>1024</ele>
        <time>2018-08-14T13:41:18.000Z</time>
      </trkpt>
      <trkpt lat="44.85605" lon="4.22687">
        <ele>1028</ele>
        <time>2018-08-14T13:41:32.000Z</time>
      </trkpt>
      <trkpt lat="44.85604" lon="4.22691">
        <ele>1028</ele>
        <time>2018-08-14T13:41:33.000Z</time>
      </trkpt>
      <trkpt lat="44.8559" lon="4.22737">
        <ele>1037</ele>
        <time>2018-08-14T13:41:54.000Z</time>
      </trkpt>
      <trkpt lat="44.85579" lon="4.2276">
        <ele>1042</ele>
        <time>2018-08-14T13:42:12.000Z</time>
      </trkpt>
      <trkpt lat="44.85578" lon="4.22766">
        <ele>1045</ele>
        <time>2018-08-14T13:42:24.000Z</time>
      </trkpt>
      <trkpt lat="44.85577" lon="4.22771">
        <ele>1045</ele>
        <time>2018-08-14T13:42:25.000Z</time>
      </trkpt>
      <trkpt lat="44.85567" lon="4.22801">
        <ele>1050</ele>
        <time>2018-08-14T13:42:42.000Z</time>
      </trkpt>
      <trkpt lat="44.85567" lon="4.22809">
        <ele>1057</ele>
        <time>2018-08-14T13:43:32.000Z</time>
      </trkpt>
      <trkpt lat="44.85566" lon="4.22813">
        <ele>1057</ele>
        <time>2018-08-14T13:43:33.000Z</time>
      </trkpt>
      <trkpt lat="44.85563" lon="4.22824">
        <ele>1058</ele>
        <time>2018-08-14T13:43:39.000Z</time>
      </trkpt>
      <trkpt lat="44.85562" lon="4.22809">
        <ele>1062</ele>
        <time>2018-08-14T13:43:59.000Z</time>
      </trkpt>
      <trkpt lat="44.85562" lon="4.22807">
        <ele>1062</ele>
        <time>2018-08-14T13:44:28.000Z</time>
      </trkpt>
      <trkpt lat="44.85562" lon="4.22806">
        <ele>1062</ele>
        <time>2018-08-14T13:44:29.000Z</time>
      </trkpt>
      <trkpt lat="44.85561" lon="4.22795">
        <ele>1062</ele>
        <time>2018-08-14T13:44:33.000Z</time>
      </trkpt>
      <trkpt lat="44.85561" lon="4.2279">
        <ele>1062</ele>
        <time>2018-08-14T13:44:39.000Z</time>
      </trkpt>
      <trkpt lat="44.85561" lon="4.22786">
        <ele>1062</ele>
        <time>2018-08-14T13:44:40.000Z</time>
      </trkpt>
      <trkpt lat="44.85559" lon="4.22743">
        <ele>1063</ele>
        <time>2018-08-14T13:44:57.000Z</time>
      </trkpt>
      <trkpt lat="44.85561" lon="4.22737">
        <ele>1065</ele>
        <time>2018-08-14T13:45:11.000Z</time>
      </trkpt>
      <trkpt lat="44.85563" lon="4.22732">
        <ele>1065</ele>
        <time>2018-08-14T13:45:12.000Z</time>
      </trkpt>
      <trkpt lat="44.85571" lon="4.22706">
        <ele>1066</ele>
        <time>2018-08-14T13:45:21.000Z</time>
      </trkpt>
      <trkpt lat="44.85572" lon="4.22701">
        <ele>1067</ele>
        <time>2018-08-14T13:45:40.000Z</time>
      </trkpt>
      <trkpt lat="44.85572" lon="4.22697">
        <ele>1067</ele>
        <time>2018-08-14T13:45:41.000Z</time>
      </trkpt>
      <trkpt lat="44.85572" lon="4.22694">
        <ele>1067</ele>
        <time>2018-08-14T13:45:42.000Z</time>
      </trkpt>
      <trkpt lat="44.85572" lon="4.22692">
        <ele>1067</ele>
        <time>2018-08-14T13:45:48.000Z</time>
      </trkpt>
      <trkpt lat="44.85573" lon="4.2269">
        <ele>1067</ele>
        <time>2018-08-14T13:45:49.000Z</time>
      </trkpt>
      <trkpt lat="44.85577" lon="4.22663">
        <ele>1068</ele>
        <time>2018-08-14T13:45:56.000Z</time>
      </trkpt>
      <trkpt lat="44.85567" lon="4.22648">
        <ele>1070</ele>
        <time>2018-08-14T13:46:31.000Z</time>
      </trkpt>
      <trkpt lat="44.85564" lon="4.22643">
        <ele>1070</ele>
        <time>2018-08-14T13:46:32.000Z</time>
      </trkpt>
      <trkpt lat="44.85559" lon="4.22633">
        <ele>1070</ele>
        <time>2018-08-14T13:46:36.000Z</time>
      </trkpt>
      <trkpt lat="44.85558" lon="4.22632">
        <ele>1068</ele>
        <time>2018-08-14T13:46:54.000Z</time>
      </trkpt>
      <trkpt lat="44.85557" lon="4.22632">
        <ele>1068</ele>
        <time>2018-08-14T13:46:55.000Z</time>
      </trkpt>
      <trkpt lat="44.85531" lon="4.2262">
        <ele>1068</ele>
        <time>2018-08-14T13:47:06.000Z</time>
      </trkpt>
      <trkpt lat="44.85528" lon="4.22616">
        <ele>1068</ele>
        <time>2018-08-14T13:47:21.000Z</time>
      </trkpt>
      <trkpt lat="44.85526" lon="4.22614">
        <ele>1068</ele>
        <time>2018-08-14T13:47:22.000Z</time>
      </trkpt>
      <trkpt lat="44.85502" lon="4.2259">
        <ele>1067</ele>
        <time>2018-08-14T13:47:40.000Z</time>
      </trkpt>
      <trkpt lat="44.855" lon="4.22588">
        <ele>1065</ele>
        <time>2018-08-14T13:48:11.000Z</time>
      </trkpt>
      <trkpt lat="44.85498" lon="4.22586">
        <ele>1065</ele>
        <time>2018-08-14T13:48:12.000Z</time>
      </trkpt>
      <trkpt lat="44.85496" lon="4.22583">
        <ele>1066</ele>
        <time>2018-08-14T13:48:14.000Z</time>
      </trkpt>
      <trkpt lat="44.85486" lon="4.2257">
        <ele>1066</ele>
        <time>2018-08-14T13:48:16.000Z</time>
      </trkpt>
      <trkpt lat="44.85482" lon="4.22565">
        <ele>1066</ele>
        <time>2018-08-14T13:48:17.000Z</time>
      </trkpt>
      <trkpt lat="44.85479" lon="4.2256">
        <ele>1067</ele>
        <time>2018-08-14T13:48:20.000Z</time>
      </trkpt>
      <trkpt lat="44.85469" lon="4.22555">
        <ele>1070</ele>
        <time>2018-08-14T13:48:48.000Z</time>
      </trkpt>
      <trkpt lat="44.85464" lon="4.22552">
        <ele>1070</ele>
        <time>2018-08-14T13:48:49.000Z</time>
      </trkpt>
      <trkpt lat="44.85433" lon="4.2254">
        <ele>1072</ele>
        <time>2018-08-14T13:49:03.000Z</time>
      </trkpt>
      <trkpt lat="44.85423" lon="4.22539">
        <ele>1072</ele>
        <time>2018-08-14T13:49:09.000Z</time>
      </trkpt>
      <trkpt lat="44.85398" lon="4.22517">
        <ele>1073</ele>
        <time>2018-08-14T13:49:42.000Z</time>
      </trkpt>
      <trkpt lat="44.85395" lon="4.22513">
        <ele>1073</ele>
        <time>2018-08-14T13:49:43.000Z</time>
      </trkpt>
      <trkpt lat="44.85371" lon="4.22491">
        <ele>1076</ele>
        <time>2018-08-14T13:50:04.000Z</time>
      </trkpt>
      <trkpt lat="44.85369" lon="4.2249">
        <ele>1079</ele>
        <time>2018-08-14T13:50:23.000Z</time>
      </trkpt>
      <trkpt lat="44.85368" lon="4.22489">
        <ele>1079</ele>
        <time>2018-08-14T13:50:24.000Z</time>
      </trkpt>
      <trkpt lat="44.85346" lon="4.22478">
        <ele>1080</ele>
        <time>2018-08-14T13:50:36.000Z</time>
      </trkpt>
      <trkpt lat="44.85332" lon="4.22472">
        <ele>1082</ele>
        <time>2018-08-14T13:50:51.000Z</time>
      </trkpt>
      <trkpt lat="44.85328" lon="4.2247">
        <ele>1082</ele>
        <time>2018-08-14T13:50:52.000Z</time>
      </trkpt>
      <trkpt lat="44.85316" lon="4.22464">
        <ele>1083</ele>
        <time>2018-08-14T13:51:00.000Z</time>
      </trkpt>
      <trkpt lat="44.85314" lon="4.22462">
        <ele>1087</ele>
        <time>2018-08-14T13:51:16.000Z</time>
      </trkpt>
      <trkpt lat="44.85312" lon="4.22461">
        <ele>1087</ele>
        <time>2018-08-14T13:51:17.000Z</time>
      </trkpt>
      <trkpt lat="44.85305" lon="4.22458">
        <ele>1088</ele>
        <time>2018-08-14T13:51:20.000Z</time>
      </trkpt>
      <trkpt lat="44.85302" lon="4.22458">
        <ele>1090</ele>
        <time>2018-08-14T13:51:33.000Z</time>
      </trkpt>
      <trkpt lat="44.853" lon="4.22459">
        <ele>1090</ele>
        <time>2018-08-14T13:51:34.000Z</time>
      </trkpt>
      <trkpt lat="44.85268" lon="4.22467">
        <ele>1093</ele>
        <time>2018-08-14T13:51:49.000Z</time>
      </trkpt>
      <trkpt lat="44.85236" lon="4.22485">
        <ele>1097</ele>
        <time>2018-08-14T13:52:15.000Z</time>
      </trkpt>
      <trkpt lat="44.85202" lon="4.22498">
        <ele>1100</ele>
        <time>2018-08-14T13:52:42.000Z</time>
      </trkpt>
      <trkpt lat="44.85194" lon="4.22502">
        <ele>1102</ele>
        <time>2018-08-14T13:52:54.000Z</time>
      </trkpt>
      <trkpt lat="44.85191" lon="4.22502">
        <ele>1103</ele>
        <time>2018-08-14T13:53:13.000Z</time>
      </trkpt>
      <trkpt lat="44.85188" lon="4.22502">
        <ele>1103</ele>
        <time>2018-08-14T13:53:14.000Z</time>
      </trkpt>
      <trkpt lat="44.85181" lon="4.22502">
        <ele>1104</ele>
        <time>2018-08-14T13:53:17.000Z</time>
      </trkpt>
      <trkpt lat="44.85174" lon="4.22501">
        <ele>1104</ele>
        <time>2018-08-14T13:53:28.000Z</time>
      </trkpt>
      <trkpt lat="44.8517" lon="4.225">
        <ele>1104</ele>
        <time>2018-08-14T13:53:29.000Z</time>
      </trkpt>
      <trkpt lat="44.85136" lon="4.22496">
        <ele>1105</ele>
        <time>2018-08-14T13:53:48.000Z</time>
      </trkpt>
      <trkpt lat="44.85133" lon="4.22497">
        <ele>1105</ele>
        <time>2018-08-14T13:53:52.000Z</time>
      </trkpt>
      <trkpt lat="44.8513" lon="4.22498">
        <ele>1107</ele>
        <time>2018-08-14T13:54:04.000Z</time>
      </trkpt>
      <trkpt lat="44.85128" lon="4.22499">
        <ele>1107</ele>
        <time>2018-08-14T13:54:05.000Z</time>
      </trkpt>
      <trkpt lat="44.85094" lon="4.22503">
        <ele>1108</ele>
        <time>2018-08-14T13:54:27.000Z</time>
      </trkpt>
      <trkpt lat="44.85061" lon="4.22518">
        <ele>1112</ele>
        <time>2018-08-14T13:54:58.000Z</time>
      </trkpt>
      <trkpt lat="44.85031" lon="4.2254">
        <ele>1116</ele>
        <time>2018-08-14T13:55:31.000Z</time>
      </trkpt>
      <trkpt lat="44.84998" lon="4.22558">
        <ele>1115</ele>
        <time>2018-08-14T13:55:57.000Z</time>
      </trkpt>
      <trkpt lat="44.84993" lon="4.22557">
        <ele>1114</ele>
        <time>2018-08-14T13:56:07.000Z</time>
      </trkpt>
      <trkpt lat="44.84995" lon="4.2255">
        <ele>1120</ele>
        <time>2018-08-14T13:56:38.000Z</time>
      </trkpt>
      <trkpt lat="44.84996" lon="4.22545">
        <ele>1120</ele>
        <time>2018-08-14T13:56:39.000Z</time>
      </trkpt>
      <trkpt lat="44.85007" lon="4.225">
        <ele>1126</ele>
        <time>2018-08-14T13:57:00.000Z</time>
      </trkpt>
      <trkpt lat="44.85019" lon="4.22453">
        <ele>1133</ele>
        <time>2018-08-14T13:57:27.000Z</time>
      </trkpt>
      <trkpt lat="44.85046" lon="4.22422">
        <ele>1140</ele>
        <time>2018-08-14T13:57:57.000Z</time>
      </trkpt>
      <trkpt lat="44.85049" lon="4.22417">
        <ele>1142</ele>
        <time>2018-08-14T13:58:04.000Z</time>
      </trkpt>
      <trkpt lat="44.8505" lon="4.22415">
        <ele>1145</ele>
        <time>2018-08-14T13:58:18.000Z</time>
      </trkpt>
      <trkpt lat="44.85051" lon="4.22413">
        <ele>1145</ele>
        <time>2018-08-14T13:58:19.000Z</time>
      </trkpt>
      <trkpt lat="44.85065" lon="4.22382">
        <ele>1147</ele>
        <time>2018-08-14T13:58:28.000Z</time>
      </trkpt>
      <trkpt lat="44.85058" lon="4.22367">
        <ele>1147</ele>
        <time>2018-08-14T13:58:37.000Z</time>
      </trkpt>
      <trkpt lat="44.8504" lon="4.22326">
        <ele>1148</ele>
        <time>2018-08-14T13:59:00.000Z</time>
      </trkpt>
      <trkpt lat="44.8502" lon="4.22286">
        <ele>1148</ele>
        <time>2018-08-14T13:59:31.000Z</time>
      </trkpt>
      <trkpt lat="44.84996" lon="4.22254">
        <ele>1147</ele>
        <time>2018-08-14T13:59:57.000Z</time>
      </trkpt>
      <trkpt lat="44.84975" lon="4.22215">
        <ele>1149</ele>
        <time>2018-08-14T14:00:24.000Z</time>
      </trkpt>
      <trkpt lat="44.8497" lon="4.22204">
        <ele>1150</ele>
        <time>2018-08-14T14:00:32.000Z</time>
      </trkpt>
      <trkpt lat="44.84974" lon="4.22195">
        <ele>1149</ele>
        <time>2018-08-14T14:01:06.000Z</time>
      </trkpt>
      <trkpt lat="44.84976" lon="4.2219">
        <ele>1149</ele>
        <time>2018-08-14T14:01:07.000Z</time>
      </trkpt>
      <trkpt lat="44.84982" lon="4.22175">
        <ele>1148</ele>
        <time>2018-08-14T14:01:11.000Z</time>
      </trkpt>
      <trkpt lat="44.84988" lon="4.22178">
        <ele>1165</ele>
        <time>2018-08-14T14:04:17.000Z</time>
      </trkpt>
      <trkpt lat="44.84991" lon="4.22179">
        <ele>1165</ele>
        <time>2018-08-14T14:04:18.000Z</time>
      </trkpt>
      <trkpt lat="44.85018" lon="4.22191">
        <ele>1167</ele>
        <time>2018-08-14T14:04:33.000Z</time>
      </trkpt>
      <trkpt lat="44.85026" lon="4.2218">
        <ele>1162</ele>
        <time>2018-08-14T14:04:38.000Z</time>
      </trkpt>
      <trkpt lat="44.85051" lon="4.22148">
        <ele>1159</ele>
        <time>2018-08-14T14:05:09.000Z</time>
      </trkpt>
      <trkpt lat="44.85075" lon="4.22138">
        <ele>1157</ele>
        <time>2018-08-14T14:05:32.000Z</time>
      </trkpt>
      <trkpt lat="44.85076" lon="4.22135">
        <ele>1157</ele>
        <time>2018-08-14T14:05:47.000Z</time>
      </trkpt>
      <trkpt lat="44.85077" lon="4.22132">
        <ele>1157</ele>
        <time>2018-08-14T14:05:48.000Z</time>
      </trkpt>
      <trkpt lat="44.85093" lon="4.22089">
        <ele>1156</ele>
        <time>2018-08-14T14:06:06.000Z</time>
      </trkpt>
      <trkpt lat="44.85115" lon="4.22052">
        <ele>1158</ele>
        <time>2018-08-14T14:06:34.000Z</time>
      </trkpt>
      <trkpt lat="44.85138" lon="4.22015">
        <ele>1155</ele>
        <time>2018-08-14T14:07:02.000Z</time>
      </trkpt>
      <trkpt lat="44.8514" lon="4.22008">
        <ele>1155</ele>
        <time>2018-08-14T14:07:10.000Z</time>
      </trkpt>
      <trkpt lat="44.8514" lon="4.22002">
        <ele>1155</ele>
        <time>2018-08-14T14:07:26.000Z</time>
      </trkpt>
      <trkpt lat="44.8514" lon="4.21999">
        <ele>1155</ele>
        <time>2018-08-14T14:07:27.000Z</time>
      </trkpt>
      <trkpt lat="44.85139" lon="4.2195">
        <ele>1154</ele>
        <time>2018-08-14T14:07:45.000Z</time>
      </trkpt>
      <trkpt lat="44.85152" lon="4.21932">
        <ele>1155</ele>
        <time>2018-08-14T14:08:01.000Z</time>
      </trkpt>
      <trkpt lat="44.85169" lon="4.21927">
        <ele>1156</ele>
        <time>2018-08-14T14:08:13.000Z</time>
      </trkpt>
      <trkpt lat="44.85203" lon="4.21924">
        <ele>1156</ele>
        <time>2018-08-14T14:08:43.000Z</time>
      </trkpt>
      <trkpt lat="44.85237" lon="4.21936">
        <ele>1156</ele>
        <time>2018-08-14T14:09:12.000Z</time>
      </trkpt>
      <trkpt lat="44.85272" lon="4.21935">
        <ele>1158</ele>
        <time>2018-08-14T14:09:42.000Z</time>
      </trkpt>
      <trkpt lat="44.8528" lon="4.21935">
        <ele>1158</ele>
        <time>2018-08-14T14:09:51.000Z</time>
      </trkpt>
      <trkpt lat="44.85286" lon="4.21932">
        <ele>1158</ele>
        <time>2018-08-14T14:10:07.000Z</time>
      </trkpt>
      <trkpt lat="44.85289" lon="4.21931">
        <ele>1158</ele>
        <time>2018-08-14T14:10:08.000Z</time>
      </trkpt>
      <trkpt lat="44.85313" lon="4.21918">
        <ele>1154</ele>
        <time>2018-08-14T14:10:22.000Z</time>
      </trkpt>
      <trkpt lat="44.85324" lon="4.21908">
        <ele>1154</ele>
        <time>2018-08-14T14:10:36.000Z</time>
      </trkpt>
      <trkpt lat="44.85326" lon="4.21906">
        <ele>1154</ele>
        <time>2018-08-14T14:10:37.000Z</time>
      </trkpt>
      <trkpt lat="44.85358" lon="4.21882">
        <ele>1158</ele>
        <time>2018-08-14T14:11:02.000Z</time>
      </trkpt>
      <trkpt lat="44.85384" lon="4.2185">
        <ele>1157</ele>
        <time>2018-08-14T14:11:28.000Z</time>
      </trkpt>
      <trkpt lat="44.85411" lon="4.21821">
        <ele>1161</ele>
        <time>2018-08-14T14:11:56.000Z</time>
      </trkpt>
      <trkpt lat="44.85421" lon="4.21807">
        <ele>1161</ele>
        <time>2018-08-14T14:12:10.000Z</time>
      </trkpt>
      <trkpt lat="44.85426" lon="4.21798">
        <ele>1159</ele>
        <time>2018-08-14T14:12:25.000Z</time>
      </trkpt>
      <trkpt lat="44.85429" lon="4.21794">
        <ele>1159</ele>
        <time>2018-08-14T14:12:26.000Z</time>
      </trkpt>
      <trkpt lat="44.8545" lon="4.21767">
        <ele>1155</ele>
        <time>2018-08-14T14:12:43.000Z</time>
      </trkpt>
      <trkpt lat="44.85452" lon="4.2176">
        <ele>1159</ele>
        <time>2018-08-14T14:13:03.000Z</time>
      </trkpt>
      <trkpt lat="44.85453" lon="4.21756">
        <ele>1159</ele>
        <time>2018-08-14T14:13:04.000Z</time>
      </trkpt>
      <trkpt lat="44.85461" lon="4.21729">
        <ele>1159</ele>
        <time>2018-08-14T14:13:09.000Z</time>
      </trkpt>
      <trkpt lat="44.85459" lon="4.21706">
        <ele>1161</ele>
        <time>2018-08-14T14:13:24.000Z</time>
      </trkpt>
      <trkpt lat="44.85455" lon="4.21659">
        <ele>1166</ele>
        <time>2018-08-14T14:13:55.000Z</time>
      </trkpt>
      <trkpt lat="44.85456" lon="4.21609">
        <ele>1171</ele>
        <time>2018-08-14T14:14:23.000Z</time>
      </trkpt>
      <trkpt lat="44.85465" lon="4.21562">
        <ele>1174</ele>
        <time>2018-08-14T14:14:50.000Z</time>
      </trkpt>
      <trkpt lat="44.85468" lon="4.21512">
        <ele>1177</ele>
        <time>2018-08-14T14:15:17.000Z</time>
      </trkpt>
      <trkpt lat="44.85469" lon="4.21465">
        <ele>1180</ele>
        <time>2018-08-14T14:15:46.000Z</time>
      </trkpt>
      <trkpt lat="44.85478" lon="4.2142">
        <ele>1178</ele>
        <time>2018-08-14T14:16:16.000Z</time>
      </trkpt>
      <trkpt lat="44.85466" lon="4.21378">
        <ele>1178</ele>
        <time>2018-08-14T14:16:38.000Z</time>
      </trkpt>
      <trkpt lat="44.85469" lon="4.21339">
        <ele>1178</ele>
        <time>2018-08-14T14:17:00.000Z</time>
      </trkpt>
      <trkpt lat="44.85469" lon="4.21336">
        <ele>1180</ele>
        <time>2018-08-14T14:17:17.000Z</time>
      </trkpt>
      <trkpt lat="44.85469" lon="4.21335">
        <ele>1180</ele>
        <time>2018-08-14T14:17:18.000Z</time>
      </trkpt>
      <trkpt lat="44.85468" lon="4.21331">
        <ele>1181</ele>
        <time>2018-08-14T14:17:21.000Z</time>
      </trkpt>
      <trkpt lat="44.85466" lon="4.21314">
        <ele>1181</ele>
        <time>2018-08-14T14:17:25.000Z</time>
      </trkpt>
      <trkpt lat="44.85464" lon="4.21307">
        <ele>1181</ele>
        <time>2018-08-14T14:17:26.000Z</time>
      </trkpt>
      <trkpt lat="44.85456" lon="4.21261">
        <ele>1184</ele>
        <time>2018-08-14T14:17:48.000Z</time>
      </trkpt>
      <trkpt lat="44.85442" lon="4.21232">
        <ele>1185</ele>
        <time>2018-08-14T14:18:16.000Z</time>
      </trkpt>
      <trkpt lat="44.8544" lon="4.21226">
        <ele>1183</ele>
        <time>2018-08-14T14:18:30.000Z</time>
      </trkpt>
      <trkpt lat="44.85439" lon="4.21222">
        <ele>1183</ele>
        <time>2018-08-14T14:18:31.000Z</time>
      </trkpt>
      <trkpt lat="44.85424" lon="4.21183">
        <ele>1180</ele>
        <time>2018-08-14T14:18:49.000Z</time>
      </trkpt>
      <trkpt lat="44.85411" lon="4.21169">
        <ele>1177</ele>
        <time>2018-08-14T14:18:55.000Z</time>
      </trkpt>
      <trkpt lat="44.85408" lon="4.21141">
        <ele>1173</ele>
        <time>2018-08-14T14:19:13.000Z</time>
      </trkpt>
      <trkpt lat="44.85407" lon="4.21136">
        <ele>1173</ele>
        <time>2018-08-14T14:19:17.000Z</time>
      </trkpt>
      <trkpt lat="44.85411" lon="4.21144">
        <ele>1169</ele>
        <time>2018-08-14T14:19:53.000Z</time>
      </trkpt>
      <trkpt lat="44.85413" lon="4.21148">
        <ele>1169</ele>
        <time>2018-08-14T14:19:54.000Z</time>
      </trkpt>
      <trkpt lat="44.85428" lon="4.21191">
        <ele>1164</ele>
        <time>2018-08-14T14:20:17.000Z</time>
      </trkpt>
      <trkpt lat="44.85437" lon="4.21238">
        <ele>1162</ele>
        <time>2018-08-14T14:20:48.000Z</time>
      </trkpt>
      <trkpt lat="44.85437" lon="4.2124">
        <ele>1162</ele>
        <time>2018-08-14T14:20:51.000Z</time>
      </trkpt>
      <trkpt lat="44.85437" lon="4.21246">
        <ele>1163</ele>
        <time>2018-08-14T14:21:07.000Z</time>
      </trkpt>
      <trkpt lat="44.85437" lon="4.2125">
        <ele>1163</ele>
        <time>2018-08-14T14:21:08.000Z</time>
      </trkpt>
      <trkpt lat="44.85435" lon="4.21302">
        <ele>1167</ele>
        <time>2018-08-14T14:21:27.000Z</time>
      </trkpt>
      <trkpt lat="44.85434" lon="4.21318">
        <ele>1168</ele>
        <time>2018-08-14T14:21:36.000Z</time>
      </trkpt>
      <trkpt lat="44.85431" lon="4.21327">
        <ele>1174</ele>
        <time>2018-08-14T14:21:53.000Z</time>
      </trkpt>
      <trkpt lat="44.85429" lon="4.21331">
        <ele>1174</ele>
        <time>2018-08-14T14:21:54.000Z</time>
      </trkpt>
      <trkpt lat="44.85417" lon="4.21362">
        <ele>1177</ele>
        <time>2018-08-14T14:22:07.000Z</time>
      </trkpt>
      <trkpt lat="44.85421" lon="4.21378">
        <ele>1180</ele>
        <time>2018-08-14T14:22:15.000Z</time>
      </trkpt>
      <trkpt lat="44.85415" lon="4.21426">
        <ele>1187</ele>
        <time>2018-08-14T14:22:43.000Z</time>
      </trkpt>
      <trkpt lat="44.85407" lon="4.21473">
        <ele>1192</ele>
        <time>2018-08-14T14:23:13.000Z</time>
      </trkpt>
      <trkpt lat="44.85405" lon="4.21523">
        <ele>1196</ele>
        <time>2018-08-14T14:23:40.000Z</time>
      </trkpt>
      <trkpt lat="44.85406" lon="4.2153">
        <ele>1197</ele>
        <time>2018-08-14T14:23:46.000Z</time>
      </trkpt>
      <trkpt lat="44.85405" lon="4.21536">
        <ele>1202</ele>
        <time>2018-08-14T14:24:09.000Z</time>
      </trkpt>
      <trkpt lat="44.85404" lon="4.21541">
        <ele>1202</ele>
        <time>2018-08-14T14:24:10.000Z</time>
      </trkpt>
      <trkpt lat="44.85394" lon="4.21583">
        <ele>1203</ele>
        <time>2018-08-14T14:24:27.000Z</time>
      </trkpt>
      <trkpt lat="44.85372" lon="4.21622">
        <ele>1197</ele>
        <time>2018-08-14T14:24:57.000Z</time>
      </trkpt>
      <trkpt lat="44.85353" lon="4.21664">
        <ele>1203</ele>
        <time>2018-08-14T14:25:28.000Z</time>
      </trkpt>
      <trkpt lat="44.85333" lon="4.21702">
        <ele>1207</ele>
        <time>2018-08-14T14:25:57.000Z</time>
      </trkpt>
      <trkpt lat="44.85309" lon="4.21736">
        <ele>1210</ele>
        <time>2018-08-14T14:26:25.000Z</time>
      </trkpt>
      <trkpt lat="44.85278" lon="4.21756">
        <ele>1214</ele>
        <time>2018-08-14T14:26:53.000Z</time>
      </trkpt>
      <trkpt lat="44.85268" lon="4.2176">
        <ele>1215</ele>
        <time>2018-08-14T14:27:03.000Z</time>
      </trkpt>
      <trkpt lat="44.85262" lon="4.21759">
        <ele>1213</ele>
        <time>2018-08-14T14:27:22.000Z</time>
      </trkpt>
      <trkpt lat="44.85258" lon="4.21759">
        <ele>1213</ele>
        <time>2018-08-14T14:27:23.000Z</time>
      </trkpt>
      <trkpt lat="44.85252" lon="4.21758">
        <ele>1213</ele>
        <time>2018-08-14T14:27:25.000Z</time>
      </trkpt>
      <trkpt lat="44.8525" lon="4.21759">
        <ele>1213</ele>
        <time>2018-08-14T14:27:36.000Z</time>
      </trkpt>
      <trkpt lat="44.85248" lon="4.2176">
        <ele>1213</ele>
        <time>2018-08-14T14:27:37.000Z</time>
      </trkpt>
      <trkpt lat="44.85218" lon="4.21774">
        <ele>1215</ele>
        <time>2018-08-14T14:27:51.000Z</time>
      </trkpt>
      <trkpt lat="44.85211" lon="4.2177">
        <ele>1220</ele>
        <time>2018-08-14T14:30:19.000Z</time>
      </trkpt>
      <trkpt lat="44.85207" lon="4.21769">
        <ele>1220</ele>
        <time>2018-08-14T14:30:20.000Z</time>
      </trkpt>
      <trkpt lat="44.85206" lon="4.21768">
        <ele>1220</ele>
        <time>2018-08-14T14:30:21.000Z</time>
      </trkpt>
      <trkpt lat="44.85204" lon="4.21764">
        <ele>1219</ele>
        <time>2018-08-14T14:30:45.000Z</time>
      </trkpt>
      <trkpt lat="44.85202" lon="4.21761">
        <ele>1219</ele>
        <time>2018-08-14T14:30:46.000Z</time>
      </trkpt>
      <trkpt lat="44.85191" lon="4.21736">
        <ele>1218</ele>
        <time>2018-08-14T14:30:54.000Z</time>
      </trkpt>
      <trkpt lat="44.8519" lon="4.21734">
        <ele>1218</ele>
        <time>2018-08-14T14:31:00.000Z</time>
      </trkpt>
      <trkpt lat="44.85189" lon="4.21732">
        <ele>1218</ele>
        <time>2018-08-14T14:31:01.000Z</time>
      </trkpt>
      <trkpt lat="44.85176" lon="4.21705">
        <ele>1218</ele>
        <time>2018-08-14T14:31:12.000Z</time>
      </trkpt>
      <trkpt lat="44.85166" lon="4.21698">
        <ele>1218</ele>
        <time>2018-08-14T14:31:25.000Z</time>
      </trkpt>
      <trkpt lat="44.85163" lon="4.21695">
        <ele>1218</ele>
        <time>2018-08-14T14:31:26.000Z</time>
      </trkpt>
      <trkpt lat="44.85151" lon="4.21691">
        <ele>1218</ele>
        <time>2018-08-14T14:31:35.000Z</time>
      </trkpt>
      <trkpt lat="44.85148" lon="4.21688">
        <ele>1219</ele>
        <time>2018-08-14T14:31:48.000Z</time>
      </trkpt>
      <trkpt lat="44.85146" lon="4.21686">
        <ele>1219</ele>
        <time>2018-08-14T14:31:49.000Z</time>
      </trkpt>
      <trkpt lat="44.8513" lon="4.21666">
        <ele>1219</ele>
        <time>2018-08-14T14:31:57.000Z</time>
      </trkpt>
      <trkpt lat="44.85124" lon="4.21668">
        <ele>1220</ele>
        <time>2018-08-14T14:32:14.000Z</time>
      </trkpt>
      <trkpt lat="44.8512" lon="4.21669">
        <ele>1220</ele>
        <time>2018-08-14T14:32:15.000Z</time>
      </trkpt>
      <trkpt lat="44.85089" lon="4.21686">
        <ele>1221</ele>
        <time>2018-08-14T14:32:28.000Z</time>
      </trkpt>
      <trkpt lat="44.85077" lon="4.21695">
        <ele>1223</ele>
        <time>2018-08-14T14:32:44.000Z</time>
      </trkpt>
      <trkpt lat="44.85074" lon="4.21702">
        <ele>1226</ele>
        <time>2018-08-14T14:32:58.000Z</time>
      </trkpt>
      <trkpt lat="44.85073" lon="4.21706">
        <ele>1226</ele>
        <time>2018-08-14T14:32:59.000Z</time>
      </trkpt>
      <trkpt lat="44.85054" lon="4.21746">
        <ele>1229</ele>
        <time>2018-08-14T14:33:14.000Z</time>
      </trkpt>
      <trkpt lat="44.85043" lon="4.2179">
        <ele>1234</ele>
        <time>2018-08-14T14:33:42.000Z</time>
      </trkpt>
      <trkpt lat="44.85025" lon="4.21834">
        <ele>1241</ele>
        <time>2018-08-14T14:34:07.000Z</time>
      </trkpt>
      <trkpt lat="44.84999" lon="4.21868">
        <ele>1246</ele>
        <time>2018-08-14T14:34:31.000Z</time>
      </trkpt>
      <trkpt lat="44.84988" lon="4.21885">
        <ele>1249</ele>
        <time>2018-08-14T14:34:51.000Z</time>
      </trkpt>
      <trkpt lat="44.8498" lon="4.21894">
        <ele>1247</ele>
        <time>2018-08-14T14:35:04.000Z</time>
      </trkpt>
      <trkpt lat="44.84977" lon="4.21897">
        <ele>1247</ele>
        <time>2018-08-14T14:35:05.000Z</time>
      </trkpt>
      <trkpt lat="44.8496" lon="4.21915">
        <ele>1251</ele>
        <time>2018-08-14T14:35:16.000Z</time>
      </trkpt>
      <trkpt lat="44.84951" lon="4.21909">
        <ele>1257</ele>
        <time>2018-08-14T14:35:30.000Z</time>
      </trkpt>
      <trkpt lat="44.84948" lon="4.21907">
        <ele>1261</ele>
        <time>2018-08-14T14:35:47.000Z</time>
      </trkpt>
      <trkpt lat="44.84946" lon="4.21906">
        <ele>1261</ele>
        <time>2018-08-14T14:35:48.000Z</time>
      </trkpt>
      <trkpt lat="44.84919" lon="4.21875">
        <ele>1261</ele>
        <time>2018-08-14T14:36:01.000Z</time>
      </trkpt>
      <trkpt lat="44.8491" lon="4.21859">
        <ele>1263</ele>
        <time>2018-08-14T14:36:16.000Z</time>
      </trkpt>
      <trkpt lat="44.84907" lon="4.21858">
        <ele>1264</ele>
        <time>2018-08-14T14:36:30.000Z</time>
      </trkpt>
      <trkpt lat="44.84905" lon="4.21858">
        <ele>1264</ele>
        <time>2018-08-14T14:36:31.000Z</time>
      </trkpt>
      <trkpt lat="44.84869" lon="4.21855">
        <ele>1266</ele>
        <time>2018-08-14T14:36:47.000Z</time>
      </trkpt>
      <trkpt lat="44.84837" lon="4.21844">
        <ele>1268</ele>
        <time>2018-08-14T14:37:11.000Z</time>
      </trkpt>
      <trkpt lat="44.84821" lon="4.21852">
        <ele>1270</ele>
        <time>2018-08-14T14:37:25.000Z</time>
      </trkpt>
      <trkpt lat="44.84811" lon="4.21876">
        <ele>1267</ele>
        <time>2018-08-14T14:37:48.000Z</time>
      </trkpt>
      <trkpt lat="44.84795" lon="4.21917">
        <ele>1266</ele>
        <time>2018-08-14T14:38:07.000Z</time>
      </trkpt>
      <trkpt lat="44.84776" lon="4.21958">
        <ele>1265</ele>
        <time>2018-08-14T14:38:28.000Z</time>
      </trkpt>
      <trkpt lat="44.84761" lon="4.22002">
        <ele>1264</ele>
        <time>2018-08-14T14:38:52.000Z</time>
      </trkpt>
      <trkpt lat="44.84745" lon="4.22046">
        <ele>1265</ele>
        <time>2018-08-14T14:39:19.000Z</time>
      </trkpt>
      <trkpt lat="44.84745" lon="4.22095">
        <ele>1263</ele>
        <time>2018-08-14T14:39:46.000Z</time>
      </trkpt>
      <trkpt lat="44.84764" lon="4.2213">
        <ele>1267</ele>
        <time>2018-08-14T14:40:05.000Z</time>
      </trkpt>
      <trkpt lat="44.84777" lon="4.22177">
        <ele>1271</ele>
        <time>2018-08-14T14:40:26.000Z</time>
      </trkpt>
      <trkpt lat="44.84793" lon="4.22221">
        <ele>1274</ele>
        <time>2018-08-14T14:40:52.000Z</time>
      </trkpt>
      <trkpt lat="44.84785" lon="4.22265">
        <ele>1272</ele>
        <time>2018-08-14T14:41:13.000Z</time>
      </trkpt>
      <trkpt lat="44.84777" lon="4.22313">
        <ele>1272</ele>
        <time>2018-08-14T14:41:40.000Z</time>
      </trkpt>
      <trkpt lat="44.84755" lon="4.22352">
        <ele>1276</ele>
        <time>2018-08-14T14:42:07.000Z</time>
      </trkpt>
      <trkpt lat="44.84727" lon="4.22374">
        <ele>1280</ele>
        <time>2018-08-14T14:42:31.000Z</time>
      </trkpt>
      <trkpt lat="44.84694" lon="4.22389">
        <ele>1283</ele>
        <time>2018-08-14T14:42:53.000Z</time>
      </trkpt>
      <trkpt lat="44.84665" lon="4.22406">
        <ele>1283</ele>
        <time>2018-08-14T14:43:16.000Z</time>
      </trkpt>
      <trkpt lat="44.8465" lon="4.2245">
        <ele>1282</ele>
        <time>2018-08-14T14:43:41.000Z</time>
      </trkpt>
      <trkpt lat="44.84639" lon="4.22498">
        <ele>1287</ele>
        <time>2018-08-14T14:44:13.000Z</time>
      </trkpt>
      <trkpt lat="44.84625" lon="4.2253">
        <ele>1285</ele>
        <time>2018-08-14T14:44:37.000Z</time>
      </trkpt>
      <trkpt lat="44.8463" lon="4.22546">
        <ele>1279</ele>
        <time>2018-08-14T14:44:47.000Z</time>
      </trkpt>
      <trkpt lat="44.84632" lon="4.22551">
        <ele>1279</ele>
        <time>2018-08-14T14:44:48.000Z</time>
      </trkpt>
      <trkpt lat="44.8464" lon="4.22581">
        <ele>1275</ele>
        <time>2018-08-14T14:45:00.000Z</time>
      </trkpt>
      <trkpt lat="44.84632" lon="4.226">
        <ele>1275</ele>
        <time>2018-08-14T14:45:12.000Z</time>
      </trkpt>
      <trkpt lat="44.84621" lon="4.22644">
        <ele>1279</ele>
        <time>2018-08-14T14:45:36.000Z</time>
      </trkpt>
      <trkpt lat="44.84625" lon="4.22669">
        <ele>1282</ele>
        <time>2018-08-14T14:45:47.000Z</time>
      </trkpt>
      <trkpt lat="44.84642" lon="4.2268">
        <ele>1285</ele>
        <time>2018-08-14T14:45:57.000Z</time>
      </trkpt>
      <trkpt lat="44.84666" lon="4.22715">
        <ele>1290</ele>
        <time>2018-08-14T14:46:22.000Z</time>
      </trkpt>
      <trkpt lat="44.84671" lon="4.22755">
        <ele>1295</ele>
        <time>2018-08-14T14:46:43.000Z</time>
      </trkpt>
      <trkpt lat="44.84682" lon="4.22761">
        <ele>1293</ele>
        <time>2018-08-14T14:46:50.000Z</time>
      </trkpt>
      <trkpt lat="44.8469" lon="4.22773">
        <ele>1295</ele>
        <time>2018-08-14T14:47:02.000Z</time>
      </trkpt>
      <trkpt lat="44.84715" lon="4.22776">
        <ele>1293</ele>
        <time>2018-08-14T14:47:11.000Z</time>
      </trkpt>
      <trkpt lat="44.84708" lon="4.22824">
        <ele>1293</ele>
        <time>2018-08-14T14:47:35.000Z</time>
      </trkpt>
      <trkpt lat="44.84694" lon="4.22868">
        <ele>1293</ele>
        <time>2018-08-14T14:48:00.000Z</time>
      </trkpt>
      <trkpt lat="44.84685" lon="4.22913">
        <ele>1297</ele>
        <time>2018-08-14T14:48:24.000Z</time>
      </trkpt>
      <trkpt lat="44.84687" lon="4.22941">
        <ele>1300</ele>
        <time>2018-08-14T14:48:37.000Z</time>
      </trkpt>
      <trkpt lat="44.84702" lon="4.22955">
        <ele>1301</ele>
        <time>2018-08-14T14:48:51.000Z</time>
      </trkpt>
      <trkpt lat="44.84731" lon="4.22982">
        <ele>1304</ele>
        <time>2018-08-14T14:49:23.000Z</time>
      </trkpt>
      <trkpt lat="44.84735" lon="4.22985">
        <ele>1304</ele>
        <time>2018-08-14T14:49:29.000Z</time>
      </trkpt>
      <trkpt lat="44.84737" lon="4.22987">
        <ele>1306</ele>
        <time>2018-08-14T14:49:41.000Z</time>
      </trkpt>
      <trkpt lat="44.84739" lon="4.22988">
        <ele>1306</ele>
        <time>2018-08-14T14:49:42.000Z</time>
      </trkpt>
      <trkpt lat="44.84769" lon="4.23011">
        <ele>1308</ele>
        <time>2018-08-14T14:49:56.000Z</time>
      </trkpt>
      <trkpt lat="44.84784" lon="4.23044">
        <ele>1313</ele>
        <time>2018-08-14T14:50:20.000Z</time>
      </trkpt>
      <trkpt lat="44.84802" lon="4.23036">
        <ele>1308</ele>
        <time>2018-08-14T14:50:24.000Z</time>
      </trkpt>
      <trkpt lat="44.84816" lon="4.23034">
        <ele>1308</ele>
        <time>2018-08-14T14:50:32.000Z</time>
      </trkpt>
      <trkpt lat="44.84835" lon="4.23052">
        <ele>1310</ele>
        <time>2018-08-14T14:50:51.000Z</time>
      </trkpt>
      <trkpt lat="44.84863" lon="4.23079">
        <ele>1313</ele>
        <time>2018-08-14T14:51:20.000Z</time>
      </trkpt>
      <trkpt lat="44.84896" lon="4.23068">
        <ele>1317</ele>
        <time>2018-08-14T14:51:46.000Z</time>
      </trkpt>
      <trkpt lat="44.84925" lon="4.23049">
        <ele>1321</ele>
        <time>2018-08-14T14:52:09.000Z</time>
      </trkpt>
      <trkpt lat="44.84936" lon="4.23045">
        <ele>1322</ele>
        <time>2018-08-14T14:52:21.000Z</time>
      </trkpt>
      <trkpt lat="44.8495" lon="4.23062">
        <ele>1330</ele>
        <time>2018-08-14T14:53:29.000Z</time>
      </trkpt>
      <trkpt lat="44.84954" lon="4.23065">
        <ele>1330</ele>
        <time>2018-08-14T14:53:30.000Z</time>
      </trkpt>
      <trkpt lat="44.84962" lon="4.23076">
        <ele>1329</ele>
        <time>2018-08-14T14:53:34.000Z</time>
      </trkpt>
      <trkpt lat="44.84951" lon="4.23066">
        <ele>1329</ele>
        <time>2018-08-14T14:53:46.000Z</time>
      </trkpt>
      <trkpt lat="44.84949" lon="4.23066">
        <ele>1333</ele>
        <time>2018-08-14T14:55:27.000Z</time>
      </trkpt>
      <trkpt lat="44.84947" lon="4.23067">
        <ele>1333</ele>
        <time>2018-08-14T14:55:28.000Z</time>
      </trkpt>
      <trkpt lat="44.84914" lon="4.23084">
        <ele>1336</ele>
        <time>2018-08-14T14:55:41.000Z</time>
      </trkpt>
      <trkpt lat="44.84887" lon="4.23115">
        <ele>1346</ele>
        <time>2018-08-14T14:56:09.000Z</time>
      </trkpt>
      <trkpt lat="44.84851" lon="4.23123">
        <ele>1352</ele>
        <time>2018-08-14T14:56:43.000Z</time>
      </trkpt>
      <trkpt lat="44.84828" lon="4.23089">
        <ele>1349</ele>
        <time>2018-08-14T14:57:13.000Z</time>
      </trkpt>
      <trkpt lat="44.84794" lon="4.23094">
        <ele>1349</ele>
        <time>2018-08-14T14:57:39.000Z</time>
      </trkpt>
      <trkpt lat="44.84788" lon="4.23094">
        <ele>1348</ele>
        <time>2018-08-14T14:57:45.000Z</time>
      </trkpt>
      <trkpt lat="44.84785" lon="4.23093">
        <ele>1347</ele>
        <time>2018-08-14T14:57:58.000Z</time>
      </trkpt>
      <trkpt lat="44.84783" lon="4.23093">
        <ele>1347</ele>
        <time>2018-08-14T14:57:59.000Z</time>
      </trkpt>
      <trkpt lat="44.84749" lon="4.23087">
        <ele>1345</ele>
        <time>2018-08-14T14:58:16.000Z</time>
      </trkpt>
      <trkpt lat="44.84715" lon="4.23088">
        <ele>1344</ele>
        <time>2018-08-14T14:58:42.000Z</time>
      </trkpt>
      <trkpt lat="44.84683" lon="4.23067">
        <ele>1345</ele>
        <time>2018-08-14T14:59:06.000Z</time>
      </trkpt>
      <trkpt lat="44.84658" lon="4.23035">
        <ele>1345</ele>
        <time>2018-08-14T14:59:31.000Z</time>
      </trkpt>
      <trkpt lat="44.84627" lon="4.23013">
        <ele>1346</ele>
        <time>2018-08-14T14:59:59.000Z</time>
      </trkpt>
      <trkpt lat="44.84615" lon="4.22967">
        <ele>1349</ele>
        <time>2018-08-14T15:00:25.000Z</time>
      </trkpt>
      <trkpt lat="44.84615" lon="4.22955">
        <ele>1349</ele>
        <time>2018-08-14T15:00:35.000Z</time>
      </trkpt>
      <trkpt lat="44.8461" lon="4.2295">
        <ele>1346</ele>
        <time>2018-08-14T15:00:48.000Z</time>
      </trkpt>
      <trkpt lat="44.84608" lon="4.22947">
        <ele>1346</ele>
        <time>2018-08-14T15:00:49.000Z</time>
      </trkpt>
      <trkpt lat="44.846" lon="4.22933">
        <ele>1346</ele>
        <time>2018-08-14T15:00:55.000Z</time>
      </trkpt>
      <trkpt lat="44.846" lon="4.22928">
        <ele>1346</ele>
        <time>2018-08-14T15:01:07.000Z</time>
      </trkpt>
      <trkpt lat="44.846" lon="4.22925">
        <ele>1346</ele>
        <time>2018-08-14T15:01:08.000Z</time>
      </trkpt>
      <trkpt lat="44.84606" lon="4.22875">
        <ele>1347</ele>
        <time>2018-08-14T15:01:21.000Z</time>
      </trkpt>
      <trkpt lat="44.84603" lon="4.22828">
        <ele>1356</ele>
        <time>2018-08-14T15:01:57.000Z</time>
      </trkpt>
      <trkpt lat="44.84579" lon="4.22794">
        <ele>1360</ele>
        <time>2018-08-14T15:02:26.000Z</time>
      </trkpt>
      <trkpt lat="44.84565" lon="4.22762">
        <ele>1361</ele>
        <time>2018-08-14T15:02:47.000Z</time>
      </trkpt>
      <trkpt lat="44.84554" lon="4.22761">
        <ele>1361</ele>
        <time>2018-08-14T15:02:56.000Z</time>
      </trkpt>
      <trkpt lat="44.84529" lon="4.22727">
        <ele>1361</ele>
        <time>2018-08-14T15:03:30.000Z</time>
      </trkpt>
      <trkpt lat="44.84501" lon="4.22704">
        <ele>1361</ele>
        <time>2018-08-14T15:03:57.000Z</time>
      </trkpt>
      <trkpt lat="44.84467" lon="4.22689">
        <ele>1359</ele>
        <time>2018-08-14T15:04:25.000Z</time>
      </trkpt>
      <trkpt lat="44.84456" lon="4.22693">
        <ele>1357</ele>
        <time>2018-08-14T15:04:40.000Z</time>
      </trkpt>
      <trkpt lat="44.8445" lon="4.22695">
        <ele>1349</ele>
        <time>2018-08-14T15:05:04.000Z</time>
      </trkpt>
      <trkpt lat="44.84447" lon="4.22697">
        <ele>1349</ele>
        <time>2018-08-14T15:05:05.000Z</time>
      </trkpt>
      <trkpt lat="44.84412" lon="4.22702">
        <ele>1347</ele>
        <time>2018-08-14T15:05:23.000Z</time>
      </trkpt>
      <trkpt lat="44.84391" lon="4.22696">
        <ele>1345</ele>
        <time>2018-08-14T15:05:44.000Z</time>
      </trkpt>
      <trkpt lat="44.84378" lon="4.22703">
        <ele>1343</ele>
        <time>2018-08-14T15:05:58.000Z</time>
      </trkpt>
      <trkpt lat="44.8435" lon="4.22716">
        <ele>1340</ele>
        <time>2018-08-14T15:06:30.000Z</time>
      </trkpt>
      <trkpt lat="44.84349" lon="4.22715">
        <ele>1343</ele>
        <time>2018-08-14T15:06:43.000Z</time>
      </trkpt>
      <trkpt lat="44.84348" lon="4.22715">
        <ele>1343</ele>
        <time>2018-08-14T15:06:44.000Z</time>
      </trkpt>
      <trkpt lat="44.84317" lon="4.22706">
        <ele>1344</ele>
        <time>2018-08-14T15:06:54.000Z</time>
      </trkpt>
      <trkpt lat="44.84291" lon="4.22678">
        <ele>1350</ele>
        <time>2018-08-14T15:07:17.000Z</time>
      </trkpt>
      <trkpt lat="44.84264" lon="4.22651">
        <ele>1356</ele>
        <time>2018-08-14T15:07:43.000Z</time>
      </trkpt>
      <trkpt lat="44.84233" lon="4.22629">
        <ele>1360</ele>
        <time>2018-08-14T15:08:13.000Z</time>
      </trkpt>
      <trkpt lat="44.84204" lon="4.22599">
        <ele>1356</ele>
        <time>2018-08-14T15:08:43.000Z</time>
      </trkpt>
      <trkpt lat="44.84183" lon="4.22561">
        <ele>1358</ele>
        <time>2018-08-14T15:09:06.000Z</time>
      </trkpt>
      <trkpt lat="44.84174" lon="4.22514">
        <ele>1357</ele>
        <time>2018-08-14T15:09:27.000Z</time>
      </trkpt>
      <trkpt lat="44.84147" lon="4.22481">
        <ele>1356</ele>
        <time>2018-08-14T15:09:53.000Z</time>
      </trkpt>
      <trkpt lat="44.84133" lon="4.22436">
        <ele>1359</ele>
        <time>2018-08-14T15:10:22.000Z</time>
      </trkpt>
      <trkpt lat="44.84118" lon="4.22392">
        <ele>1363</ele>
        <time>2018-08-14T15:10:47.000Z</time>
      </trkpt>
      <trkpt lat="44.84108" lon="4.22347">
        <ele>1369</ele>
        <time>2018-08-14T15:11:15.000Z</time>
      </trkpt>
      <trkpt lat="44.84101" lon="4.22299">
        <ele>1383</ele>
        <time>2018-08-14T15:11:40.000Z</time>
      </trkpt>
      <trkpt lat="44.84112" lon="4.22254">
        <ele>1393</ele>
        <time>2018-08-14T15:11:59.000Z</time>
      </trkpt>
      <trkpt lat="44.84119" lon="4.22206">
        <ele>1403</ele>
        <time>2018-08-14T15:12:26.000Z</time>
      </trkpt>
      <trkpt lat="44.84132" lon="4.22161">
        <ele>1407</ele>
        <time>2018-08-14T15:12:54.000Z</time>
      </trkpt>
      <trkpt lat="44.84144" lon="4.22116">
        <ele>1408</ele>
        <time>2018-08-14T15:13:20.000Z</time>
      </trkpt>
      <trkpt lat="44.84153" lon="4.22067">
        <ele>1406</ele>
        <time>2018-08-14T15:13:49.000Z</time>
      </trkpt>
      <trkpt lat="44.84159" lon="4.22018">
        <ele>1403</ele>
        <time>2018-08-14T15:14:15.000Z</time>
      </trkpt>
      <trkpt lat="44.84159" lon="4.22007">
        <ele>1401</ele>
        <time>2018-08-14T15:14:25.000Z</time>
      </trkpt>
      <trkpt lat="44.84163" lon="4.21989">
        <ele>1397</ele>
        <time>2018-08-14T15:14:40.000Z</time>
      </trkpt>
      <trkpt lat="44.84164" lon="4.21985">
        <ele>1397</ele>
        <time>2018-08-14T15:14:41.000Z</time>
      </trkpt>
      <trkpt lat="44.84172" lon="4.21937">
        <ele>1393</ele>
        <time>2018-08-14T15:15:05.000Z</time>
      </trkpt>
      <trkpt lat="44.84174" lon="4.21888">
        <ele>1390</ele>
        <time>2018-08-14T15:15:29.000Z</time>
      </trkpt>
      <trkpt lat="44.84182" lon="4.2184">
        <ele>1386</ele>
        <time>2018-08-14T15:16:02.000Z</time>
      </trkpt>
      <trkpt lat="44.84192" lon="4.21794">
        <ele>1385</ele>
        <time>2018-08-14T15:16:30.000Z</time>
      </trkpt>
      <trkpt lat="44.84212" lon="4.21754">
        <ele>1382</ele>
        <time>2018-08-14T15:16:57.000Z</time>
      </trkpt>
      <trkpt lat="44.84214" lon="4.21752">
        <ele>1383</ele>
        <time>2018-08-14T15:17:05.000Z</time>
      </trkpt>
      <trkpt lat="44.84217" lon="4.21748">
        <ele>1386</ele>
        <time>2018-08-14T15:17:26.000Z</time>
      </trkpt>
      <trkpt lat="44.8422" lon="4.21745">
        <ele>1386</ele>
        <time>2018-08-14T15:17:27.000Z</time>
      </trkpt>
      <trkpt lat="44.84236" lon="4.21701">
        <ele>1389</ele>
        <time>2018-08-14T15:17:48.000Z</time>
      </trkpt>
      <trkpt lat="44.8426" lon="4.21666">
        <ele>1389</ele>
        <time>2018-08-14T15:18:17.000Z</time>
      </trkpt>
      <trkpt lat="44.84288" lon="4.21636">
        <ele>1391</ele>
        <time>2018-08-14T15:18:40.000Z</time>
      </trkpt>
      <trkpt lat="44.84304" lon="4.21623">
        <ele>1393</ele>
        <time>2018-08-14T15:18:52.000Z</time>
      </trkpt>
      <trkpt lat="44.84322" lon="4.21627">
        <ele>1396</ele>
        <time>2018-08-14T15:19:04.000Z</time>
      </trkpt>
      <trkpt lat="44.84332" lon="4.21623">
        <ele>1398</ele>
        <time>2018-08-14T15:19:17.000Z</time>
      </trkpt>
      <trkpt lat="44.84335" lon="4.21633">
        <ele>1407</ele>
        <time>2018-08-14T15:21:20.000Z</time>
      </trkpt>
      <trkpt lat="44.84336" lon="4.21637">
        <ele>1407</ele>
        <time>2018-08-14T15:21:21.000Z</time>
      </trkpt>
      <trkpt lat="44.84337" lon="4.21644">
        <ele>1408</ele>
        <time>2018-08-14T15:21:23.000Z</time>
      </trkpt>
      <trkpt lat="44.84337" lon="4.21645">
        <ele>1408</ele>
        <time>2018-08-14T15:21:41.000Z</time>
      </trkpt>
      <trkpt lat="44.84338" lon="4.21647">
        <ele>1408</ele>
        <time>2018-08-14T15:21:42.000Z</time>
      </trkpt>
      <trkpt lat="44.84341" lon="4.21678">
        <ele>1408</ele>
        <time>2018-08-14T15:21:52.000Z</time>
      </trkpt>
      <trkpt lat="44.84328" lon="4.21692">
        <ele>1409</ele>
        <time>2018-08-14T15:22:07.000Z</time>
      </trkpt>
      <trkpt lat="44.84305" lon="4.21728">
        <ele>1411</ele>
        <time>2018-08-14T15:22:33.000Z</time>
      </trkpt>
      <trkpt lat="44.84289" lon="4.21768">
        <ele>1411</ele>
        <time>2018-08-14T15:23:06.000Z</time>
      </trkpt>
      <trkpt lat="44.84277" lon="4.21814">
        <ele>1412</ele>
        <time>2018-08-14T15:23:38.000Z</time>
      </trkpt>
      <trkpt lat="44.84262" lon="4.21858">
        <ele>1414</ele>
        <time>2018-08-14T15:24:09.000Z</time>
      </trkpt>
      <trkpt lat="44.84262" lon="4.21907">
        <ele>1415</ele>
        <time>2018-08-14T15:24:48.000Z</time>
      </trkpt>
      <trkpt lat="44.84262" lon="4.2191">
        <ele>1415</ele>
        <time>2018-08-14T15:24:53.000Z</time>
      </trkpt>
      <trkpt lat="44.84267" lon="4.21921">
        <ele>1420</ele>
        <time>2018-08-14T15:26:00.000Z</time>
      </trkpt>
      <trkpt lat="44.8427" lon="4.21928">
        <ele>1420</ele>
        <time>2018-08-14T15:26:01.000Z</time>
      </trkpt>
      <trkpt lat="44.84271" lon="4.21931">
        <ele>1420</ele>
        <time>2018-08-14T15:26:02.000Z</time>
      </trkpt>
      <trkpt lat="44.84272" lon="4.21934">
        <ele>1421</ele>
        <time>2018-08-14T15:26:20.000Z</time>
      </trkpt>
      <trkpt lat="44.84273" lon="4.21937">
        <ele>1421</ele>
        <time>2018-08-14T15:26:21.000Z</time>
      </trkpt>
      <trkpt lat="44.84288" lon="4.2197">
        <ele>1423</ele>
        <time>2018-08-14T15:26:33.000Z</time>
      </trkpt>
      <trkpt lat="44.84298" lon="4.21973">
        <ele>1444</ele>
        <time>2018-08-14T15:27:54.000Z</time>
      </trkpt>
      <trkpt lat="44.84302" lon="4.21975">
        <ele>1444</ele>
        <time>2018-08-14T15:27:55.000Z</time>
      </trkpt>
      <trkpt lat="44.84314" lon="4.21981">
        <ele>1446</ele>
        <time>2018-08-14T15:28:09.000Z</time>
      </trkpt>
      <trkpt lat="44.84317" lon="4.21984">
        <ele>1452</ele>
        <time>2018-08-14T15:29:15.000Z</time>
      </trkpt>
      <trkpt lat="44.84319" lon="4.21986">
        <ele>1452</ele>
        <time>2018-08-14T15:29:16.000Z</time>
      </trkpt>
      <trkpt lat="44.8432" lon="4.21987">
        <ele>1452</ele>
        <time>2018-08-14T15:29:19.000Z</time>
      </trkpt>
      <trkpt lat="44.84322" lon="4.21989">
        <ele>1453</ele>
        <time>2018-08-14T15:30:05.000Z</time>
      </trkpt>
      <trkpt lat="44.84323" lon="4.21991">
        <ele>1453</ele>
        <time>2018-08-14T15:30:06.000Z</time>
      </trkpt>
      <trkpt lat="44.84333" lon="4.22002">
        <ele>1454</ele>
        <time>2018-08-14T15:30:17.000Z</time>
      </trkpt>
      <trkpt lat="44.84338" lon="4.22006">
        <ele>1455</ele>
        <time>2018-08-14T15:30:22.000Z</time>
      </trkpt>
      <trkpt lat="44.8434" lon="4.22008">
        <ele>1455</ele>
        <time>2018-08-14T15:30:23.000Z</time>
      </trkpt>
      <trkpt lat="44.84352" lon="4.22018">
        <ele>1456</ele>
        <time>2018-08-14T15:30:36.000Z</time>
      </trkpt>
      <trkpt lat="44.84353" lon="4.22021">
        <ele>1461</ele>
        <time>2018-08-14T15:31:45.000Z</time>
      </trkpt>
      <trkpt lat="44.84354" lon="4.22023">
        <ele>1461</ele>
        <time>2018-08-14T15:31:46.000Z</time>
      </trkpt>
      <trkpt lat="44.84354" lon="4.22023">
        <ele>1461</ele>
        <time>2018-08-14T15:31:47.000Z</time>
      </trkpt>
      <trkpt lat="44.84359" lon="4.22027">
        <ele>1481</ele>
        <time>2018-08-14T15:34:02.000Z</time>
      </trkpt>
      <trkpt lat="44.84362" lon="4.2203">
        <ele>1481</ele>
        <time>2018-08-14T15:34:03.000Z</time>
      </trkpt>
      <trkpt lat="44.84367" lon="4.22035">
        <ele>1481</ele>
        <time>2018-08-14T15:34:06.000Z</time>
      </trkpt>
      <trkpt lat="44.8437" lon="4.22035">
        <ele>1488</ele>
        <time>2018-08-14T15:34:48.000Z</time>
      </trkpt>
      <trkpt lat="44.84373" lon="4.22035">
        <ele>1488</ele>
        <time>2018-08-14T15:34:49.000Z</time>
      </trkpt>
      <trkpt lat="44.84387" lon="4.22035">
        <ele>1490</ele>
        <time>2018-08-14T15:34:58.000Z</time>
      </trkpt>
      <trkpt lat="44.84385" lon="4.22032">
        <ele>1515</ele>
        <time>2018-08-14T15:38:21.000Z</time>
      </trkpt>
      <trkpt lat="44.84383" lon="4.2203">
        <ele>1515</ele>
        <time>2018-08-14T15:38:22.000Z</time>
      </trkpt>
      <trkpt lat="44.84375" lon="4.22014">
        <ele>1513</ele>
        <time>2018-08-14T15:38:30.000Z</time>
      </trkpt>
      <trkpt lat="44.84377" lon="4.22016">
        <ele>1507</ele>
        <time>2018-08-14T15:38:55.000Z</time>
      </trkpt>
      <trkpt lat="44.84378" lon="4.22018">
        <ele>1507</ele>
        <time>2018-08-14T15:38:56.000Z</time>
      </trkpt>
      <trkpt lat="44.84389" lon="4.22035">
        <ele>1507</ele>
        <time>2018-08-14T15:39:04.000Z</time>
      </trkpt>
      <trkpt lat="44.84386" lon="4.22031">
        <ele>1515</ele>
        <time>2018-08-14T15:40:38.000Z</time>
      </trkpt>
      <trkpt lat="44.84383" lon="4.22028">
        <ele>1515</ele>
        <time>2018-08-14T15:40:39.000Z</time>
      </trkpt>
      <trkpt lat="44.84376" lon="4.22021">
        <ele>1515</ele>
        <time>2018-08-14T15:40:42.000Z</time>
      </trkpt>
      <trkpt lat="44.84377" lon="4.22014">
        <ele>1517</ele>
        <time>2018-08-14T15:41:52.000Z</time>
      </trkpt>
      <trkpt lat="44.84378" lon="4.2201">
        <ele>1517</ele>
        <time>2018-08-14T15:41:53.000Z</time>
      </trkpt>
      <trkpt lat="44.84384" lon="4.21981">
        <ele>1519</ele>
        <time>2018-08-14T15:42:02.000Z</time>
      </trkpt>
      <trkpt lat="44.84393" lon="4.21985">
        <ele>1525</ele>
        <time>2018-08-14T15:42:12.000Z</time>
      </trkpt>
      <trkpt lat="44.8439" lon="4.2198">
        <ele>1532</ele>
        <time>2018-08-14T15:43:51.000Z</time>
      </trkpt>
      <trkpt lat="44.84388" lon="4.21977">
        <ele>1532</ele>
        <time>2018-08-14T15:43:52.000Z</time>
      </trkpt>
      <trkpt lat="44.84379" lon="4.21966">
        <ele>1531</ele>
        <time>2018-08-14T15:43:56.000Z</time>
      </trkpt>
      <trkpt lat="44.84376" lon="4.2196">
        <ele>1519</ele>
        <time>2018-08-14T15:45:23.000Z</time>
      </trkpt>
      <trkpt lat="44.84373" lon="4.21956">
        <ele>1519</ele>
        <time>2018-08-14T15:45:24.000Z</time>
      </trkpt>
      <trkpt lat="44.84361" lon="4.21941">
        <ele>1517</ele>
        <time>2018-08-14T15:45:31.000Z</time>
      </trkpt>
      <trkpt lat="44.84359" lon="4.21936">
        <ele>1495</ele>
        <time>2018-08-14T15:48:59.000Z</time>
      </trkpt>
      <trkpt lat="44.84357" lon="4.21933">
        <ele>1495</ele>
        <time>2018-08-14T15:49:00.000Z</time>
      </trkpt>
      <trkpt lat="44.84356" lon="4.2193">
        <ele>1495</ele>
        <time>2018-08-14T15:49:03.000Z</time>
      </trkpt>
      <trkpt lat="44.84354" lon="4.21926">
        <ele>1494</ele>
        <time>2018-08-14T15:49:09.000Z</time>
      </trkpt>
      <trkpt lat="44.84354" lon="4.21923">
        <ele>1494</ele>
        <time>2018-08-14T15:49:10.000Z</time>
      </trkpt>
      <trkpt lat="44.84346" lon="4.21903">
        <ele>1493</ele>
        <time>2018-08-14T15:49:15.000Z</time>
      </trkpt>
      <trkpt lat="44.84347" lon="4.21899">
        <ele>1488</ele>
        <time>2018-08-14T15:51:43.000Z</time>
      </trkpt>
      <trkpt lat="44.84347" lon="4.21896">
        <ele>1488</ele>
        <time>2018-08-14T15:51:44.000Z</time>
      </trkpt>
      <trkpt lat="44.84349" lon="4.21887">
        <ele>1487</ele>
        <time>2018-08-14T15:51:48.000Z</time>
      </trkpt>
      <trkpt lat="44.84343" lon="4.21889">
        <ele>1468</ele>
        <time>2018-08-14T15:53:42.000Z</time>
      </trkpt>
      <trkpt lat="44.84339" lon="4.21891">
        <ele>1468</ele>
        <time>2018-08-14T15:53:43.000Z</time>
      </trkpt>
      <trkpt lat="44.84328" lon="4.21892">
        <ele>1468</ele>
        <time>2018-08-14T15:53:47.000Z</time>
      </trkpt>
      <trkpt lat="44.84322" lon="4.21888">
        <ele>1461</ele>
        <time>2018-08-14T15:54:33.000Z</time>
      </trkpt>
      <trkpt lat="44.84319" lon="4.21886">
        <ele>1461</ele>
        <time>2018-08-14T15:54:34.000Z</time>
      </trkpt>
      <trkpt lat="44.84317" lon="4.21885">
        <ele>1460</ele>
        <time>2018-08-14T15:54:36.000Z</time>
      </trkpt>
      <trkpt lat="44.84312" lon="4.21872">
        <ele>1446</ele>
        <time>2018-08-14T15:56:37.000Z</time>
      </trkpt>
      <trkpt lat="44.84309" lon="4.21863">
        <ele>1446</ele>
        <time>2018-08-14T15:56:38.000Z</time>
      </trkpt>
      <trkpt lat="44.84306" lon="4.21857">
        <ele>1446</ele>
        <time>2018-08-14T15:56:39.000Z</time>
      </trkpt>
      <trkpt lat="44.84303" lon="4.21848">
        <ele>1445</ele>
        <time>2018-08-14T15:56:42.000Z</time>
      </trkpt>
      <trkpt lat="44.84301" lon="4.21842">
        <ele>1445</ele>
        <time>2018-08-14T15:56:43.000Z</time>
      </trkpt>
      <trkpt lat="44.84293" lon="4.21806">
        <ele>1445</ele>
        <time>2018-08-14T15:56:47.000Z</time>
      </trkpt>
      <trkpt lat="44.84298" lon="4.21792">
        <ele>1443</ele>
        <time>2018-08-14T15:56:54.000Z</time>
      </trkpt>
      <trkpt lat="44.84312" lon="4.21777">
        <ele>1439</ele>
        <time>2018-08-14T15:57:14.000Z</time>
      </trkpt>
      <trkpt lat="44.84315" lon="4.21749">
        <ele>1436</ele>
        <time>2018-08-14T15:57:29.000Z</time>
      </trkpt>
      <trkpt lat="44.84327" lon="4.21731">
        <ele>1431</ele>
        <time>2018-08-14T15:57:53.000Z</time>
      </trkpt>
      <trkpt lat="44.84327" lon="4.21731">
        <ele>1431</ele>
        <time>2018-08-14T15:58:37.000Z</time>
      </trkpt>
    </trkseg>
  </trk>
</gpx>